Date StartTime U_cm/s V_cm/s W_cm/s Ustd_cm/s Vstd_cm/s Wstd_cm/s Uvar_(cm/s)^2 Vvar_(cm/s)^2 Wvar_(cm/s)^2 KE_(m/s)^2 TurbulentKE_(m/s)^2 HorizWindSpeed_cm/s FrictionSpeec_cm/s DragCoef SpeedOfSound_m/s SonicTemperature_C Pressure_mb 
04/13/2013  00:00:00     -248.431      -20.302      -26.878      129.186      107.330       62.394    16688.939    11519.698     3893.073        4.747        1.605      249.260       64.907        0.068      340.499       14.558      856.543
04/13/2013  00:01:00     -205.023      -92.582       -5.337      115.955       82.781       56.631    13445.670     6852.723     3207.041        3.707        1.175      224.958       56.930        0.064      340.447       14.470      856.550
04/13/2013  00:02:00     -158.910      -46.477      -19.569       67.589       57.626       35.721     4568.245     3320.812     1275.977        1.848        0.458      165.567       19.837        0.014      340.455       14.485      856.572
04/13/2013  00:03:00     -178.111       -4.199      -25.762       86.507       87.567       41.926     7483.468     7667.949     1757.768        2.465        0.845      178.160       28.733        0.026      340.486       14.537      856.590
04/13/2013  00:04:00     -175.577      -43.752      -13.319       79.453       65.959       42.725     6312.834     4350.604     1825.406        2.270        0.624      180.947       28.652        0.025      340.483       14.533      856.619
04/13/2013  00:05:00      -27.423      -33.275       18.528       69.673       54.381       38.506     4854.336     2957.293     1482.708        0.575        0.465       43.119       33.231        0.594      340.403       14.400      856.632
04/13/2013  00:06:00      -79.935      -76.477        7.128      118.827       64.947       47.643    14119.812     4218.175     2269.889        1.645        1.030      110.627       61.684        0.311      340.392       14.380      856.647
04/13/2013  00:07:00      -62.677      -75.431       15.549      114.210       62.101       46.550    13043.891     3856.478     2166.921        1.446        0.953       98.072       64.990        0.439      340.376       14.352      856.667
04/13/2013  00:08:00     -140.250      -65.880        1.017       70.518       53.202       39.172     4972.752     2830.438     1534.446        1.667        0.467      154.952       39.507        0.065      340.314       14.248      856.691
04/13/2013  00:09:00     -188.327      -28.738       -5.095       77.954       42.273       37.211     6076.792     1787.007     1384.626        2.278        0.462      190.507       44.340        0.054      340.360       14.325      856.701
04/13/2013  00:10:00     -204.501      -34.679        1.480       63.945       57.327       35.625     4088.969     3286.417     1269.168        2.583        0.432      207.420       31.343        0.023      340.354       14.314      856.705
04/13/2013  00:11:00     -165.157      -36.619        6.933       88.507       73.511       36.161     7833.569     5403.911     1307.618        2.160        0.727      169.168       36.426        0.046      340.355       14.316      856.705
04/13/2013  00:12:00     -143.483      -32.720       -3.292       55.879       39.309       22.245     3122.516     1545.181      494.859        1.341        0.258      147.167       20.819        0.020      340.392       14.381      856.698
04/13/2013  00:13:00      -99.284      -71.627        4.277       61.188       40.297       31.788     3743.913     1623.824     1010.505        1.069        0.319      122.425       33.130        0.073      340.405       14.402      856.703
04/13/2013  00:14:00     -150.638      -82.280        3.340       68.476       57.934       40.831     4688.958     3356.310     1667.131        1.959        0.486      171.645       34.174        0.040      340.356       14.317      856.702
04/13/2013  00:15:00     -108.931      -43.788       -6.132       63.434       47.488       23.030     4023.827     2255.065      530.375        1.031        0.340      117.402       30.375        0.067      340.346       14.302      856.683
04/13/2013  00:16:00     -130.113      -48.103        8.509       88.538       71.356       34.136     7838.972     5091.736     1165.265        1.670        0.705      138.720       39.228        0.080      340.292       14.210      856.676
04/13/2013  00:17:00     -207.775     -136.649       -4.090      109.666       62.246       45.642    12026.594     3874.508     2083.158        3.992        0.899      248.683       53.611        0.046      340.427       14.436      856.674
04/13/2013  00:18:00     -246.126     -160.137       -7.789       68.705       76.097       42.395     4720.323     5790.688     1797.336        4.929        0.615      293.636       36.345        0.015      340.503       14.564      856.654
04/13/2013  00:19:00     -166.381      -91.907       -1.129       71.617       49.048       30.197     5129.040     2405.730      911.864        2.229        0.422      190.077       26.320        0.019      340.483       14.532      856.645
04/13/2013  00:20:00     -150.000      -61.619        6.096       82.772       63.947       42.394     6851.169     4089.225     1797.230        1.953        0.637      162.163       39.739        0.060      340.400       14.393      856.621
04/13/2013  00:21:00     -161.179      -35.116       -8.137       87.736       74.884       37.097     7697.688     5607.574     1376.168        2.098        0.734      164.960       35.421        0.046      340.379       14.357      856.587
04/13/2013  00:22:00     -300.728     -130.354       -6.147      193.612      177.083       64.065    37485.465    31358.253     4104.339        9.020        3.647      327.765       61.869        0.036      340.414       14.417      856.574
04/13/2013  00:23:00     -240.431      -98.563       -6.214      143.809      120.539       66.203    20680.915    14529.751     4382.856        5.357        1.980      259.849       80.785        0.097      340.480       14.528      856.506
04/13/2013  00:24:00     -175.191      -32.139        3.431      109.601       67.101       51.627    12012.474     4502.479     2665.366        2.546        0.959      178.115       57.567        0.104      340.413       14.416      856.505
04/13/2013  00:25:00     -182.830      -77.485       -4.547       81.375       63.649       43.132     6621.871     4051.137     1860.386        2.599        0.627      198.572       33.936        0.029      340.429       14.441      856.475
04/13/2013  00:26:00     -309.966     -101.293       -5.926      129.190      132.278       61.281    16690.140    17497.382     3755.314        7.215        1.897      326.097       67.496        0.043      340.466       14.503      856.454
04/13/2013  00:27:00     -370.916     -103.460      -10.935      121.162      155.884       76.242    14680.268    24299.864     5812.913        9.659        2.240      385.075       68.684        0.032      340.492       14.544      856.420
04/13/2013  00:28:00     -466.141      -27.786      -35.793      207.526      128.362       72.324    43067.152    16476.736     5230.820       14.205        3.239      466.969       85.755        0.034      340.496       14.554      856.405
04/13/2013  00:29:00     -413.200      -50.730       -5.666      145.656      140.481       74.883    21215.700    19734.809     5607.437       10.994        2.328      416.302       77.781        0.035      340.424       14.430      856.390
04/13/2013  00:30:00     -286.210      -79.129      -18.930      111.583       94.417       63.089    12450.687     8914.579     3980.259        5.694        1.267      296.947       45.450        0.023      340.412       14.409      856.394
04/13/2013  00:31:00     -315.425     -101.999      -13.686      150.203      123.208       68.570    22560.950    15180.099     4701.874        7.626        2.122      331.507       72.044        0.047      340.423       14.431      856.383
04/13/2013  00:32:00     -244.868      -77.715      -10.507      107.158       92.248       60.910    11482.844     8509.610     3709.978        4.490        1.185      256.905       35.444        0.019      340.342       14.293      856.411
04/13/2013  00:33:00     -302.073      -44.400      -22.897      165.248       86.837       55.238    27306.831     7540.655     3051.188        6.581        1.895      305.319       67.646        0.049      340.416       14.419      856.424
04/13/2013  00:34:00     -352.759     -110.673      -23.048      160.737      100.616       63.383    25836.401    10123.500     4017.437        8.859        1.999      369.713       60.721        0.027      340.371       14.343      856.421
04/13/2013  00:35:00     -394.704      -66.785      -16.938      157.086      156.198       75.542    24676.149    24397.855     5706.614       10.765        2.739      400.314       85.079        0.045      340.402       14.394      856.405
04/13/2013  00:36:00     -328.648      -56.252      -34.962      118.610      115.223       59.602    14068.439    13276.352     3552.386        7.164        1.545      333.427       56.578        0.029      340.342       14.293      856.435
04/13/2013  00:37:00     -278.791      -24.254       -1.009      121.835       92.608       59.304    14843.828     8576.172     3516.923        5.262        1.347      279.844       54.984        0.039      340.326       14.267      856.442
04/13/2013  00:38:00     -330.783      -26.640      -10.457      171.385       86.427       66.391    29372.776     7469.598     4407.828        7.574        2.063      331.854       79.644        0.058      340.347       14.303      856.470
04/13/2013  00:39:00     -356.330     -113.296      -12.170      136.036       94.040       60.350    18505.701     8843.611     3642.160        8.547        1.550      373.908       57.465        0.024      340.417       14.420      856.466
04/13/2013  00:40:00     -300.286      -69.970      -22.327       81.932       86.857       39.857     6712.848     7544.072     1588.566        5.570        0.792      308.330       28.259        0.008      340.372       14.343      856.448
04/13/2013  00:41:00     -207.903     -106.837        5.521      162.193      115.398       67.583    26306.414    13316.648     4567.410        4.942        2.210      233.748       82.629        0.125      340.366       14.336      856.450
04/13/2013  00:42:00     -191.886      -48.875      -14.147       88.735       63.873       41.409     7873.945     4079.765     1714.738        2.654        0.683      198.012       36.730        0.034      340.407       14.404      856.453
04/13/2013  00:43:00     -183.777      -59.185      -12.372       54.896       48.803       31.760     3013.544     2381.710     1008.726        2.192        0.320      193.072       20.159        0.011      340.350       14.308      856.459
04/13/2013  00:44:00     -236.796       -0.317      -22.794       63.523       60.903       32.618     4035.194     3709.149     1063.915        3.270        0.440      236.797       28.691        0.015      340.428       14.438      856.440
04/13/2013  00:45:00     -259.604      -65.073       -6.725      107.361       68.406       47.643    11526.318     4679.412     2269.899        4.507        0.924      267.636       52.682        0.039      340.430       14.441      856.426
04/13/2013  00:46:00     -207.873      -26.666       -6.718       61.806       59.723       34.607     3820.006     3566.779     1197.646        2.627        0.429      209.577       33.098        0.025      340.443       14.464      856.438
04/13/2013  00:47:00      -81.419      -13.595       -4.170       56.290       44.170       19.246     3168.612     1951.027      370.421        0.616        0.275       82.547       22.235        0.073      340.354       14.318      856.464
04/13/2013  00:48:00      -59.775       22.520       -2.393       55.581       53.696       27.984     3089.216     2883.280      783.083        0.542        0.338       63.877       19.088        0.089      340.357       14.321      856.458
04/13/2013  00:49:00      -78.063      -27.352       -6.756       44.718       28.010       22.892     1999.719      784.545      524.066        0.510        0.165       82.716       14.431        0.030      340.373       14.349      856.495
04/13/2013  00:50:00      -49.643      -23.107       -2.002       37.785       62.417       29.123     1427.733     3895.866      848.154        0.459        0.309       54.758       29.700        0.294      340.531       14.615      856.489
04/13/2013  00:51:00      -11.655       12.126        3.590       30.769       19.895       12.806      946.715      395.819      163.984        0.090        0.075       16.819       12.670        0.567      340.465       14.505      856.502
04/13/2013  00:52:00        5.041       16.495        5.525       36.523       16.120       11.905     1333.898      259.851      141.727        0.103        0.087       17.248       14.559        0.712      340.376       14.353      856.492
04/13/2013  00:53:00       -2.256       54.824        2.437       29.883       31.909       18.218      892.996     1018.214      331.901        0.263        0.112       54.870       14.443        0.069      340.366       14.336      856.458
04/13/2013  00:54:00     -147.731       70.306      -27.122       97.443       82.340       42.949     9495.212     6779.920     1844.611        2.281        0.906      163.607       30.579        0.035      340.565       14.671      856.434
04/13/2013  00:55:00     -102.267      105.860      -25.829       76.411       36.955       29.363     5838.598     1365.660      862.195        1.520        0.403      147.190       32.778        0.050      340.492       14.549      856.450
04/13/2013  00:56:00       29.488      105.307       -0.551       31.772       59.227       35.903     1009.455     3507.785     1289.028        0.888        0.290      109.358       31.200        0.081      340.333       14.280      856.436
04/13/2013  00:57:00       73.329       42.404       18.394       41.112       28.135       27.629     1690.159      791.562      763.348        0.538        0.162       84.707       13.268        0.025      340.255       14.149      856.410
04/13/2013  00:58:00       53.259        9.741       11.136       31.034       30.839       21.854      963.133      951.024      477.586        0.272        0.120       54.143       10.491        0.038      340.182       14.026      856.429
04/13/2013  00:59:00       70.402       -6.681        2.355       30.803       29.989       20.146      948.807      899.326      405.856        0.363        0.113       70.719       10.893        0.024      340.127       13.932      856.442
04/13/2013  01:00:00       68.669       24.713        3.054       42.216       41.399       25.649     1782.190     1713.918      657.882        0.474        0.208       72.980       30.759        0.178      340.189       14.038      856.422
04/13/2013  01:01:00      142.642      102.926        9.565       27.676       22.863       37.488      765.955      522.727     1405.358        1.686        0.135      175.899       17.965        0.010      340.178       14.020      856.384
04/13/2013  01:02:00       50.369      -53.778       18.945       41.933       52.530       25.678     1758.340     2759.447      659.372        0.548        0.259       73.682       23.690        0.103      340.297       14.221      856.395
04/13/2013  01:03:00      -33.635       -4.327       -2.915       45.693       29.436       20.867     2087.870      866.454      435.451        0.227        0.169       33.913       23.668        0.487      340.295       14.217      856.423
04/13/2013  01:04:00       -9.049        4.611       -0.468       25.596       24.633       13.807      655.132      606.802      190.637        0.078        0.073       10.156       14.670        2.087      340.361       14.329      856.434
04/13/2013  01:05:00       27.239       24.219       10.548       12.687       26.269       13.094      160.971      690.084      171.444        0.123        0.051       36.449        7.482        0.042      340.363       14.331      856.428
04/13/2013  01:06:00       27.838      -20.979        0.093       18.819       22.556       14.965      354.136      508.791      223.943        0.115        0.054       34.858       12.560        0.130      340.382       14.364      856.425
04/13/2013  01:07:00       10.900      -65.121      -15.325       12.694       17.600       10.842      161.150      309.749      117.548        0.259        0.029       66.027        8.175        0.015      340.398       14.392      856.419
04/13/2013  01:08:00       -3.433      -16.207       14.888       16.535       44.518       19.734      273.401     1981.808      389.449        0.157        0.132       16.567        2.830        0.029      340.308       14.239      856.409
04/13/2013  01:09:00       -9.560       35.578       54.351       17.760       22.833       14.084      315.421      521.340      198.364        0.267        0.052       36.840       13.245        0.129      340.056       13.814      856.417
04/13/2013  01:10:00        8.521       68.261       76.725       20.456       31.449       25.950      418.450      989.031      673.387        0.635        0.104       68.791       22.002        0.102      340.148       13.969      856.415
04/13/2013  01:11:00        0.404       10.326       51.773       20.119       34.810       20.349      404.788     1211.751      414.101        0.241        0.102       10.334       18.161        3.089      340.186       14.034      856.432
04/13/2013  01:12:00       -4.571       23.578       59.663       15.924       42.739       23.177      253.582     1826.623      537.170        0.338        0.131       24.017       27.429        1.304      340.224       14.096      856.441
04/13/2013  01:13:00       42.701      -40.801       29.199       42.376       60.704       40.475     1795.693     3684.957     1638.192        0.573        0.356       59.060       41.013        0.482      340.215       14.082      856.420
04/13/2013  01:14:00       49.841      -47.959       13.506       37.042       46.769       29.263     1372.077     2187.348      856.312        0.469        0.221       69.168       28.971        0.175      340.095       13.878      856.434
04/13/2013  01:15:00       55.443      -74.427       -4.418       26.977       18.154       15.899      727.762      329.578      252.767        0.497        0.066       92.808        9.854        0.011      340.230       14.107      856.460
04/13/2013  01:16:00       41.887      -72.937       -6.372       23.108       37.363       19.935      533.979     1395.972      397.413        0.472        0.116       84.109       17.563        0.044      340.232       14.108      856.472
04/13/2013  01:17:00       22.957       52.396       57.936       28.166       29.186       17.131      793.303      851.832      293.467        0.428        0.097       57.205       16.596        0.084      340.056       13.812      856.462
04/13/2013  01:18:00       -1.802       46.237       54.442       15.428       27.227       30.479      238.036      741.326      928.968        0.351        0.095       46.272       19.346        0.175      340.068       13.834      856.462
04/13/2013  01:19:00       15.353       21.608       -5.840       15.248       14.751       10.703      232.504      217.600      114.564        0.065        0.028       26.507        7.695        0.084      339.845       13.458      856.478
04/13/2013  01:20:00       53.582        8.786       11.751       21.000       20.587       10.526      441.005      423.843      110.799        0.203        0.049       54.298       10.455        0.037      339.923       13.591      856.471
04/13/2013  01:21:00       56.508       18.505       19.168       34.576       21.349       14.840     1195.469      455.793      220.234        0.289        0.094       59.461       15.307        0.066      339.856       13.476      856.442
04/13/2013  01:22:00        7.273       18.538       -4.090       24.380       35.798       11.297      594.389     1281.488      127.614        0.121        0.100       19.914       10.936        0.302      339.702       13.217      856.452
04/13/2013  01:23:00        3.154       97.050      -15.550        8.300       14.439        6.557       68.890      208.488       42.994        0.500        0.016       97.101        5.435        0.003      339.994       13.709      856.448
04/13/2013  01:24:00      -53.762       12.684       -9.107       41.064       44.787       11.772     1686.270     2005.896      138.574        0.348        0.192       55.238       17.829        0.104      339.957       13.647      856.442
04/13/2013  01:25:00     -115.671      -53.646       -0.181       30.630       20.613       15.054      938.189      424.892      226.617        0.892        0.079      127.506        7.931        0.004      339.600       13.044      856.462
04/13/2013  01:26:00      -39.179      -32.222       -0.342       27.136       15.572       15.079      736.388      242.491      227.382        0.189        0.060       50.727       11.756        0.054      339.715       13.238      856.454
04/13/2013  01:27:00       -4.906      -14.797        5.064       18.876       12.261        7.800      356.285      150.320       60.845        0.042        0.028       15.589        9.443        0.367      339.852       13.468      856.433
04/13/2013  01:28:00       -3.575       -6.575        5.255       21.690       21.289       10.436      470.469      453.210      108.911        0.056        0.052        7.485       14.957        3.993      339.769       13.330      856.400
04/13/2013  01:29:00      -25.730       -0.261       -2.095       25.677       25.451       10.664      659.315      647.771      113.729        0.104        0.071       25.731       14.547        0.320      340.162       13.992      856.404
04/13/2013  01:30:00       -7.545      -28.665        1.001       15.373       12.874       11.244      236.326      165.744      126.420        0.070        0.026       29.641        9.584        0.105      340.121       13.921      856.399
04/13/2013  01:31:00       -8.235       -6.058       -5.322       15.766       19.421       15.394      248.559      377.184      236.969        0.050        0.043       10.223       12.682        1.539      339.877       13.511      856.381
04/13/2013  01:32:00       -1.943       14.783       11.720       15.686       18.127       11.700      246.043      328.595      136.897        0.054        0.036       14.910        1.863        0.016      339.745       13.288      856.366
04/13/2013  01:33:00      -59.829        0.690        3.115       27.031       21.620       15.500      730.700      467.416      240.242        0.251        0.072       59.833       15.495        0.067      339.809       13.397      856.357
04/13/2013  01:34:00      -80.250       11.879       -7.255       21.249       15.127        9.521      451.537      228.834       90.642        0.370        0.039       81.124        7.159        0.008      339.843       13.454      856.346
04/13/2013  01:35:00      -40.277      -19.605       -2.476       20.831       13.772       10.604      433.913      189.673      112.436        0.137        0.037       44.795        7.992        0.032      339.712       13.233      856.343
04/13/2013  01:36:00       11.461       -4.196        2.038        7.005        7.544       11.387       49.074       56.918      129.667        0.019        0.012       12.205        8.128        0.444      339.628       13.093      856.324
04/13/2013  01:37:00      -34.714      -14.598       -9.196       20.687        8.429        5.967      427.938       71.041       35.605        0.102        0.027       37.659        5.195        0.019      339.917       13.580      856.315
04/13/2013  01:38:00     -100.856      -53.536       -1.776       27.000       23.547       17.106      728.979      554.442      292.607        0.731        0.079      114.184       15.621        0.019      339.928       13.596      856.339
04/13/2013  01:39:00      -43.759      -15.223        4.092       28.131       29.300       16.334      791.325      858.492      266.803        0.204        0.096       46.332       17.213        0.138      339.769       13.329      856.344
04/13/2013  01:40:00      -15.726       -1.406       -1.251       17.771       23.835        8.775      315.818      568.126       76.999        0.061        0.048       15.789        9.953        0.397      339.835       13.441      856.297
04/13/2013  01:41:00      -30.786      -57.644        0.607       18.759       29.085        9.209      351.895      845.964       84.798        0.278        0.064       65.350        9.758        0.022      340.226       14.101      856.263
04/13/2013  01:42:00      -35.970     -112.845       -0.714       18.646       32.355       14.066      347.666     1046.875      197.861        0.781        0.080      118.439        9.487        0.006      340.514       14.585      856.248
04/13/2013  01:43:00       -8.453      -43.132        4.971       27.302       38.758       18.065      745.392     1502.160      326.339        0.226        0.129       43.953       17.186        0.153      340.232       14.111      856.231
04/13/2013  01:44:00       -8.844        4.934        5.672       27.161       12.361       12.869      737.741      152.795      165.624        0.060        0.053       10.127       17.243        2.899      340.108       13.902      856.212
04/13/2013  01:45:00      -50.435       -1.722       -4.401       16.978       14.649        9.966      288.267      214.582       99.321        0.158        0.030       50.464       10.083        0.040      339.794       13.370      856.226
04/13/2013  01:46:00        3.316       -2.299       15.380       25.319       12.843       11.260      641.042      164.949      126.793        0.059        0.047        4.034       14.389       12.720      339.611       13.062      856.192
04/13/2013  01:47:00       27.116        5.548       -2.361        9.684        6.295        9.366       93.781       39.624       87.720        0.050        0.011       27.678        2.254        0.007      339.801       13.385      856.153
04/13/2013  01:48:00       14.331        6.394        1.099        8.399        4.517        5.197       70.551       20.405       27.008        0.018        0.006       15.693        5.804        0.137      339.888       13.529      856.144
04/13/2013  01:49:00      -12.337       -3.253        1.579       28.210       12.886       12.688      795.827      166.041      160.995        0.064        0.056       12.759       18.252        2.046      339.800       13.383      856.121
04/13/2013  01:50:00      -46.771      -24.544       -4.099       13.530        9.639        8.568      183.047       92.913       73.404        0.158        0.017       52.820        6.922        0.017      339.764       13.321      856.121
04/13/2013  01:51:00       -9.214      -22.855        1.522       13.717        9.126        7.647      188.152       83.277       58.480        0.047        0.016       24.642        5.459        0.049      339.977       13.679      856.108
04/13/2013  01:52:00       20.429      -18.547        1.650       30.048       10.096        6.368      902.906      101.936       40.546        0.090        0.052       27.592       12.384        0.201      340.148       13.968      856.079
04/13/2013  01:53:00       69.979       72.212       60.711       61.707       47.673       41.102     3807.775     2272.734     1689.348        1.078        0.388      100.556       42.713        0.180      339.878       13.512      856.022
04/13/2013  01:54:00        2.693      -14.111        7.262       23.994       21.243       25.571      575.692      451.275      653.873        0.097        0.084       14.365       13.754        0.917      339.698       13.210      856.034
04/13/2013  01:55:00      -23.673       12.592        4.304       27.227       22.046       14.753      741.308      486.044      217.653        0.109        0.072       26.813       13.347        0.248      339.497       12.872      856.049
04/13/2013  01:56:00      -71.141      -18.115       -9.204       21.403       19.777       13.454      458.106      391.138      181.012        0.325        0.052       73.411       12.176        0.028      339.730       13.264      856.050
04/13/2013  01:57:00      -50.814      -45.999       -6.197       15.199       17.257        9.302      231.006      297.819       86.525        0.268        0.031       68.542        6.458        0.009      340.186       14.032      856.050
04/13/2013  01:58:00      -43.605      -49.698       -5.047       16.179       11.885       12.346      261.770      141.264      152.414        0.248        0.028       66.116        9.316        0.020      340.221       14.090      856.047
04/13/2013  01:59:00      -28.389      -30.167       -9.566       13.159       18.221        9.927      173.146      331.999       98.543        0.121        0.030       41.424        2.616        0.004      340.219       14.089      856.023
04/13/2013  02:00:00      -50.557      -23.496       -6.398       19.962       13.697        8.223      398.476      187.618       67.616        0.190        0.033       55.750        4.367        0.006      340.124       13.926      856.027
04/13/2013  02:01:00      -15.942      -24.765        0.907       26.243       13.659       15.775      688.695      186.561      248.852        0.100        0.056       29.452       10.646        0.131      339.698       13.210      856.051
04/13/2013  02:02:00       10.049       10.710        6.526       21.268       26.722       15.699      452.341      714.073      246.474        0.084        0.071       14.686       20.837        2.013      339.651       13.129      856.023
04/13/2013  02:03:00      -18.897       56.404       -4.265       27.031       20.685       17.644      730.691      427.869      311.325        0.251        0.073       59.485       10.043        0.029      339.994       13.709      855.981
04/13/2013  02:04:00      -80.057       -7.752       -5.178       25.917       35.441       15.225      671.696     1256.036      231.803        0.433        0.108       80.431       13.832        0.030      340.112       13.907      855.987
04/13/2013  02:05:00      -26.025      -48.769        1.406       31.242       37.339       15.483      976.072     1394.208      239.723        0.283        0.131       55.279       16.320        0.087      340.377       14.356      855.969
04/13/2013  02:06:00      -15.669      -58.876        9.683       34.578       41.880       17.214     1195.610     1753.942      296.325        0.353        0.162       60.926       12.311        0.041      340.348       14.306      855.959
04/13/2013  02:07:00       -3.517      -18.241       12.795       51.430       42.498       30.349     2645.025     1806.091      921.055        0.294        0.269       18.577       31.048        2.793      339.727       13.259      855.938
04/13/2013  02:08:00     -150.896     -166.535        1.294       91.378       83.294       51.710     8349.930     6937.812     2673.886        3.423        0.898      224.730       52.651        0.055      340.282       14.192      855.933
04/13/2013  02:09:00     -153.504     -105.530      -13.660       67.243       42.067       22.701     4521.660     1769.671      515.337        2.085        0.340      186.280       24.217        0.017      340.293       14.211      855.935
04/13/2013  02:10:00      -74.184      -44.498       -2.657       42.983       28.669       18.570     1847.565      821.940      344.838        0.525        0.151       86.506       18.019        0.043      340.113       13.909      855.918
04/13/2013  02:11:00      -23.674      -19.823       13.205       25.244       29.504       13.697      637.257      870.457      187.598        0.141        0.085       30.878       11.955        0.150      340.076       13.847      855.905
04/13/2013  02:12:00      -64.936      -14.901        7.087       50.698       22.102       16.506     2570.337      488.520      272.441        0.391        0.167       66.623       22.098        0.110      340.061       13.822      855.914
04/13/2013  02:13:00      -97.500      -26.541       -3.071       47.915       31.370       16.345     2295.877      984.097      267.174        0.688        0.177      101.048       20.057        0.039      339.997       13.715      855.922
04/13/2013  02:14:00      -49.110        2.948       -0.480       47.391       25.020       16.532     2245.926      626.006      273.311        0.278        0.157       49.199       18.509        0.142      339.895       13.543      855.917
04/13/2013  02:15:00      -73.770      -25.730        1.840       35.910       29.241       16.930     1289.509      855.054      286.619        0.427        0.122       78.128       18.883        0.058      340.123       13.927      855.925
04/13/2013  02:16:00      -52.736      -45.483        2.601       35.415       29.268       15.861     1254.204      856.633      251.565        0.361        0.118       69.641       15.698        0.051      339.968       13.666      855.938
04/13/2013  02:17:00      -56.122      -15.969        1.571       30.078       19.325       12.490      904.670      373.474      156.010        0.242        0.072       58.349       11.934        0.042      339.908       13.563      855.925
04/13/2013  02:18:00      -81.081        2.451        1.410       19.117       23.767       13.273      365.460      564.864      176.176        0.384        0.055       81.118        9.773        0.015      340.015       13.745      855.897
04/13/2013  02:19:00       -9.565      -36.369      -14.761       26.628       16.352       14.942      709.030      267.381      223.264        0.142        0.060       37.606        6.815        0.033      340.436       14.456      855.866
04/13/2013  02:20:00     -113.869      -26.758       -3.776       40.088       35.855       22.809     1607.013     1285.571      520.248        0.855        0.171      116.970       20.247        0.030      339.757       13.312      855.856
04/13/2013  02:21:00      -50.977        6.614       -1.343       34.744       25.848       21.895     1207.165      668.103      479.412        0.250        0.118       51.404       16.331        0.101      339.332       12.592      855.851
04/13/2013  02:22:00      -71.041      -42.000        6.531       45.603       31.348       20.240     2079.616      982.696      409.662        0.516        0.174       82.528       19.093        0.054      339.486       12.852      855.859
04/13/2013  02:23:00      -46.548      -49.889        3.848       47.863       24.952       17.941     2290.848      622.627      321.874        0.395        0.162       68.232       21.464        0.099      339.940       13.618      855.861
04/13/2013  02:24:00       30.810        3.088        7.945       17.124       16.385        8.947      293.235      268.463       80.055        0.083        0.032       30.964        9.156        0.087      339.668       13.161      855.797
04/13/2013  02:25:00      -53.279      -20.225       -4.167       65.406       23.491       12.350     4277.990      551.804      152.514        0.412        0.249       56.989       13.962        0.060      339.828       13.431      855.780
04/13/2013  02:26:00      -76.748      -49.356       -1.507       52.147       27.752       17.791     2719.321      770.165      316.519        0.607        0.190       91.248       14.185        0.024      339.574       13.001      855.775
04/13/2013  02:27:00      -24.478      -66.696        5.621       24.188       39.770       14.947      585.069     1581.676      223.405        0.373        0.120       71.046       13.365        0.035      339.703       13.217      855.745
04/13/2013  02:28:00      -16.761      -65.053       -2.010       10.370       29.620       17.881      107.533      877.345      319.748        0.291        0.065       67.178        6.913        0.011      340.133       13.944      855.684
04/13/2013  02:29:00        1.408      -48.793      -11.118       35.889       36.652       24.667     1288.019     1343.336      608.456        0.287        0.162       48.813       23.503        0.232      339.998       13.716      855.654
04/13/2013  02:30:00      -65.644      -54.023        3.523       37.831       44.618       23.705     1431.201     1990.759      561.942        0.561        0.199       85.015       24.170        0.081      339.817       13.410      855.650
04/13/2013  02:31:00      -96.965      -32.891       -2.260       35.382       35.373       19.672     1251.903     1251.264      386.992        0.669        0.145      102.391       18.220        0.032      339.788       13.361      855.644
04/13/2013  02:32:00      -96.902      -45.682        2.212       31.440       22.888       16.631      988.453      523.875      276.592        0.664        0.089      107.130       12.508        0.014      339.722       13.250      855.650
04/13/2013  02:33:00      -65.997      -33.782       -3.621       19.982       21.224       12.327      399.288      450.466      151.965        0.326        0.050       74.141        8.071        0.012      339.647       13.126      855.654
04/13/2013  02:34:00       10.527      -61.202       -0.906       16.970       25.418       10.996      287.990      646.062      120.912        0.246        0.053       62.101        8.556        0.019      339.680       13.180      855.605
04/13/2013  02:35:00        1.918      -35.778       -6.322       18.866       15.605        9.898      355.938      243.514       97.979        0.101        0.035       35.829        9.340        0.068      339.874       13.508      855.589
04/13/2013  02:36:00      -21.086      -55.701       -1.106       19.467       28.480       12.361      378.945      811.136      152.791        0.245        0.067       59.559       12.679        0.045      340.014       13.742      855.569
04/13/2013  02:37:00      -45.998      -61.320       -0.217       22.451       22.701       11.321      504.031      515.357      128.160        0.351        0.057       76.655        7.825        0.010      340.316       14.253      855.563
04/13/2013  02:38:00       29.508      -14.922        6.304       25.260       28.462       12.357      638.078      810.098      152.689        0.137        0.080       33.066       12.150        0.135      339.851       13.467      855.548
04/13/2013  02:39:00       41.042       26.986       13.379       12.978       12.311       16.113      168.438      151.552      259.628        0.159        0.029       49.119       10.374        0.045      339.764       13.320      855.513
04/13/2013  02:40:00       32.711       39.217       19.943       43.487       23.846       16.982     1891.117      568.643      288.387        0.288        0.137       51.068       22.082        0.187      339.718       13.244      855.446
04/13/2013  02:41:00      -71.799       16.488       -9.050       25.446       18.858       12.767      647.518      355.614      162.989        0.334        0.058       73.668       13.786        0.035      339.552       12.963      855.464
04/13/2013  02:42:00      -85.918       -8.151      -15.634       17.074       10.388       11.820      291.527      107.911      139.722        0.412        0.027       86.304        9.856        0.013      339.260       12.472      855.480
04/13/2013  02:43:00      -42.386       -0.379       -3.289       21.604       13.510        9.495      466.738      182.530       90.157        0.127        0.037       42.387        6.050        0.020      339.416       12.734      855.461
04/13/2013  02:44:00      -26.225        8.995       -2.505       17.172       21.570        8.942      294.861      465.280       79.966        0.081        0.042       27.725       10.888        0.154      339.709       13.229      855.423
04/13/2013  02:45:00      -34.672      -37.524       -9.060        6.542       11.252        5.199       42.796      126.603       27.033        0.144        0.010       51.090        4.201        0.007      339.871       13.501      855.429
04/13/2013  02:46:00      -61.465      -13.819       -9.373       10.845       20.561        8.578      117.613      422.767       73.577        0.234        0.031       62.999       10.920        0.030      339.591       13.028      855.414
04/13/2013  02:47:00      -11.488       34.884      -13.211       27.550       32.038       13.771      759.016     1026.449      189.643        0.175        0.099       36.727        9.749        0.070      340.105       13.895      855.383
04/13/2013  02:48:00       44.440       29.939        6.826       23.820       19.415       15.606      567.410      376.934      243.536        0.205        0.059       53.585       13.476        0.063      339.969       13.667      855.345
04/13/2013  02:49:00      -37.635        7.515      -10.227       16.803       20.083       10.286      282.348      403.332      105.802        0.118        0.040       38.378       10.006        0.068      339.829       13.431      855.351
04/13/2013  02:50:00      -45.664       23.208       -0.939       29.613       66.123       17.807      876.921     4372.189      317.088        0.409        0.278       51.223       17.502        0.117      339.794       13.372      855.352
04/13/2013  02:51:00        1.023      114.613      -13.670       51.522       68.130       33.270     2654.531     4641.759     1106.882        1.086        0.420      114.617       26.710        0.054      340.072       13.839      855.295
04/13/2013  02:52:00       52.912       12.569       -3.856       47.585       35.982       28.120     2264.347     1294.691      790.733        0.366        0.217       54.384       16.220        0.089      339.858       13.479      855.272
04/13/2013  02:53:00       85.721       68.073       29.593       87.946       51.784       42.112     7734.482     2681.554     1773.408        1.252        0.609      109.463       23.281        0.045      339.849       13.464      855.251
04/13/2013  02:54:00      -49.232      -57.379      -22.060       94.745       44.158       28.943     8976.595     1949.931      837.691        0.898        0.588       75.605       21.515        0.081      340.184       14.030      855.234
04/13/2013  02:55:00       14.770       38.846        7.333       34.306       44.887       26.991     1176.933     2014.864      728.526        0.285        0.196       41.559       21.284        0.262      340.070       13.836      855.221
04/13/2013  02:56:00       27.585       76.371      -13.649       18.682       27.308       26.494      349.025      745.731      701.955        0.429        0.090       81.200       12.560        0.024      340.183       14.027      855.203
04/13/2013  02:57:00       52.692       55.300       -3.601       34.362       49.494       22.923     1180.753     2449.666      525.446        0.500        0.208       76.384       16.643        0.047      339.966       13.662      855.181
04/13/2013  02:58:00       46.263       -8.406      -17.233       34.438       16.065       20.312     1185.946      258.095      412.590        0.218        0.093       47.020       21.900        0.217      340.105       13.896      855.185
04/13/2013  02:59:00       62.199       23.906       12.368       38.471       63.343       37.879     1480.045     4012.283     1434.846        0.576        0.346       66.635       21.956        0.109      340.021       13.754      855.149
04/13/2013  03:00:00       42.520       33.357        9.905       40.755       37.354       29.446     1660.987     1395.356      867.079        0.347        0.196       54.043        8.954        0.027      339.861       13.485      855.142
04/13/2013  03:01:00       55.222       51.680       51.994       71.534       47.667       29.728     5117.149     2272.156      883.756        0.835        0.414       75.633       25.240        0.111      340.049       13.802      855.128
04/13/2013  03:02:00       33.669       58.826       65.563       34.939       38.522       43.749     1220.747     1483.933     1913.949        0.675        0.231       67.780       27.472        0.164      340.004       13.725      855.088
04/13/2013  03:03:00       26.599       43.654       67.070       44.408       35.880       23.501     1972.080     1287.373      552.314        0.546        0.191       51.119       23.325        0.208      339.674       13.170      855.061
04/13/2013  03:04:00       -8.402       29.422       63.544       11.215       26.045       13.879      125.777      678.345      192.639        0.299        0.050       30.599       12.697        0.172      339.527       12.922      855.060
04/13/2013  03:05:00       55.556      -19.116       18.009       50.588       48.583       36.425     2559.154     2360.298     1326.773        0.501        0.312       58.753       35.405        0.363      339.439       12.774      855.049
04/13/2013  03:06:00       18.442       69.531      100.849       40.938       63.929       48.089     1675.945     4086.910     2312.523        1.171        0.404       71.935       49.637        0.476      339.407       12.718      855.017
04/13/2013  03:07:00       94.739      142.921      121.751       77.874       62.744       52.700     6064.322     3936.860     2777.321        2.850        0.639      171.470       55.130        0.103      339.463       12.810      854.988
04/13/2013  03:08:00       93.179      137.335      119.789       65.523       75.130       51.394     4293.236     5644.549     2641.383        2.723        0.629      165.961       46.082        0.077      339.468       12.817      854.993
04/13/2013  03:09:00       41.251       91.483      103.258       48.598       46.770       35.613     2361.733     2187.394     1268.284        1.327        0.291      100.353       33.943        0.114      339.380       12.675      855.027
04/13/2013  03:10:00       48.949       39.134       58.729       43.814       49.098       28.542     1919.710     2410.625      814.673        0.626        0.257       62.670       24.693        0.155      339.323       12.578      855.042
04/13/2013  03:11:00       50.597       30.671       43.942       43.892       46.297       27.360     1926.537     2143.389      748.553        0.512        0.241       59.167       30.448        0.265      339.278       12.500      855.077
04/13/2013  03:12:00      113.971       33.907       24.665       67.004       43.971       45.961     4489.575     1933.474     2112.437        1.164        0.427      118.908       30.743        0.067      339.201       12.372      855.065
04/13/2013  03:13:00      167.835       98.878       55.254       57.592       44.435       46.473     3316.805     1974.461     2159.728        2.422        0.373      194.796       30.568        0.025      339.073       12.154      855.036
04/13/2013  03:14:00       75.486       56.305       33.724       76.417       47.744       42.303     5839.582     2279.499     1789.515        0.996        0.495       94.172       28.664        0.093      339.066       12.146      855.054
04/13/2013  03:15:00       51.803       24.872       20.286       33.866       23.216       24.210     1146.922      539.004      586.141        0.299        0.114       57.464       15.491        0.073      339.045       12.110      855.092
04/13/2013  03:16:00       43.471       29.496       29.877       29.740       13.846       17.051      884.480      191.723      290.737        0.251        0.068       52.534        9.917        0.036      338.959       11.966      855.077
04/13/2013  03:17:00       40.416       30.786       25.544       22.072       19.288       21.810      487.182      372.046      475.665        0.228        0.067       50.805       14.197        0.078      338.932       11.919      855.045
04/13/2013  03:18:00       49.575       47.268       35.931       28.467       26.923       18.241      810.353      724.873      332.737        0.393        0.093       68.498        8.964        0.017      338.945       11.941      854.969
04/13/2013  03:19:00       34.665       32.673       13.801       25.451       27.806       16.753      647.756      773.197      280.672        0.208        0.085       47.636       11.211        0.055      338.890       11.848      854.907
04/13/2013  03:20:00        3.343       12.890        0.937       10.162       12.507        9.526      103.259      156.424       90.750        0.026        0.018       13.316        3.485        0.069      338.942       11.935      854.884
04/13/2013  03:21:00       -5.834      -11.893       -3.993        9.189        8.126        6.252       84.434       66.032       39.094        0.019        0.009       13.247        5.759        0.189      339.040       12.101      854.867
04/13/2013  03:22:00       28.454       28.553       30.011       26.088       25.025       14.807      680.594      626.249      219.262        0.203        0.076       40.311       16.730        0.172      338.906       11.874      854.823
04/13/2013  03:23:00       63.035       33.330       27.702       37.529       26.919       30.261     1408.402      724.645      915.725        0.445        0.152       71.304       20.874        0.086      338.913       11.888      854.785
04/13/2013  03:24:00        3.910      -24.587       21.306       13.187       40.181       21.208      173.889     1614.480      449.783        0.166        0.112       24.896       15.541        0.390      338.939       11.932      854.827
04/13/2013  03:25:00       20.615      -18.546        2.579       17.371       21.944       11.282      301.745      481.549      127.286        0.084        0.046       27.730        8.185        0.087      339.012       12.055      854.858
04/13/2013  03:26:00        8.778        6.904       15.842       12.438       26.577       15.899      154.712      706.318      252.788        0.074        0.056       11.168       14.875        1.774      338.905       11.874      854.865
04/13/2013  03:27:00      -27.289       52.238      -11.244       34.200       17.411       17.822     1169.647      303.160      317.631        0.269        0.090       58.936       18.970        0.104      339.024       12.075      854.877
04/13/2013  03:28:00       49.618       83.132       -6.127       52.887       20.844       17.760     2796.999      434.463      315.406        0.648        0.177       96.813       14.772        0.023      338.959       11.964      854.867
04/13/2013  03:29:00      124.448       67.690       17.370       37.054       32.436       34.655     1372.997     1052.093     1200.978        1.200        0.181      141.666       24.969        0.031      338.865       11.806      854.784
04/13/2013  03:30:00       68.262       11.319        9.038       35.186       35.500       23.458     1238.081     1260.275      550.256        0.396        0.152       69.194       17.437        0.064      338.882       11.835      854.800
04/13/2013  03:31:00      -28.409       11.164      -15.971       45.246       17.421       10.573     2047.207      303.486      111.780        0.182        0.123       30.524       14.466        0.225      338.792       11.683      854.859
04/13/2013  03:32:00      -59.456        5.841       -9.346       52.580       21.083       16.953     2764.655      444.495      287.415        0.358        0.175       59.743       24.244        0.165      338.538       11.257      854.903
04/13/2013  03:33:00       21.294        2.283       -5.294        8.436       14.612       13.098       71.167      213.512      171.548        0.047        0.023       21.416        9.322        0.189      338.686       11.507      854.902
04/13/2013  03:34:00       71.304       56.534       12.844       32.043       20.374       15.587     1026.735      415.115      242.956        0.506        0.084       90.997       18.223        0.040      338.924       11.907      854.888
04/13/2013  03:35:00       57.153       71.196       25.184       41.597       28.217       24.916     1730.313      796.202      620.831        0.606        0.157       91.298       23.344        0.065      338.884       11.838      854.876
04/13/2013  03:36:00        3.407       54.790       -7.035       35.593       30.873       15.360     1266.886      953.162      235.921        0.276        0.123       54.896       17.170        0.098      338.837       11.760      854.896
04/13/2013  03:37:00      -62.520       28.832       -6.117       21.413       24.153       14.418      458.517      583.383      207.870        0.301        0.062       68.848       13.945        0.041      338.755       11.623      854.905
04/13/2013  03:38:00      -39.229       68.084      -11.159       21.014       19.798       11.697      441.569      391.958      136.818        0.363        0.049       78.577       12.692        0.026      338.972       11.987      854.901
04/13/2013  03:39:00      -34.083       23.849       -4.215       20.115       25.598        9.433      404.608      655.282       88.976        0.145        0.057       41.599        8.496        0.042      339.052       12.122      854.887
04/13/2013  03:40:00      -42.810       76.876       -9.112       25.828       56.901       15.363      667.085     3237.684      236.008        0.598        0.207       87.992       13.687        0.024      338.992       12.020      854.896
04/13/2013  03:41:00      -12.289      148.290      -18.172       24.148       23.723       16.407      583.147      562.788      269.183        1.194        0.071      148.799        9.007        0.004      339.239       12.436      854.885
04/13/2013  03:42:00       43.975       41.502       -2.288       29.775       39.005       30.139      886.534     1521.403      908.385        0.349        0.166       60.467       24.342        0.162      339.427       12.753      854.867
04/13/2013  03:43:00       75.310       40.010       14.876       26.387       26.810       23.310      696.268      718.789      543.371        0.473        0.098       85.279       10.252        0.014      338.961       11.969      854.823
04/13/2013  03:44:00       -9.971       20.046        4.772       59.579       33.155       25.108     3549.711     1099.235      630.415        0.290        0.264       22.389       27.264        1.483      338.973       11.988      854.801
04/13/2013  03:45:00       -7.350       61.247       -5.119       33.682       32.108       25.197     1134.488     1030.918      634.897        0.332        0.140       61.687       18.609        0.091      339.525       12.918      854.763
04/13/2013  03:46:00       48.103       45.558        3.342       16.586       18.151       14.043      275.107      329.461      197.213        0.260        0.040       66.253       10.381        0.025      339.130       12.252      854.714
04/13/2013  03:47:00      -24.572       -3.972       -0.017       46.730       58.398       43.863     2183.685     3410.279     1923.995        0.407        0.376       24.891       37.939        2.323      339.453       12.797      854.704
04/13/2013  03:48:00      -56.365       60.280        4.025       47.175       59.948       43.525     2225.454     3593.706     1894.444        0.727        0.386       82.527       22.474        0.074      339.639       13.110      854.727
04/13/2013  03:49:00       17.721      -78.260       -9.488       48.203       66.935       23.493     2323.548     4480.358      551.943        0.694        0.368       80.241       22.512        0.079      339.712       13.232      854.721
04/13/2013  03:50:00       38.460       14.796       -4.759       62.609       73.902       44.623     3919.874     5461.435     1991.170        0.654        0.569       41.208       41.739        1.026      339.748       13.296      854.709
04/13/2013  03:51:00       16.646      -23.769       -0.614       58.226       66.661       29.283     3390.243     4443.721      857.474        0.477        0.435       29.018       13.499        0.216      339.721       13.248      854.676
04/13/2013  03:52:00       36.334       54.330       55.742       49.485       45.103       46.185     2448.756     2034.319     2133.014        0.700        0.331       65.360       37.170        0.323      339.402       12.710      854.609
04/13/2013  03:53:00       82.611       60.935       32.949       58.059       43.567       28.385     3370.813     1898.087      805.721        0.885        0.304      102.653       24.574        0.057      339.334       12.597      854.641
04/13/2013  03:54:00       29.505       55.532       68.387       40.317       41.114       22.802     1625.495     1690.392      519.909        0.623        0.192       62.884       21.908        0.121      339.104       12.209      854.605
04/13/2013  03:55:00       23.875      104.522      104.119       57.733       57.720       44.797     3333.076     3331.605     2006.807        1.550        0.434      107.214       45.202        0.178      339.526       12.919      854.603
04/13/2013  03:56:00      103.582       54.276       27.444       56.330       36.133       30.342     3173.085     1305.583      920.625        0.991        0.270      116.941       26.200        0.050      339.561       12.978      854.551
04/13/2013  03:57:00       67.753       64.474        3.108       59.125       32.473       33.338     3495.760     1054.503     1111.403        0.721        0.283       93.527       30.662        0.107      339.496       12.868      854.512
04/13/2013  03:58:00      -74.937       20.571      -10.659       24.636       21.694       13.453      606.928      470.623      180.973        0.371        0.063       77.709        8.970        0.013      339.378       12.670      854.535
04/13/2013  03:59:00      -63.787      -22.100       -5.158       39.249       20.633       15.784     1540.521      425.736      249.132        0.340        0.111       67.507       11.802        0.031      339.281       12.507      854.568
04/13/2013  04:00:00     -103.909      -58.534       -5.287       66.162       40.128       31.227     4377.424     1610.221      975.106        1.061        0.348      119.261       10.990        0.008      339.408       12.721      854.574
04/13/2013  04:01:00      -81.470      -38.099       23.307       84.347       69.918       44.986     7114.437     4888.587     2023.712        1.133        0.701       89.939       39.181        0.190      339.329       12.588      854.536
04/13/2013  04:02:00       35.517      -59.082        3.094       66.774       65.969       35.817     4458.760     4351.960     1282.834        0.743        0.505       68.935       33.801        0.240      339.918       13.579      854.455
04/13/2013  04:03:00      -74.024      -49.363       -8.343       73.529       51.314       25.045     5406.526     2633.080      627.232        0.832        0.433       88.974       18.181        0.042      340.011       13.737      854.432
04/13/2013  04:04:00     -161.626      -99.245       -7.505       66.965       87.726       38.792     4484.264     7695.808     1504.856        2.485        0.684      189.664       27.085        0.020      339.373       12.659      854.482
04/13/2013  04:05:00      -15.574      -16.073       14.625       44.551       33.802       20.825     1984.781     1142.558      433.684        0.214        0.178       22.381       23.145        1.069      339.096       12.195      854.451
04/13/2013  04:06:00     -134.222      -44.484      -12.182       37.819       19.427       17.917     1430.241      377.416      321.031        1.114        0.106      141.402       18.014        0.016      339.127       12.246      854.439
04/13/2013  04:07:00      -49.869      -61.842        3.344       35.155       23.154       13.280     1235.874      536.120      176.369        0.414        0.097       79.444       11.367        0.020      339.440       12.776      854.457
04/13/2013  04:08:00       29.678        3.215       24.991       64.204       72.467       36.202     4122.216     5251.505     1310.582        0.610        0.534       29.852       55.799        3.494      339.534       12.934      854.418
04/13/2013  04:09:00     -109.286      -28.932       11.025      121.629       85.852       41.849    14793.538     7370.504     1751.368        1.840        1.196      113.050       55.137        0.238      339.307       12.547      854.440
04/13/2013  04:10:00     -112.840      -59.071        7.410       56.200       35.894       19.573     3158.386     1288.403      383.103        1.055        0.241      127.367       18.184        0.020      339.411       12.726      854.489
04/13/2013  04:11:00      -77.948      -20.810       -4.453       41.803       20.793       24.776     1747.485      432.334      613.845        0.466        0.140       80.678       24.188        0.090      339.707       13.224      854.467
04/13/2013  04:12:00       37.740       36.769       -0.741       46.091       31.854       25.600     2124.340     1014.647      655.354        0.328        0.190       52.690       15.008        0.081      339.848       13.462      854.418
04/13/2013  04:13:00       -9.680       16.068       24.483       44.184       28.816       18.981     1952.266      830.387      360.279        0.205        0.157       18.759       20.813        1.231      339.429       12.754      854.397
04/13/2013  04:14:00      -46.162       43.182      -20.798       33.463       22.240       13.372     1119.781      494.608      178.806        0.311        0.090       63.211       12.383        0.038      339.568       12.990      854.398
04/13/2013  04:15:00      -62.924      -31.302      -11.466       52.435       44.336       18.487     2749.436     1965.712      341.758        0.506        0.253       70.279       23.796        0.115      339.690       13.196      854.382
04/13/2013  04:16:00     -116.605      -52.643        1.975       55.969       74.323       41.674     3132.498     5523.958     1736.757        1.338        0.520      127.937       43.900        0.118      339.763       13.320      854.410
04/13/2013  04:17:00      -38.803       41.889      -13.840       39.062       40.576       22.533     1525.818     1646.446      507.738        0.357        0.184       57.100       19.506        0.117      340.090       13.869      854.382
04/13/2013  04:18:00      -36.587      -98.971       -8.844       39.840       30.067       22.105     1587.219      904.049      488.627        0.710        0.149      105.517        2.650        0.001      340.085       13.862      854.407
04/13/2013  04:19:00       27.928      -25.831       41.217       58.340       81.838       45.441     3403.531     6697.453     2064.901        0.765        0.608       38.043       52.283        1.889      339.951       13.638      854.377
04/13/2013  04:20:00        5.349       51.968      -11.161       18.475       60.687       24.947      341.341     3682.917      622.354        0.375        0.232       52.242       22.870        0.192      339.683       13.184      854.378
04/13/2013  04:21:00      -32.205       -8.255        6.128       48.553       35.789       19.563     2357.350     1280.860      382.697        0.258        0.201       33.246       17.458        0.276      339.696       13.207      854.387
04/13/2013  04:22:00       51.365       -9.210       12.829       57.083       46.532       29.621     3258.466     2165.229      877.429        0.459        0.315       52.184       16.808        0.104      339.996       13.712      854.396
04/13/2013  04:23:00     -102.868      -19.877       -3.934       68.477       45.705       27.593     4689.121     2088.956      761.389        0.926        0.377      104.771       31.597        0.091      339.887       13.529      854.422
04/13/2013  04:24:00      -22.897      -36.398        1.065       41.091       33.144       18.626     1688.462     1098.554      346.910        0.249        0.157       43.001       15.960        0.138      339.901       13.552      854.443
04/13/2013  04:25:00       10.983      -87.053       26.302       74.322      122.892       75.618     5523.808    15102.420     5718.126        1.736        1.317       87.743       59.986        0.467      339.921       13.586      854.430
04/13/2013  04:26:00     -124.779       15.357       -3.963      102.063       71.977       33.013    10416.818     5180.760     1089.839        1.625        0.834      125.720       29.737        0.056      339.939       13.616      854.456
04/13/2013  04:27:00      -88.748      -36.131        7.910       68.353       44.276       33.029     4672.185     1960.322     1090.887        0.848        0.386       95.821       33.303        0.121      339.820       13.416      854.475
04/13/2013  04:28:00     -149.070     -134.203        0.543       93.287       76.076       46.136     8702.555     5787.514     2128.500        2.842        0.831      200.580       51.439        0.066      340.028       13.764      854.489
04/13/2013  04:29:00     -147.314      -49.479        4.922       75.374       71.660       42.627     5681.282     5135.110     1817.101        1.840        0.632      155.401       40.885        0.069      339.933       13.606      854.483
04/13/2013  04:30:00     -275.148      -55.197       -6.964      203.712      126.165       70.228    41498.710    15917.565     4931.954        7.056        3.117      280.630       87.682        0.098      340.132       13.940      854.480
04/13/2013  04:31:00     -368.974       -6.967      -27.874      108.474       90.249       51.146    11766.538     8144.830     2615.895        7.974        1.126      369.040       41.944        0.013      340.277       14.182      854.452
04/13/2013  04:32:00     -339.237      -19.197      -21.772      152.633      113.964       69.617    23296.784    12987.815     4846.463        7.852        2.057      339.779       70.638        0.043      340.274       14.177      854.447
04/13/2013  04:33:00     -509.888      -82.056      -33.431      213.759      167.970       92.106    45693.088    28214.062     8483.519       17.510        4.120      516.448       95.934        0.035      340.399       14.388      854.422
04/13/2013  04:34:00     -399.236      -83.088      -12.268      195.628      187.562       92.398    38270.423    35179.517     8537.432       12.420        4.099      407.790       91.007        0.050      340.454       14.483      854.408
04/13/2013  04:35:00     -451.372      -81.992       -5.874      170.724      143.062       80.644    29146.689    20466.847     6503.479       13.330        2.806      458.758       85.922        0.035      340.444       14.465      854.421
04/13/2013  04:36:00     -308.292      -65.738       11.972      226.708      119.374       71.673    51396.540    14250.189     5137.035        8.513        3.539      315.223       88.021        0.078      340.345       14.298      854.443
04/13/2013  04:37:00     -507.768      -45.206      -36.907      162.102      180.110       88.356    26276.933    32439.552     7806.744       16.387        3.326      509.776       85.529        0.028      340.457       14.487      854.399
04/13/2013  04:38:00     -313.475     -124.512      -19.969      180.506      125.778       84.895    32582.249    15820.093     7207.147        8.488        2.780      337.298       89.424        0.070      340.408       14.404      854.379
04/13/2013  04:39:00     -468.327      -82.706      -46.219      125.328      119.807       79.209    15706.989    14353.680     6274.110       13.231        1.817      475.574       54.760        0.013      340.368       14.337      854.399
04/13/2013  04:40:00     -413.065      -61.452      -11.955      176.626      122.040       65.898    31196.885    14893.831     4342.531       11.248        2.522      417.611       83.764        0.040      340.341       14.291      854.385
04/13/2013  04:41:00     -660.671      -64.094      -27.579      220.758      207.209       93.790    48733.922    42935.462     8796.554       27.089        5.023      663.773      103.033        0.024      340.455       14.485      854.353
04/13/2013  04:42:00     -584.058      -43.745      -50.250      279.870      154.846       85.863    78327.418    23977.393     7372.460       22.760        5.484      585.694      121.718        0.043      340.462       14.495      854.340
04/13/2013  04:43:00     -346.356      -85.414      -27.894      180.577      159.713       89.085    32608.211    25508.210     7936.082        9.703        3.303      356.732       87.282        0.060      340.365       14.333      854.362
04/13/2013  04:44:00     -389.607      -55.704      -18.216      225.300      141.084       95.276    50760.267    19904.604     9077.501       11.747        3.987      393.569       76.606        0.038      340.343       14.294      854.397
04/13/2013  04:45:00     -378.260      -84.931        7.583      255.447      166.684       92.750    65253.104    27783.551     8602.616       12.598        5.082      387.678      100.720        0.067      340.352       14.311      854.420
04/13/2013  04:46:00     -582.872      -72.689      -43.260      169.241      127.214       77.871    28642.377    16183.367     6063.946       19.888        2.544      587.387       80.562        0.019      340.400       14.389      854.406
04/13/2013  04:47:00     -322.140      -41.404      -35.831      145.931      117.077       73.919    21295.918    13706.970     5463.970        7.361        2.023      324.790       69.223        0.045      340.301       14.223      854.398
04/13/2013  04:48:00     -407.740      -24.248      -31.349      157.534      133.183       75.046    24816.841    17737.801     5631.871       10.800        2.409      408.460       61.510        0.023      340.337       14.285      854.393
04/13/2013  04:49:00     -326.100      -58.635      -23.314      220.780      115.920       83.047    48743.997    13437.555     6896.867        8.969        3.454      331.330       94.512        0.081      340.321       14.257      854.388
04/13/2013  04:50:00     -308.736      -46.638      -21.829      145.007      132.671       72.464    21026.971    17601.624     5251.019        7.092        2.194      312.239       69.800        0.050      340.242       14.124      854.384
04/13/2013  04:51:00     -426.052      -20.267      -36.774      129.884      124.900       66.255    16869.957    15600.118     4389.779       11.007        1.843      426.534       72.397        0.029      340.234       14.111      854.383
04/13/2013  04:52:00     -263.031      -50.678       -3.498      185.524      137.759       86.670    34419.006    18977.444     7511.727        6.633        3.045      267.868      100.598        0.141      340.265       14.163      854.345
04/13/2013  04:53:00     -402.623      -91.025      -16.748      166.408      143.053       79.042    27691.500    20464.223     6247.584       11.253        2.720      412.784       74.695        0.033      340.320       14.256      854.373
04/13/2013  04:54:00     -480.764      -35.484      -20.504      204.758      153.038       88.815    41925.773    23420.706     7888.169       15.301        3.662      482.071      101.219        0.044      340.376       14.350      854.366
04/13/2013  04:55:00     -346.532     -139.423       10.378      190.899      178.238       86.454    36442.581    31768.823     7474.245       10.765        3.784      373.528       94.902        0.065      340.341       14.291      854.375
04/13/2013  04:56:00     -400.821     -102.120      -17.218      146.672      136.753       76.788    21512.689    18701.315     5896.438       10.874        2.306      413.625       75.427        0.033      340.353       14.311      854.366
04/13/2013  04:57:00     -364.941     -151.137      -29.231      200.119      134.699       66.120    40047.663    18143.939     4371.840       10.971        3.128      394.999       81.347        0.042      340.385       14.366      854.412
04/13/2013  04:58:00     -313.388      -45.483       -8.803      143.586      161.929       76.807    20617.063    26221.079     5899.379        7.654        2.637      316.671       74.594        0.055      340.352       14.311      854.417
04/13/2013  04:59:00     -529.739      -65.698      -59.985      182.266      159.472       87.320    33221.060    25431.368     7624.766       17.740        3.314      533.798       91.756        0.030      340.380       14.357      854.429
04/13/2013  05:00:00     -517.741     -103.786      -32.276      189.608      128.260       84.343    35951.146    16450.590     7113.809       16.968        2.976      528.041       94.679        0.032      340.395       14.381      854.420
04/13/2013  05:01:00     -366.209      -75.179      -10.644      171.771      142.154       83.431    29505.429    20207.712     6960.804        9.826        2.834      373.846       75.295        0.041      340.309       14.237      854.416
04/13/2013  05:02:00     -511.443     -105.665        4.280      216.713      192.280       98.872    46964.670    36971.663     9775.767       18.322        4.686      522.244      105.023        0.040      340.351       14.308      854.384
04/13/2013  05:03:00     -460.560     -205.445      -16.706      162.343      141.619       82.616    26355.302    20055.884     6825.445       15.391        2.662      504.304       70.912        0.020      340.312       14.241      854.372
04/13/2013  05:04:00     -393.124      -95.015       -5.859      164.414      158.079       83.484    27032.012    24988.933     6969.585       11.129        2.950      404.444       87.815        0.047      340.282       14.191      854.393
04/13/2013  05:05:00     -437.787     -158.088      -19.858      150.004      126.231       69.089    22501.060    15934.240     4773.240       13.012        2.160      465.456       66.121        0.020      340.320       14.256      854.368
04/13/2013  05:06:00     -612.554     -139.119      -25.792      226.028      175.528       96.806    51088.599    30809.934     9371.432       24.324        4.563      628.153      103.863        0.027      340.327       14.267      854.375
04/13/2013  05:07:00     -406.548     -161.467      -18.277      138.638      114.621       78.620    19220.634    13137.929     6181.122       11.511        1.927      437.439       58.686        0.018      340.262       14.156      854.399
04/13/2013  05:08:00     -397.056      -49.578      -22.460      174.604      129.755       87.146    30486.605    16836.479     7594.434       10.776        2.746      400.139       84.944        0.045      340.261       14.156      854.389
04/13/2013  05:09:00     -374.320     -105.023      -14.030      164.362      143.966       85.498    27014.736    20726.299     7309.890       10.319        2.753      388.775       84.850        0.048      340.255       14.147      854.385
04/13/2013  05:10:00     -391.796     -183.451      -11.691      216.920      151.861       81.915    47054.090    23061.751     6710.087       13.205        3.841      432.618       88.226        0.042      340.243       14.125      854.400
04/13/2013  05:11:00     -402.833      -24.349      -21.247      213.864      176.002       95.105    45738.004    30976.669     9044.947       12.452        4.288      403.568      103.818        0.066      340.290       14.205      854.413
04/13/2013  05:12:00     -556.329     -135.570      -46.904      204.728      179.586       85.797    41913.688    32251.143     7361.107       20.579        4.076      572.609       85.840        0.022      340.390       14.374      854.420
04/13/2013  05:13:00     -618.146      -84.123      -33.133      195.526      190.988       92.396    38230.433    36476.294     8537.064       23.675        4.162      623.844       83.251        0.018      340.364       14.331      854.438
04/13/2013  05:14:00     -537.636     -157.828      -24.484      221.138      171.713       95.555    48901.931    29485.518     9130.796       20.103        4.376      560.323       93.850        0.028      340.355       14.315      854.456
04/13/2013  05:15:00     -688.469     -140.619      -46.468      167.521      141.594       85.731    28063.142    20048.748     7349.778       27.568        2.773      702.683       91.717        0.017      340.333       14.279      854.516
04/13/2013  05:16:00     -418.778     -104.441      -19.237      212.407      122.996       75.321    45116.641    15128.112     5673.230       12.627        3.296      431.605       93.178        0.047      340.265       14.162      854.536
04/13/2013  05:17:00     -401.669     -169.777       -7.936      190.428      152.715       80.847    36262.954    23321.816     6536.185       12.816        3.306      436.076       91.682        0.044      340.270       14.171      854.539
04/13/2013  05:18:00     -400.840     -147.656      -19.165      143.837      138.529       73.411    20689.109    19190.151     5389.230       11.405        2.263      427.171       77.211        0.033      340.234       14.110      854.564
04/13/2013  05:19:00     -340.126     -124.887      -15.303      188.932      168.528       74.272    35695.204    28401.852     5516.298       10.055        3.481      362.329       81.743        0.051      340.247       14.131      854.547
04/13/2013  05:20:00     -522.383      -31.411      -24.151      200.889      146.043       73.354    40356.330    21328.518     5380.820       17.075        3.353      523.327       83.043        0.025      340.267       14.166      854.590
04/13/2013  05:21:00     -409.762     -106.129      -23.393      186.495      123.592       58.759    34780.231    15274.996     3452.624       11.660        2.675      423.283       65.744        0.024      340.253       14.143      854.595
04/13/2013  05:22:00     -479.640     -151.034      -35.252      168.911      157.194       77.565    28530.904    24710.015     6016.404       15.667        2.963      502.858       71.777        0.020      340.229       14.101      854.641
04/13/2013  05:23:00     -557.355     -134.828      -45.143      230.251      145.701       78.046    53015.689    21228.925     6091.125       20.559        4.017      573.431       75.394        0.017      340.253       14.142      854.621
04/13/2013  05:24:00     -284.060      -75.337       -7.125      229.583      131.631       98.401    52708.460    17326.795     9682.690        8.305        3.986      293.881      116.540        0.157      340.175       14.011      854.650
04/13/2013  05:25:00     -483.328     -114.258      -59.642      144.290      125.411       68.509    20819.715    15727.966     4693.447       14.572        2.062      496.649       62.725        0.016      340.205       14.061      854.654
04/13/2013  05:26:00     -315.546     -125.728      -28.859      137.544      102.057       64.031    18918.453    10415.672     4099.963        7.482        1.672      339.671       50.837        0.022      340.141       13.954      854.654
04/13/2013  05:27:00     -417.761      -62.987      -34.667      191.338      158.273       88.714    36610.105    25050.391     7870.186       12.460        3.477      422.483       89.775        0.045      340.163       13.991      854.644
04/13/2013  05:28:00     -392.299     -112.823      -33.898      174.807      158.819       78.783    30557.531    25223.451     6206.765       11.487        3.099      408.200       64.191        0.025      340.162       13.989      854.633
04/13/2013  05:29:00     -336.320     -143.720      -14.396      136.526      129.893       77.806    18639.297    16872.271     6053.699        8.776        2.078      365.742       77.257        0.045      340.150       13.967      854.631
04/13/2013  05:30:00     -412.724     -104.337      -41.900      234.831      136.951       84.507    55145.424    18755.705     7141.408       13.200        4.052      425.708      105.053        0.061      340.059       13.816      854.675
04/13/2013  05:31:00     -283.061     -152.739        6.705      201.110      136.452       80.464    40445.299    18619.029     6474.466        8.451        3.277      321.641       84.003        0.068      340.070       13.834      854.679
04/13/2013  05:32:00     -473.321      -87.558      -68.971      195.944      179.085       80.805    38393.890    32071.465     6529.367       15.671        3.850      481.351       62.335        0.017      340.151       13.972      854.704
04/13/2013  05:33:00     -421.001      -63.762      -42.867      120.677      148.980       70.082    14562.853    22195.141     4911.547       11.240        2.083      425.802       46.775        0.012      340.052       13.804      854.739
04/13/2013  05:34:00     -375.720     -108.872      -24.065      170.271      130.505       79.623    28992.304    17031.526     6339.864       10.297        2.618      391.176       89.885        0.053      339.979       13.681      854.761
04/13/2013  05:35:00     -471.800       -6.857      -44.040      170.293      119.040       76.767    28999.866    14170.544     5893.209       13.681        2.453      471.850       79.811        0.029      339.908       13.559      854.759
04/13/2013  05:36:00     -436.217      -54.112      -35.015      122.042      125.599       66.279    14894.201    15775.193     4392.876       11.474        1.753      439.560       50.293        0.013      339.923       13.586      854.731
04/13/2013  05:37:00     -282.740      -79.929      -18.937      199.030      138.914       65.871    39613.014    19297.132     4338.993        7.496        3.162      293.820       78.719        0.072      339.867       13.489      854.677
04/13/2013  05:38:00     -436.981     -104.963      -19.217      216.617      130.633       86.846    46923.051    17064.898     7542.305       13.692        3.577      449.410       83.830        0.035      339.959       13.646      854.615
04/13/2013  05:39:00     -486.160     -176.664      -29.889      178.019      133.563       79.940    31690.893    17839.201     6390.343       16.218        2.796      517.264       87.867        0.029      340.027       13.760      854.577
04/13/2013  05:40:00     -400.997     -178.047      -23.434      119.342      117.048       70.517    14242.435    13700.275     4972.620       11.298        1.646      438.747       51.191        0.014      339.986       13.693      854.549
04/13/2013  05:41:00     -411.691     -122.906      -18.505      166.500      108.775       69.039    27722.198    11832.045     4766.444       11.462        2.216      429.646       58.985        0.019      339.990       13.698      854.554
04/13/2013  05:42:00     -349.828     -104.745      -10.569      162.472      142.681       74.809    26397.024    20357.940     5596.449        9.290        2.618      365.173       84.031        0.053      339.971       13.667      854.583
04/13/2013  05:43:00     -475.981      -81.832      -34.771      138.691      142.456       76.870    19235.229    20293.776     5909.026       13.994        2.272      482.964       67.851        0.020      339.973       13.669      854.618
04/13/2013  05:44:00     -427.033     -106.085      -18.718      231.980      142.379       81.829    53814.723    20271.861     6695.952       13.736        4.039      440.013       99.743        0.051      339.972       13.669      854.645
04/13/2013  05:45:00     -397.151     -126.056      -27.530      179.520      125.071       88.112    32227.460    15642.826     7763.776       11.500        2.782      416.676       76.945        0.034      339.984       13.688      854.635
04/13/2013  05:46:00     -457.506      -31.855      -47.091      146.274      112.379       75.023    21396.037    12629.048     5628.483       12.609        1.983      458.614       62.015        0.018      339.911       13.563      854.682
04/13/2013  05:47:00     -488.332      -92.085      -27.067      140.412      136.604       78.049    19715.419    18660.635     6091.692       14.607        2.223      496.938       58.870        0.014      339.888       13.526      854.711
04/13/2013  05:48:00     -406.975      -64.613      -15.113      200.228      175.805       80.693    40091.404    30907.328     6511.376       12.376        3.876      412.072       84.319        0.042      339.886       13.525      854.727
04/13/2013  05:49:00     -445.894      -99.640      -22.526      157.638      163.613       85.185    24849.700    26769.366     7256.403       13.406        2.944      456.891       76.472        0.028      339.855       13.469      854.758
04/13/2013  05:50:00     -518.494     -176.357       -0.569      197.435      199.473       85.366    38980.636    39789.411     7287.379       19.298        4.303      547.666       87.790        0.026      339.962       13.650      854.780
04/13/2013  05:51:00     -608.637      -33.848      -51.170      259.626      211.554       95.122    67405.497    44754.976     9048.269       24.769        6.060      609.578      113.419        0.035      339.996       13.709      854.808
04/13/2013  05:52:00     -347.377      -37.424      -22.296      187.516      162.474       85.736    35162.188    26397.939     7350.611        9.573        3.446      349.387       91.525        0.069      339.946       13.626      854.839
04/13/2013  05:53:00     -316.544        1.129      -17.559      227.925      135.765       85.985    51949.843    18432.211     7393.429        8.913        3.889      316.546      100.607        0.101      339.886       13.524      854.810
04/13/2013  05:54:00     -239.738      -75.904      -22.941      143.909      120.506       62.640    20709.883    14521.594     3923.770        5.145        1.958      251.467       71.222        0.080      339.812       13.398      854.804
04/13/2013  05:55:00     -295.663      -52.836      -19.113      174.559       97.831       70.050    30470.957     9570.948     4906.955        6.775        2.247      300.347       85.860        0.082      339.722       13.247      854.788
04/13/2013  05:56:00     -313.082      -49.518      -29.814      169.844      115.689       69.249    28846.835    13384.040     4795.372        7.419        2.351      316.974       84.032        0.070      339.711       13.227      854.781
04/13/2013  05:57:00     -213.298      -62.165       -6.014      119.154       95.109       64.044    14197.559     9045.627     4101.652        3.837        1.367      222.173       54.925        0.061      339.723       13.248      854.785
04/13/2013  05:58:00     -436.767      -44.117      -42.492      167.591       95.346       68.954    28086.777     9090.945     4754.695       11.822        2.097      438.989       54.189        0.015      339.735       13.269      854.780
04/13/2013  05:59:00     -177.762      -65.585      -19.372      150.863       91.117       73.815    22759.577     8302.375     5448.613        3.639        1.826      189.475       75.212        0.158      339.683       13.181      854.773
04/13/2013  06:00:00     -261.574      -59.681       -1.637      154.601      126.112       63.549    23901.452    15904.342     4038.448        5.791        2.192      268.296       73.756        0.076      339.634       13.100      854.755
04/13/2013  06:01:00     -281.198      -81.087       -3.899      151.494      139.711       79.345    22950.438    19519.302     6295.675        6.721        2.438      292.656       91.325        0.097      339.667       13.155      854.749
04/13/2013  06:02:00     -396.540     -123.490      -22.365      164.548      161.376       90.849    27076.169    26042.310     8253.610       11.717        3.069      415.324       67.894        0.027      339.719       13.242      854.712
04/13/2013  06:03:00     -433.299     -107.304      -32.839      187.686      130.735       75.029    35225.890    17091.653     5629.304       12.913        2.897      446.388       81.066        0.033      339.809       13.393      854.697
04/13/2013  06:04:00     -458.757      -77.533      -34.892      203.815      151.181       74.356    41540.661    22855.727     5528.889       14.379        3.496      465.263       81.738        0.031      339.763       13.316      854.700
04/13/2013  06:05:00     -396.538       17.778      -34.709      151.926      106.511       73.724    23081.449    11344.559     5435.217        9.931        1.993      396.936       74.061        0.035      339.711       13.229      854.678
04/13/2013  06:06:00     -381.346     -143.349      -23.774      167.169      145.132       86.774    27945.453    21063.391     7529.710       11.153        2.827      407.399       89.173        0.048      339.719       13.241      854.655
04/13/2013  06:07:00     -313.373      -88.975      -35.851      117.594      105.565       65.352    13828.353    11144.010     4270.945        6.832        1.462      325.760       33.289        0.010      339.661       13.143      854.664
04/13/2013  06:08:00     -358.443      -58.567      -46.934      157.102      129.795       62.403    24680.937    16846.720     3894.080        8.976        2.271      363.196       60.246        0.028      339.634       13.097      854.669
04/13/2013  06:09:00     -257.011      -90.715      -34.285      146.403       86.484       60.104    21433.700     7479.517     3612.483        5.399        1.626      272.550       63.952        0.055      339.551       12.958      854.683
04/13/2013  06:10:00     -313.011      -66.219      -26.109      143.922      102.259       60.588    20713.454    10456.850     3670.876        6.894        1.742      319.939       63.536        0.039      339.520       12.905      854.695
04/13/2013  06:11:00     -240.971      -67.071      -20.297      164.276       82.689       44.238    26986.707     6837.549     1956.981        4.937        1.789      250.131       45.386        0.033      339.524       12.913      854.717
04/13/2013  06:12:00     -190.256      -32.630      -36.683       62.305       63.824       48.148     3881.852     4073.530     2318.254        2.444        0.514      193.033       19.405        0.010      339.539       12.938      854.696
04/13/2013  06:13:00     -179.380      -10.421      -11.317       76.885      102.208       61.662     5911.261    10446.378     3802.248        2.628        1.008      179.682       43.285        0.058      339.478       12.836      854.698
04/13/2013  06:14:00     -223.612      -37.145      -26.616      116.759      102.662       48.620    13632.724    10539.481     2363.859        3.931        1.327      226.676       34.646        0.023      339.441       12.773      854.650
04/13/2013  06:15:00     -405.897      -41.904      -26.562      194.262      101.707       66.350    37737.719    10344.232     4402.286       10.984        2.624      408.055       72.395        0.031      339.483       12.845      854.627
04/13/2013  06:16:00     -204.449       51.383      -41.455       89.074      124.695       51.348     7934.229    15548.918     2636.654        3.613        1.306      210.807       26.536        0.016      339.468       12.817      854.627
04/13/2013  06:17:00     -118.918        8.203       -2.795       89.150       89.794       54.177     7947.798     8062.973     2935.111        1.658        0.947      119.200       50.172        0.177      339.474       12.830      854.620
04/13/2013  06:18:00     -174.019      -22.887      -31.715      107.382       76.099       62.403    11530.992     5791.052     3894.107        2.651        1.061      175.518       64.231        0.134      339.492       12.859      854.602
04/13/2013  06:19:00     -224.859       41.576      -34.505      110.079      129.308       50.140    12117.377    16720.651     2514.041        4.241        1.568      228.670       35.569        0.024      339.460       12.806      854.580
04/13/2013  06:20:00     -229.374      -15.599       -3.453      108.498      119.539       62.731    11771.871    14289.592     3935.130        4.143        1.500      229.904       59.598        0.067      339.475       12.831      854.555
04/13/2013  06:21:00     -282.570      -25.847      -18.816      147.717      132.813       64.064    21820.305    17639.335     4104.246        6.221        2.178      283.750       69.760        0.060      339.493       12.862      854.551
04/13/2013  06:22:00     -343.479      -90.340      -14.651      145.035      112.390       69.856    21035.035    12631.509     4879.881        8.244        1.927      355.161       72.303        0.041      339.475       12.830      854.557
04/13/2013  06:23:00     -379.086     -102.478      -18.506      144.835      121.934       65.100    20977.099    14867.935     4238.042        9.731        2.004      392.693       64.634        0.027      339.520       12.905      854.550
04/13/2013  06:24:00     -198.079      -45.756      -21.865       88.656       89.365       52.598     7859.807     7986.084     2766.498        3.021        0.931      203.295       40.723        0.040      339.497       12.867      854.564
04/13/2013  06:25:00     -304.804      -80.358      -34.314      128.992       90.323       72.208    16638.972     8158.320     5213.931        6.527        1.501      315.218       77.560        0.061      339.519       12.904      854.560
04/13/2013  06:26:00     -381.534      -53.660      -26.438      149.480      169.328       73.918    22344.189    28671.827     5463.824       10.280        2.824      385.289       71.508        0.034      339.566       12.983      854.558
04/13/2013  06:27:00     -478.812     -190.293      -27.978      157.616      124.629       80.446    24842.749    15532.463     6471.636       15.654        2.342      515.240       80.590        0.024      339.616       13.070      854.535
04/13/2013  06:28:00     -390.444     -143.529      -23.997      129.490      118.732       61.754    16767.668    14097.262     3813.526       10.414        1.734      415.989       63.346        0.023      339.566       12.984      854.560
04/13/2013  06:29:00     -367.593     -138.692      -19.616      137.352      111.341       82.384    18865.454    12396.828     6787.198        9.639        1.902      392.887       79.211        0.041      339.579       13.005      854.581
04/13/2013  06:30:00     -336.360      -68.671      -27.376      199.237      134.614       69.408    39695.579    18120.920     4817.470        9.061        3.132      343.299       74.123        0.047      339.589       13.023      854.579
04/13/2013  06:31:00     -341.747     -110.517      -30.516      173.006       96.265       64.545    29930.952     9267.017     4166.068        8.664        2.168      359.173       82.009        0.052      339.568       12.987      854.593
04/13/2013  06:32:00     -312.908      -82.729      -21.630      130.329      109.121       56.148    16985.718    11907.307     3152.571        6.863        1.602      323.660       48.509        0.022      339.570       12.991      854.620
04/13/2013  06:33:00     -423.143     -111.589      -36.910      214.089      121.655       72.810    45834.032    14799.862     5301.322       12.939        3.297      437.610       73.157        0.028      339.608       13.055      854.620
04/13/2013  06:34:00     -325.670     -116.201      -16.457      175.330      130.110       90.512    30740.651    16928.596     8192.494        8.784        2.793      345.779       95.507        0.076      339.648       13.123      854.644
04/13/2013  06:35:00     -405.048     -127.407      -32.676      140.431      100.006       61.107    19720.770    10001.175     3734.076       10.740        1.673      424.613       57.870        0.019      339.636       13.100      854.684
04/13/2013  06:36:00     -373.050      -48.281      -39.940      116.090      159.075       70.835    13476.944    25304.896     5017.661        9.344        2.190      376.161       63.343        0.028      339.590       13.024      854.715
04/13/2013  06:37:00     -362.838     -103.469      -37.465      136.191      132.547       65.070    18547.905    17568.771     4234.146        9.205        2.018      377.302       62.350        0.027      339.577       13.002      854.732
04/13/2013  06:38:00     -355.341     -111.856      -19.795      131.653      101.006       54.799    17332.428    10202.154     3002.918        8.485        1.527      372.531       50.371        0.018      339.542       12.943      854.762
04/13/2013  06:39:00     -424.326       -6.785      -50.742      133.054      115.590       75.414    17703.385    13361.092     5687.205       10.971        1.838      424.380       48.333        0.013      339.603       13.045      854.797
04/13/2013  06:40:00     -490.048     -154.732      -41.739      174.950      127.289       73.370    30607.670    16202.476     5383.144       15.900        2.610      513.896       75.843        0.022      339.586       13.017      854.816
04/13/2013  06:41:00     -231.168      -96.364      -27.548      109.899       81.771       68.301    12077.825     6686.416     4664.962        4.345        1.171      250.449       43.675        0.030      339.513       12.895      854.835
04/13/2013  06:42:00     -300.136       28.927      -34.843      107.551      140.177       64.753    11567.133    19649.716     4192.935        6.377        1.770      301.527       39.818        0.017      339.440       12.770      854.874
04/13/2013  06:43:00     -295.954        0.182      -46.210      106.362      102.572       66.867    11312.792    10521.098     4471.202        5.801        1.315      295.954       48.361        0.027      339.431       12.756      854.882
04/13/2013  06:44:00     -268.566      -54.933      -18.351      106.760      103.915       67.484    11397.659    10798.418     4554.073        5.111        1.338      274.126       57.873        0.045      339.400       12.704      854.862
04/13/2013  06:45:00     -219.934      -50.696      -34.693       97.390      102.620       50.255     9484.731    10530.890     2525.590        3.734        1.127      225.702       30.328        0.018      339.358       12.632      854.858
04/13/2013  06:46:00     -311.670     -122.305      -14.399      118.654       90.881       59.449    14078.778     8259.347     3534.164        6.908        1.294      334.808       57.044        0.029      339.261       12.470      854.840
04/13/2013  06:47:00     -377.903      -58.211      -37.475      126.127      112.894       61.011    15908.109    12745.060     3722.387        8.998        1.619      382.360       44.926        0.014      339.232       12.422      854.857
04/13/2013  06:48:00     -310.662     -101.657      -20.189      132.124       81.666       58.046    17456.761     6669.356     3369.285        6.737        1.375      326.872       57.049        0.030      339.175       12.326      854.874
04/13/2013  06:49:00     -210.996      -81.862      -14.874      103.416       77.815       45.744    10694.792     6055.200     2092.494        3.514        0.942      226.320       46.817        0.043      339.164       12.307      854.890
04/13/2013  06:50:00     -253.917      -45.199      -37.877       89.820       62.792       52.303     8067.561     3942.855     2735.650        4.135        0.737      257.909       36.557        0.020      339.121       12.233      854.903
04/13/2013  06:51:00     -247.247      -56.744      -29.811      156.646       92.186       65.196    24537.955     8498.241     4250.570        5.126        1.864      253.675       75.712        0.089      339.049       12.113      854.922
04/13/2013  06:52:00     -231.235      -74.811      -15.127      116.071       97.117       56.680    13472.551     9431.648     3212.588        4.270        1.306      243.036       53.586        0.049      339.054       12.121      854.905
04/13/2013  06:53:00     -209.630      -35.328      -27.171       74.622       64.828       41.011     5568.429     4202.670     1681.909        2.869        0.573      212.586       27.402        0.017      339.042       12.102      854.890
04/13/2013  06:54:00     -181.114      -29.367      -26.475      100.386       87.127       49.817    10077.349     7591.102     2481.693        2.725        1.008      183.479       45.274        0.061      339.055       12.126      854.854
04/13/2013  06:55:00     -198.914      -59.651      -31.644      104.824       74.573       39.376    10988.142     5561.195     1550.447        3.111        0.905      207.666       26.004        0.016      339.025       12.073      854.866
04/13/2013  06:56:00     -307.525      -74.571      -30.297      110.008       74.033       43.845    12101.738     5480.869     1922.385        6.027        0.975      316.437       31.139        0.010      339.052       12.120      854.853
04/13/2013  06:57:00     -374.981       41.984      -52.612      173.103      129.914       54.175    29964.665    16877.554     2934.940        9.745        2.489      377.324       42.353        0.013      339.208       12.381      854.861
04/13/2013  06:58:00     -173.386       -9.144      -19.187      133.505      127.345       52.947    17823.531    16216.804     2803.354        3.367        1.842      173.627       34.066        0.038      339.179       12.334      854.898
04/13/2013  06:59:00     -270.379      -66.019      -24.626      177.819       89.801       57.648    31619.457     8064.155     3323.282        6.053        2.150      278.323       50.165        0.032      339.141       12.268      854.925
04/13/2013  07:00:00     -196.114       44.010      -23.562       83.176       74.256       44.538     6918.288     5513.888     1983.656        2.768        0.721      200.991       36.523        0.033      339.169       12.316      854.896
04/13/2013  07:01:00     -189.836      -77.997      -23.533      104.442       80.512       56.318    10908.090     6482.141     3171.695        3.162        1.028      205.234       48.187        0.055      339.106       12.211      854.884
04/13/2013  07:02:00     -236.769      -82.578      -18.243       84.152       80.464       48.381     7081.491     6474.378     2340.679        3.955        0.795      250.756       24.043        0.009      339.133       12.255      854.886
04/13/2013  07:03:00     -200.500       49.499      -30.776       87.213      133.247       61.155     7606.057    17754.691     3739.965        3.634        1.455      206.519       53.632        0.067      339.326       12.578      854.856
04/13/2013  07:04:00     -259.877      -76.663       -4.502      121.766       77.185       50.364    14826.849     5957.531     2536.484        4.837        1.166      270.949       51.383        0.036      339.203       12.374      854.864
04/13/2013  07:05:00     -265.414      -31.148      -16.140      104.772      163.337       70.519    10977.239    26679.084     4972.990        5.715        2.131      267.236       60.717        0.052      339.421       12.739      854.838
04/13/2013  07:06:00     -426.039      -87.125      -18.691      168.528      163.922       84.333    28401.727    26870.448     7112.059       12.591        3.119      434.857       75.381        0.030      339.577       13.001      854.800
04/13/2013  07:07:00     -427.815      -53.936      -24.245      194.181      150.563       83.795    37706.329    22669.294     7021.549       12.695        3.370      431.202       83.983        0.038      339.778       13.342      854.765
04/13/2013  07:08:00     -331.979      -75.961      -15.460      194.734      111.881       73.233    37921.420    12517.282     5363.001        8.600        2.790      340.558       87.087        0.065      339.769       13.326      854.745
04/13/2013  07:09:00     -300.386     -121.661      -12.446      167.550      121.135       74.804    28073.055    14673.766     5595.707        7.676        2.417      324.088       69.125        0.045      339.864       13.485      854.711
04/13/2013  07:10:00     -496.518      -68.835      -35.493      213.919      135.432       72.278    45761.266    18341.825     5224.094       16.092        3.466      501.267       82.966        0.027      339.891       13.531      854.715
04/13/2013  07:11:00     -549.842      -78.896      -22.396      219.457      118.069       76.255    48161.424    13940.368     5814.885       18.847        3.396      555.473       88.183        0.025      339.910       13.564      854.730
04/13/2013  07:12:00     -486.803      -60.982      -15.893      174.813      155.605       76.933    30559.752    24213.017     5918.665       15.081        3.035      490.608       64.379        0.017      339.919       13.578      854.757
04/13/2013  07:13:00     -527.844      -87.804      -26.361      182.205      181.668       72.131    33198.753    33003.182     5202.869       17.920        3.570      535.097       73.384        0.019      339.914       13.570      854.778
04/13/2013  07:14:00     -246.198      -86.645       15.010      201.893      141.446       85.275    40760.860    20007.099     7271.806        6.818        3.402      261.000       93.656        0.129      339.883       13.519      854.790
04/13/2013  07:15:00     -267.991      -55.104      -14.693      163.236      142.443       75.750    26645.994    20290.127     5738.099        6.386        2.634      273.598       87.052        0.101      339.887       13.525      854.814
04/13/2013  07:16:00     -475.695      -74.719      -25.017      203.267      161.012       85.978    41317.542    25924.917     7392.162       15.355        3.732      481.527      100.091        0.043      339.964       13.655      854.775
04/13/2013  07:17:00     -401.378     -115.274      -15.011      202.001      145.247       79.129    40804.222    21096.692     6261.478       12.138        3.408      417.603       78.361        0.035      339.985       13.690      854.771
04/13/2013  07:18:00     -375.015      -80.899       -4.860      152.097      157.203       77.325    23133.455    24712.780     5979.193       10.051        2.691      383.641       76.453        0.040      339.982       13.685      854.779
04/13/2013  07:19:00     -386.876      -54.557      -19.756      167.465      162.499       69.264    28044.496    26405.823     4797.567       10.613        2.962      390.704       83.646        0.046      340.001       13.717      854.787
04/13/2013  07:20:00     -369.890     -100.181      -12.737      161.978      130.693       76.194    26236.870    17080.715     5805.543        9.806        2.456      383.216       73.062        0.036      340.011       13.733      854.798
04/13/2013  07:21:00     -349.724      -85.912      -18.858      171.714      135.453       73.366    29485.756    18347.469     5382.536        9.162        2.661      360.122       77.294        0.046      339.995       13.707      854.819
04/13/2013  07:22:00     -276.418     -109.647      -14.962      142.560      131.610       63.137    20323.493    17321.311     3986.274        6.514        2.082      297.371       65.250        0.048      340.013       13.736      854.810
04/13/2013  07:23:00     -345.870     -103.653       -4.234      146.792      128.407       75.489    21547.821    16488.241     5698.574        8.705        2.187      361.068       73.477        0.041      340.021       13.750      854.816
04/13/2013  07:24:00     -318.456      -95.511      -14.513      206.370      128.303       90.239    42588.692    16461.569     8143.068        8.896        3.360      332.471      101.653        0.093      340.043       13.786      854.791
04/13/2013  07:25:00     -425.460     -105.141      -12.310      159.073      163.868       80.035    25304.279    26852.855     6405.609       12.538        2.928      438.259       83.473        0.036      340.037       13.778      854.805
04/13/2013  07:26:00     -396.536      -90.666      -30.556      223.119      126.187       76.835    49782.225    15923.257     5903.687       11.899        3.580      406.769       87.582        0.046      340.033       13.771      854.800
04/13/2013  07:27:00     -495.614      -81.634      -20.232      206.261      158.649       92.448    42543.738    25169.548     8546.718       16.447        3.813      502.292       95.857        0.036      340.085       13.859      854.781
04/13/2013  07:28:00     -383.068      -24.715       10.267      204.949      144.795       96.023    42004.294    20965.626     9220.488       10.981        3.610      383.864      106.735        0.077      340.111       13.902      854.777
04/13/2013  07:29:00     -297.120      -45.638       -5.238      163.755      129.751       74.342    26815.626    16835.232     5526.749        6.978        2.459      300.605       64.501        0.046      340.142       13.955      854.794
04/13/2013  07:30:00     -386.060       -4.909       -5.328      178.544      173.164       81.697    31878.020    29985.598     6674.434       10.880        3.427      386.091       80.149        0.043      340.150       13.969      854.805
04/13/2013  07:31:00     -429.555      -82.534      -22.563      238.293      145.121       89.208    56783.431    21060.082     7958.049       13.881        4.290      437.412      114.290        0.068      340.167       13.998      854.778
04/13/2013  07:32:00     -500.775     -139.417      -22.655      156.636      175.168       79.897    24534.779    30683.676     6383.532       16.615        3.080      519.820       74.979        0.021      340.165       13.993      854.757
04/13/2013  07:33:00     -285.514      -58.651       11.931      155.626      153.849       72.979    24219.596    23669.394     5325.912        6.915        2.661      291.476       75.869        0.068      340.151       13.971      854.715
04/13/2013  07:34:00     -428.132      -81.665      -13.060      211.960      186.428       81.589    44926.881    34755.528     6656.780       13.822        4.317      435.851      100.273        0.053      340.159       13.984      854.677
04/13/2013  07:35:00     -382.655       -6.751       -5.628      242.378      135.135       86.385    58746.976    18261.420     7462.435       11.547        4.224      382.714      111.108        0.084      340.180       14.019      854.680
04/13/2013  07:36:00     -555.731      -98.874      -13.870      258.440      221.892       91.800    66791.375    49236.151     8427.231       22.161        6.223      564.459      103.947        0.034      340.211       14.072      854.678
04/13/2013  07:37:00     -388.653      -95.152       -4.482      232.978      167.439       80.421    54278.966    28035.981     6467.480       12.444        4.439      400.131       88.690        0.049      340.236       14.115      854.682
04/13/2013  07:38:00     -334.030      -92.071      -10.065      151.881      135.161       80.208    23067.968    18268.587     6433.367        8.395        2.388      346.487       84.426        0.059      340.266       14.164      854.643
04/13/2013  07:39:00     -292.220      -63.944       -8.029      165.904      138.796       68.660    27523.997    19264.418     4714.250        7.052        2.575      299.135       77.620        0.067      340.289       14.203      854.597
04/13/2013  07:40:00     -330.406      -85.963      -16.342      146.600      122.000       73.560    21491.549    14883.936     5411.119        7.930        2.089      341.405       76.390        0.050      340.317       14.252      854.583
04/13/2013  07:41:00     -315.369      -32.803       -6.715      169.275      138.900       96.438    28654.084    19293.202     9300.304        7.890        2.862      317.070       66.502        0.044      340.340       14.291      854.577
04/13/2013  07:42:00     -254.859      -46.689        7.995      210.103      182.360       97.711    44143.281    33255.247     9547.418        7.706        4.347      259.100      102.740        0.157      340.387       14.370      854.594
04/13/2013  07:43:00     -279.213     -142.252      -25.206      138.721      159.325       72.972    19243.468    25384.453     5324.870        7.438        2.498      313.362       59.369        0.036      340.398       14.389      854.619
04/13/2013  07:44:00     -340.380     -147.081       -9.554      179.663      143.776       80.661    32278.895    20671.625     6506.128        9.851        2.973      370.799       88.454        0.057      340.406       14.400      854.600
04/13/2013  07:45:00     -309.249      -29.890       -0.708      182.889      184.915       90.159    33448.274    34193.635     8128.686        8.614        3.789      310.690       99.020        0.102      340.415       14.418      854.586
04/13/2013  07:46:00     -475.544      -88.164      -26.410      199.672      161.591      102.617    39868.986    26111.511    10530.191       15.555        3.826      483.648      109.071        0.051      340.471       14.511      854.562
04/13/2013  07:47:00     -415.550      -49.033       -2.009      194.602      150.086       93.087    37869.938    22525.755     8665.192       12.206        3.453      418.433      101.938        0.059      340.464       14.497      854.574
04/13/2013  07:48:00     -373.377      -94.642      -15.867      242.475      152.835       92.290    58794.211    23358.603     8517.534       11.963        4.534      385.185      121.494        0.099      340.480       14.526      854.559
04/13/2013  07:49:00     -460.868     -107.340      -26.830      254.063      171.726       92.848    64548.029    29489.797     8620.742       16.363        5.133      473.203      103.393        0.048      340.470       14.509      854.552
04/13/2013  07:50:00     -239.430      -90.632       -2.175      225.497      116.435       80.678    50848.731    13556.998     6508.983        6.822        3.546      256.010      103.440        0.163      340.509       14.576      854.569
04/13/2013  07:51:00     -305.040      -50.779       -2.248      214.581      138.139       78.695    46045.079    19082.254     6192.905        8.346        3.566      309.237       96.365        0.097      340.484       14.534      854.589
04/13/2013  07:52:00     -300.602     -103.336       -2.641      212.157      145.062       97.767    45010.484    21042.964     9558.417        8.832        3.781      317.867       90.885        0.082      340.482       14.529      854.576
04/13/2013  07:53:00     -467.701      -75.161      -13.688      242.317      172.865       82.863    58717.666    29882.173     6866.211       16.001        4.773      473.702       97.931        0.043      340.494       14.550      854.587
04/13/2013  07:54:00     -562.005      -35.621      -31.179      171.341      166.106       90.350    29357.698    27591.099     8163.201       19.159        3.256      563.133       85.415        0.023      340.513       14.583      854.593
04/13/2013  07:55:00     -587.910      -58.473      -39.513      302.969      187.541       83.280    91790.375    35171.717     6935.532       24.224        6.695      590.811      103.518        0.031      340.501       14.562      854.594
04/13/2013  07:56:00     -500.856      -82.843      -14.078      230.166      185.057       81.522    52976.447    34246.079     6645.802       17.588        4.693      507.661       97.572        0.037      340.519       14.593      854.602
04/13/2013  07:57:00     -583.855     -139.554      -15.739      224.572      207.915       87.640    50432.457    43228.578     7680.747       23.096        5.067      600.302       74.476        0.015      340.514       14.585      854.580
04/13/2013  07:58:00     -797.066     -173.192      -49.979      244.245      219.415      116.114    59655.528    48142.757    13482.573       39.452        6.064      815.665       98.463        0.015      340.512       14.581      854.553
04/13/2013  07:59:00     -511.595     -154.515      -20.555      225.332      123.128       82.325    50774.604    15160.509     6777.455       17.936        3.636      534.420       94.205        0.031      340.575       14.687      854.581
04/13/2013  08:00:00     -576.834     -140.007      -31.848      275.896      209.602      104.983    76118.608    43933.059    11021.419       24.219        6.554      593.582      118.621        0.040      340.607       14.739      854.614
04/13/2013  08:01:00     -446.503     -149.469      -27.512      233.716      175.250       95.090    54623.347    30712.408     9042.152       15.840        4.719      470.856       98.921        0.044      340.625       14.771      854.642
04/13/2013  08:02:00     -414.038      -49.388        1.102      200.637      206.935      101.080    40255.123    42822.201    10217.123       13.357        4.665      416.973       97.764        0.055      340.632       14.782      854.670
04/13/2013  08:03:00     -328.100      -64.550       -9.811      150.673      152.748       81.532    22702.288    23332.009     6647.534        8.229        2.634      334.390       69.574        0.043      340.628       14.778      854.667
04/13/2013  08:04:00     -611.573      -91.443      -38.488      219.507      192.835      101.018    48183.249    37185.506    10204.623       23.970        4.779      618.372      107.741        0.030      340.590       14.713      854.663
04/13/2013  08:05:00     -497.302     -152.828      -18.320      186.327      183.836       81.487    34717.609    33795.493     6640.110       17.306        3.758      520.255       83.762        0.026      340.621       14.762      854.678
04/13/2013  08:06:00     -629.339     -133.455      -32.252      283.170      185.277       96.274    80185.325    34327.638     9268.687       26.933        6.189      643.333      110.310        0.029      340.579       14.693      854.728
04/13/2013  08:07:00     -511.888     -166.102      -20.459      223.118      171.220      100.883    49781.597    29316.390    10177.452       18.964        4.464      538.163      100.522        0.035      340.581       14.697      854.737
04/13/2013  08:08:00     -430.152      -43.648       -7.244      213.760      176.987       85.458    45693.283    31324.288     7303.002       13.564        4.216      432.361       93.853        0.047      340.611       14.747      854.762
04/13/2013  08:09:00     -604.566     -210.586       -0.233      253.121      180.058       94.838    64070.238    32420.944     8994.316       25.765        5.274      640.193      108.258        0.029      340.586       14.705      854.758
04/13/2013  08:10:00     -428.620      -50.415      -17.841      217.524      207.294      114.343    47316.530    42970.830    13074.264       14.495        5.168      431.575       97.215        0.051      340.609       14.743      854.761
04/13/2013  08:11:00     -360.626     -144.137        1.534      195.400      145.312       83.569    38181.116    21115.711     6983.821       10.854        3.314      388.364      101.720        0.069      340.645       14.804      854.751
04/13/2013  08:12:00     -398.672      -94.225       13.417      274.223      196.673      100.012    75198.306    38680.254    10002.489       14.592        6.194      409.656      122.840        0.090      340.631       14.781      854.723
04/13/2013  08:13:00     -554.137     -155.824      -13.063      212.862      169.246       81.907    45310.263    28644.124     6708.698       20.608        4.033      575.629       86.336        0.022      340.632       14.783      854.722
04/13/2013  08:14:00     -556.536      -93.094      -30.344      180.895      156.803       88.070    32723.084    24587.323     7756.247       19.218        3.253      564.268       97.789        0.030      340.646       14.806      854.749
04/13/2013  08:15:00     -450.690     -198.470      -15.910      201.871      182.683      104.009    40752.010    33373.125    10817.811       16.384        4.247      492.454      109.769        0.050      340.689       14.879      854.744
04/13/2013  08:16:00     -595.591     -195.026      -19.908      209.152      174.039       83.025    43744.493    30289.681     6893.089       23.703        4.046      626.708       89.866        0.021      340.660       14.829      854.720
04/13/2013  08:17:00     -280.938      -59.283      -15.410      149.374      144.869       72.641    22312.654    20986.969     5276.643        6.562        2.429      287.125       71.876        0.063      340.741       14.969      854.738
04/13/2013  08:18:00     -543.138      -39.189      -18.555      247.735      149.985       94.216    61372.524    22495.500     8876.603       19.480        4.637      544.550       99.396        0.033      340.754       14.990      854.719
04/13/2013  08:19:00     -202.085     -134.335       10.497      166.716      139.792       84.777    27794.384    19541.867     7187.071        5.675        2.726      242.661       78.197        0.104      340.816       15.095      854.727
04/13/2013  08:20:00     -287.163     -112.161       -5.396      179.571      161.849       80.858    32245.851    26195.191     6537.944        8.001        3.249      308.290       75.085        0.059      340.814       15.091      854.699
04/13/2013  08:21:00     -299.004      -91.398       -6.424      198.603      156.829       79.931    39443.126    24595.225     6389.032        8.410        3.521      312.661       92.728        0.088      340.883       15.208      854.715
04/13/2013  08:22:00     -345.505     -104.347      -14.397      192.889      138.209       68.574    37206.169    19101.721     4702.365        9.573        3.051      360.919       79.899        0.049      340.907       15.248      854.696
04/13/2013  08:23:00     -266.193      -94.781        6.535      184.303      140.578       81.797    33967.733    19762.126     6690.750        7.014        3.021      282.563       95.176        0.113      340.939       15.304      854.697
04/13/2013  08:24:00     -444.104      -96.900      -11.483      214.987      158.196       91.478    46219.509    25026.019     8368.270       14.317        3.981      454.552       93.547        0.042      340.907       15.248      854.676
04/13/2013  08:25:00     -277.654     -108.201       -9.907      197.525      187.984       87.564    39016.129    35338.107     7667.459        8.545        4.101      297.992       93.095        0.098      340.969       15.353      854.747
04/13/2013  08:26:00     -411.907     -137.563        9.667      243.677      173.801      111.307    59378.305    30206.696    12389.302       14.531        5.099      434.271      128.619        0.088      340.942       15.307      854.785
04/13/2013  08:27:00     -338.056     -217.003       15.392      243.474      193.970      105.804    59279.613    37624.169    11194.503       13.484        5.405      401.711      122.904        0.094      340.962       15.341      854.764
04/13/2013  08:28:00     -430.352      -25.925      -17.612      212.930      202.603       98.390    45339.365    41047.968     9680.683       14.111        4.803      431.132      108.136        0.063      340.947       15.316      854.801
04/13/2013  08:29:00     -259.638      -49.943      -11.615      137.949      182.162       73.353    19029.981    33183.136     5380.623        6.381        2.880      264.398       57.297        0.047      340.985       15.380      854.814
04/13/2013  08:30:00     -215.460      -61.142       -0.345      200.653      132.726       89.761    40261.574    17616.087     8057.084        5.804        3.297      223.967      102.353        0.209      341.048       15.488      854.828
04/13/2013  08:31:00     -223.252      -48.631       -5.879      194.616      142.289       93.655    37875.488    20246.044     8771.283        5.956        3.345      228.488       86.592        0.144      341.075       15.533      854.850
04/13/2013  08:32:00     -275.624      -94.179        2.905      214.117      123.387       88.137    45846.273    15224.421     7768.184        7.683        3.442      291.270       95.708        0.108      341.012       15.427      854.866
04/13/2013  08:33:00     -494.801      -37.776      -38.279      286.642      161.812      100.771    82163.417    26182.995    10154.889       18.309        5.925      496.241      106.148        0.046      340.946       15.315      854.869
04/13/2013  08:34:00     -384.818     -218.189       -1.288      258.500      213.313      126.596    66822.438    45502.608    16026.580       16.200        6.418      442.370      121.186        0.075      340.919       15.269      854.885
04/13/2013  08:35:00     -366.585      -97.337      -14.024      219.876      153.091       98.706    48345.429    23436.996     9742.897       11.278        4.076      379.287       97.910        0.067      340.952       15.325      854.894
04/13/2013  08:36:00     -262.821     -151.917       -7.883      151.740      159.419       78.553    23025.007    25414.389     6170.625        7.340        2.731      303.568       77.910        0.066      341.014       15.429      854.914
04/13/2013  08:37:00     -451.376     -101.884      -23.171      243.776      171.660      102.528    59426.584    29467.315    10511.903       15.701        4.970      462.731      116.976        0.064      340.965       15.347      854.921
04/13/2013  08:38:00     -425.733     -156.817        0.992      176.016      203.744       96.104    30981.795    41511.602     9236.027       14.377        4.086      453.697       83.687        0.034      340.962       15.342      854.906
04/13/2013  08:39:00     -474.871     -102.174      -40.501      195.236      181.132       88.747    38116.906    32808.931     7876.089       15.818        3.940      485.739       97.492        0.040      340.971       15.357      854.924
04/13/2013  08:40:00     -382.954     -114.361      -13.917      155.981      147.410       71.358    24329.922    21729.766     5091.988       10.553        2.558      399.666       70.479        0.031      341.031       15.458      854.951
04/13/2013  08:41:00     -365.861      -70.063       -6.278      192.376      132.876       87.307    37008.591    17655.931     7622.466       10.053        3.114      372.509       90.676        0.059      341.055       15.499      854.937
04/13/2013  08:42:00     -476.383      -32.800      -18.351      203.011      131.364       82.256    41213.447    17256.543     6766.006       14.678        3.262      477.510      104.165        0.048      341.065       15.518      854.914
04/13/2013  08:43:00     -386.049     -101.759        4.740      225.453      152.735      100.693    50829.206    23328.129    10139.172       12.184        4.215      399.235      113.140        0.080      341.089       15.558      854.898
04/13/2013  08:44:00     -290.764      -72.074        5.117      174.719      126.251       88.275    30526.599    15939.422     7792.562        7.200        2.713      299.563       95.737        0.102      341.128       15.623      854.891
04/13/2013  08:45:00     -370.147     -178.947       -0.295      232.168      168.041       97.937    53902.193    28237.716     9591.658       13.037        4.587      411.133      104.388        0.064      341.127       15.619      854.873
04/13/2013  08:46:00     -638.281     -196.880      -32.935      255.064      169.387       90.399    65057.468    28692.113     8171.892       27.457        5.096      667.955       96.554        0.021      341.017       15.436      854.842
04/13/2013  08:47:00     -588.884     -209.117      -20.379      263.068      201.060       92.582    69204.552    40424.947     8571.493       25.455        5.910      624.911      109.099        0.030      341.047       15.485      854.812
04/13/2013  08:48:00     -368.882     -274.899       -2.044      203.130      225.133      110.680    41261.800    50684.783    12250.111       15.790        5.210      460.047      113.463        0.061      341.091       15.559      854.818
04/13/2013  08:49:00     -539.956     -245.806      -15.323      296.930      215.325      108.620    88167.274    46365.069    11798.205       24.925        7.317      593.274      126.934        0.046      341.137       15.638      854.807
04/13/2013  08:50:00     -454.765     -289.364       -5.164      276.724      217.489      114.287    76576.063    47301.561    13061.473       21.373        6.847      539.020      130.120        0.058      341.096       15.567      854.810
04/13/2013  08:51:00     -623.511     -152.133      -39.620      257.817      166.141       97.296    66469.591    27602.876     9466.449       25.849        5.177      641.802       91.130        0.020      341.090       15.556      854.843
04/13/2013  08:52:00     -487.837     -215.415      -20.177      247.286      184.370       95.664    61150.172    33992.290     9151.651       19.453        5.215      533.281      106.960        0.040      341.078       15.537      854.837
04/13/2013  08:53:00     -450.221     -302.012       -2.756      244.365      193.239      101.994    59714.261    37341.243    10402.784       20.067        5.373      542.135      119.593        0.049      341.059       15.505      854.848
04/13/2013  08:54:00     -586.441     -205.132      -21.046      278.023      256.335      114.697    77296.906    65707.811    13155.471       27.127        7.808      621.283      141.875        0.052      341.050       15.492      854.849
04/13/2013  08:55:00     -415.775     -176.812        7.629      252.189      178.017      107.991    63599.053    31690.144    11662.132       15.555        5.348      451.809      111.563        0.061      341.103       15.580      854.833
04/13/2013  08:56:00     -470.336     -312.529      -30.340      243.341      156.835      108.001    59214.954    24597.126    11664.174       20.763        4.774      564.704      107.675        0.036      341.163       15.682      854.846
04/13/2013  08:57:00     -328.642     -172.937       -8.900      203.789      121.486       80.878    41529.792    14758.745     6541.310       10.040        3.141      371.366       91.802        0.061      341.202       15.749      854.827
04/13/2013  08:58:00     -351.584     -205.949        2.005      220.762      156.790       88.890    48735.929    24583.171     7901.450       12.361        4.061      407.463       94.621        0.054      341.180       15.709      854.767
04/13/2013  08:59:00     -235.696     -167.406       -5.696      181.200      112.851       72.359    32833.296    12735.304     5235.885        6.720        2.540      289.098       66.799        0.053      341.236       15.806      854.752
04/13/2013  09:00:00     -251.297     -232.651        6.008      239.482      234.045       97.463    57351.717    54777.112     9498.987       11.945        6.081      342.457       90.935        0.071      341.258       15.843      854.733
04/13/2013  09:01:00     -286.555     -290.293       -2.680      207.919      132.197       91.604    43230.277    17476.020     8391.261       11.773        3.455      407.902      103.020        0.064      341.291       15.900      854.695
04/13/2013  09:02:00     -213.037      -84.149       20.167      181.151      167.393       94.371    32815.601    28020.480     8905.844        6.130        3.487      229.054       95.525        0.174      341.435       16.141      854.728
04/13/2013  09:03:00     -463.526     -223.828      -27.606      213.519      170.768      106.435    45590.487    29161.572    11328.390       17.588        4.304      514.738      119.849        0.054      341.153       15.664      854.698
04/13/2013  09:04:00     -458.189     -195.252      -28.713      209.340      139.761       82.229    43823.364    19533.004     6761.633       15.949        3.506      498.056       88.211        0.031      341.196       15.738      854.715
04/13/2013  09:05:00     -234.304     -104.503       -1.889      161.991      128.329       68.276    26241.071    16468.460     4661.603        5.659        2.369      256.552       84.261        0.108      341.421       16.119      854.726
04/13/2013  09:06:00     -222.847     -111.420       11.350      187.331      125.315       78.937    35092.843    15703.742     6231.050        5.961        2.851      249.148       71.993        0.083      341.401       16.085      854.750
04/13/2013  09:07:00     -507.395     -332.060       -0.163      274.180      214.158      120.894    75174.943    45863.779    14615.415       25.166        6.783      606.394      142.825        0.055      341.195       15.735      854.756
04/13/2013  09:08:00     -482.558     -388.453      -28.856      250.171      239.437      118.600    62585.522    57330.285    14065.914       25.926        6.699      619.482      119.773        0.037      341.195       15.736      854.774
04/13/2013  09:09:00     -561.482     -337.972      -19.494      255.930      210.244       99.430    65499.953    44202.384     9886.332       27.471        5.979      655.353      115.979        0.031      341.078       15.538      854.816
04/13/2013  09:10:00     -310.334      -75.427       -9.472      170.807      150.161       81.917    29174.992    22548.279     6710.368        8.025        2.922      319.368       66.976        0.044      341.278       15.877      854.824
04/13/2013  09:11:00     -502.629     -174.770      -23.866      239.133      175.480       94.369    57184.701    30793.397     8905.463       19.030        4.844      532.147       92.799        0.030      341.178       15.707      854.810
04/13/2013  09:12:00     -529.974     -247.575      -31.356      260.256      247.897       96.112    67733.274    61452.774     9237.458       24.076        6.921      584.949      106.153        0.033      341.070       15.524      854.817
04/13/2013  09:13:00     -420.000     -264.769       15.764      301.020      246.636      126.213    90613.238    60829.239    15929.726       20.703        8.369      496.490      156.184        0.099      341.201       15.747      854.785
04/13/2013  09:14:00     -509.933     -335.378      -11.274      236.865      198.427      114.584    56105.225    39373.387    13129.433       24.060        5.430      610.336      131.330        0.046      341.241       15.814      854.772
04/13/2013  09:15:00     -362.051     -166.779       -9.971      186.244      175.223       79.134    34686.706    30703.248     6262.135       11.531        3.583      398.618       88.525        0.049      341.275       15.872      854.786
04/13/2013  09:16:00     -496.954     -385.126      -18.808      264.115      231.787      114.081    69756.813    53725.095    13014.527       26.604        6.825      628.717      125.684        0.040      341.170       15.694      854.753
04/13/2013  09:17:00     -447.356     -324.842       -9.841      264.169      215.138      110.014    69785.082    46284.325    12103.177       21.694        6.409      552.857      129.192        0.055      341.280       15.881      854.743
04/13/2013  09:18:00     -301.430     -216.649       26.908      236.810      225.349      103.736    56079.205    50782.031    10761.240       12.805        5.881      371.210      102.652        0.076      341.282       15.884      854.780
04/13/2013  09:19:00     -269.503     -196.572        1.059      192.545      176.913      107.210    37073.706    31298.196    11493.936        9.556        3.993      333.575      112.720        0.114      341.340       15.981      854.782
04/13/2013  09:20:00     -397.876     -200.959        0.076      284.486      166.364       91.201    80932.347    27677.145     8317.553       15.779        5.846      445.747      112.839        0.064      341.300       15.913      854.791
04/13/2013  09:21:00     -465.611     -227.334       -0.777      225.367      228.086       97.824    50790.340    52023.126     9569.619       19.041        5.619      518.145       96.487        0.035      341.120       15.609      854.778
04/13/2013  09:22:00     -429.427     -269.600      -21.414      191.784      155.779       96.024    36781.180    24267.115     9220.573       16.390        3.513      507.042       96.282        0.036      341.154       15.666      854.706
04/13/2013  09:23:00     -394.040     -218.341      -26.257      188.983      159.227       90.706    35714.609    25353.160     8227.594       13.645        3.465      450.489       73.253        0.026      341.265       15.855      854.675
04/13/2013  09:24:00     -406.312     -135.242       -9.442      196.897      143.728       88.811    38768.485    20657.634     7887.324       12.538        3.366      428.229      101.077        0.056      341.270       15.865      854.618
04/13/2013  09:25:00     -334.110     -153.773        1.966      189.878      172.297       77.583    36053.752    29686.317     6019.077       10.351        3.588      367.799       89.162        0.059      341.397       16.078      854.648
04/13/2013  09:26:00     -301.902     -141.324       -5.110      225.202      189.487       97.381    50715.789    35905.438     9483.118       10.361        4.805      333.343      100.557        0.091      341.508       16.265      854.657
04/13/2013  09:27:00     -467.065     -148.657      -28.019      267.743      173.062      100.380    71686.243    29950.469    10076.061       17.635        5.586      490.152      129.887        0.070      341.333       15.970      854.635
04/13/2013  09:28:00     -362.311     -296.709       -3.041      196.262      153.358       99.824    38518.829    23518.705     9964.769       14.565        3.600      468.300      100.167        0.046      341.407       16.095      854.609
04/13/2013  09:29:00     -395.289      -98.167      -15.714      343.304      230.544      125.336   117857.393    53150.624    15709.122       17.640        9.336      407.296      158.132        0.151      341.560       16.355      854.640
04/13/2013  09:30:00     -489.690     -260.910      -37.413      215.470      186.780      101.358    46427.490    34886.691    10273.380       20.041        4.579      554.861       94.025        0.029      341.377       16.043      854.650
04/13/2013  09:31:00     -398.108     -231.275       -9.462      166.174      143.536       78.685    27613.758    20602.667     6191.262       13.323        2.720      460.411       79.591        0.030      341.539       16.319      854.667
04/13/2013  09:32:00     -306.885     -232.394        2.424      235.713      186.740       97.079    55560.472    34871.751     9424.370       12.401        4.993      384.949      101.528        0.070      341.423       16.122      854.646
04/13/2013  09:33:00     -474.540     -257.628       16.318      260.121      151.774      110.120    67663.138    23035.481    12126.460       19.731        5.141      539.963      128.526        0.057      341.211       15.764      854.591
04/13/2013  09:34:00     -418.518     -314.237      -12.061      203.383      182.581      104.247    41364.577    33335.890    10867.458       17.979        4.278      523.356      118.079        0.051      341.290       15.897      854.513
04/13/2013  09:35:00     -589.621     -328.817      -39.672      225.537      205.319      107.753    50866.991    42155.738    11610.667       28.097        5.232      675.110      124.079        0.034      341.263       15.850      854.509
04/13/2013  09:36:00     -460.969     -383.893      -25.909      230.788      162.966       83.875    53263.203    26558.051     7035.034       22.368        4.343      599.889       71.735        0.014      341.352       16.001      854.490
04/13/2013  09:37:00     -587.167     -228.170      -26.339      207.939      172.319       96.407    43238.716    29693.903     9294.358       23.986        4.111      629.942       99.821        0.025      341.357       16.008      854.483
04/13/2013  09:38:00     -249.981     -148.601        2.684      184.554      185.384       86.298    34060.032    34367.202     7447.371        8.021        3.794      290.814      107.615        0.137      341.663       16.530      854.479
04/13/2013  09:39:00     -356.962     -161.982      -13.329      165.820      145.793       64.864    27496.329    21255.491     4207.319       10.339        2.648      391.995       64.195        0.027      341.699       16.589      854.490
04/13/2013  09:40:00     -372.378     -134.716       -8.799      212.674      142.053       85.067    45230.147    20178.971     7236.434       11.476        3.632      395.997       98.294        0.062      341.695       16.582      854.482
04/13/2013  09:41:00     -270.818     -187.579       -0.620      212.299      179.261      111.425    45070.974    32134.522    12415.517        9.906        4.481      329.437      108.169        0.108      341.795       16.754      854.470
04/13/2013  09:42:00     -484.474     -206.344      -23.723      239.572      201.466       99.589    57394.652    40588.500     9917.939       19.286        5.395      526.586      104.649        0.039      341.576       16.380      854.518
04/13/2013  09:43:00     -459.953     -354.291      -18.272      238.029      188.774      116.839    56657.610    35635.657    13651.438       22.166        5.297      580.584      136.981        0.056      341.263       15.851      854.464
04/13/2013  09:44:00     -621.790     -414.476      -27.947      340.871      238.660      142.462   116192.758    56958.696    20295.315       37.629        9.672      747.271      165.515        0.049      341.305       15.922      854.422
04/13/2013  09:45:00     -403.936     -144.033      -11.131      292.416      218.331      102.578    85507.084    47668.383    10522.270       16.384        7.185      428.847      120.496        0.079      341.462       16.188      854.444
04/13/2013  09:46:00     -612.401     -132.698      -28.560      294.363      200.471      107.405    86649.676    40188.423    11535.929       26.589        6.919      626.613      120.087        0.037      341.397       16.077      854.464
04/13/2013  09:47:00     -615.963     -168.762      -43.279      266.853      216.684      103.349    71210.587    46951.978    10681.061       26.928        6.442      638.664      106.518        0.028      341.442       16.153      854.475
04/13/2013  09:48:00     -468.678      -96.110       -9.565      293.047      196.993      103.953    85876.315    38806.400    10806.162       18.222        6.774      478.431      132.639        0.077      341.441       16.153      854.472
04/13/2013  09:49:00     -357.632     -290.023      -13.942      219.402      197.443       98.891    48137.134    38983.874     9779.503       15.454        4.845      460.450      106.061        0.053      341.497       16.248      854.467
04/13/2013  09:50:00     -348.076     -197.066       -6.153      207.112      159.850      103.066    42895.399    25552.089    10622.551       11.954        3.954      399.990       95.290        0.057      341.524       16.294      854.449
04/13/2013  09:51:00     -264.109     -103.825       23.327      252.228      156.432       78.076    63618.978    24471.108     6095.849        8.762        4.709      283.784       72.624        0.065      341.654       16.512      854.442
04/13/2013  09:52:00     -506.048     -130.657      -18.916      291.991      230.785      111.843    85258.598    53261.823    12508.787       21.225        7.551      522.643      130.803        0.063      341.467       16.196      854.415
04/13/2013  09:53:00     -525.448      -78.346      -23.119      232.197      164.468       97.180    53915.673    27049.789     9443.955       18.657        4.520      531.256      111.702        0.044      341.537       16.314      854.419
04/13/2013  09:54:00     -521.006      -82.673        3.808      276.657      234.372      108.204    76539.161    54930.221    11708.062       21.071        7.159      527.525      128.079        0.059      341.631       16.474      854.434
04/13/2013  09:55:00     -351.072     -190.319       23.343      229.864      176.901      108.086    52837.636    31293.842    11682.581       12.790        4.791      399.340      118.698        0.088      341.543       16.326      854.432
04/13/2013  09:56:00     -394.166     -181.859        2.303      259.969      189.342      102.303    67583.920    35850.470    10465.947       15.115        5.695      434.096      121.490        0.078      341.547       16.332      854.413
04/13/2013  09:57:00     -454.934     -189.982      -19.800      198.891      162.915       91.642    39557.672    26541.428     8398.249       15.896        3.725      493.009       95.210        0.037      341.505       16.259      854.399
04/13/2013  09:58:00     -592.800     -214.481      -22.613      265.740      205.450       99.852    70617.947    42209.830     9970.466       26.034        6.140      630.407      107.994        0.029      341.523       16.290      854.373
04/13/2013  09:59:00     -441.290      -33.911       -0.697      248.781      205.747       87.495    61891.809    42331.857     7655.316       15.386        5.594      442.591       96.888        0.048      341.584       16.396      854.379
04/13/2013  10:00:00     -432.278     -159.619       -7.705      247.063      185.920      114.727    61040.329    34566.196    13162.362       16.057        5.438      460.807      128.435        0.078      341.603       16.428      854.382
04/13/2013  10:01:00     -241.674      -29.466       39.785      227.473      153.670      108.448    51743.881    23614.581    11760.939        7.397        4.356      243.463      105.861        0.189      341.851       16.849      854.399
04/13/2013  10:02:00     -628.127     -297.310      -18.767      262.507      215.200      114.405    68909.777    46311.093    13088.482       30.578        6.415      694.937      127.299        0.034      341.438       16.147      854.382
04/13/2013  10:03:00     -287.862     -151.071        4.487      169.398      195.085       88.572    28695.538    38058.232     7844.997        9.014        3.730      325.095       69.274        0.045      341.565       16.362      854.432
04/13/2013  10:04:00     -362.608      -21.576      -29.449      176.770      131.220       68.741    31247.552    17218.758     4725.277        9.300        2.660      363.249       61.607        0.029      341.756       16.685      854.494
04/13/2013  10:05:00     -313.873     -143.948       -4.205      226.107      161.883       87.541    51124.390    26206.143     7663.490       10.211        4.250      345.308      115.630        0.112      341.839       16.828      854.519
04/13/2013  10:06:00     -393.371     -267.235      -15.174      225.268      215.382      110.230    50745.566    46389.353    12150.589       16.782        5.464      475.558      120.466        0.064      341.578       16.386      854.511
04/13/2013  10:07:00     -445.055     -310.886        2.055      275.934      237.483      115.943    76139.693    56398.329    13442.869       22.033        7.299      542.885      139.642        0.066      341.434       16.141      854.482
04/13/2013  10:08:00     -379.384     -138.154       11.948      258.060      154.721      103.233    66594.977    23938.737    10657.046       13.216        5.060      403.755      117.350        0.084      341.557       16.350      854.454
04/13/2013  10:09:00     -533.235     -417.960      -12.301      261.281      198.110      117.017    68267.667    39247.600    13692.947       29.017        6.060      677.518      132.217        0.038      341.503       16.258      854.458
04/13/2013  10:10:00     -476.882     -352.237       11.968      250.761      204.697      107.838    62881.222    41900.769    11629.113       23.400        5.821      592.863      131.353        0.049      341.458       16.180      854.461
04/13/2013  10:11:00     -392.085     -261.589       -4.108      223.417      171.278       92.670    49915.304    29336.086     8587.746       15.499        4.392      471.338      107.506        0.052      341.623       16.461      854.493
04/13/2013  10:12:00     -460.807     -261.783      -11.506      311.182      209.355      101.032    96834.009    43829.334    10207.471       21.591        7.544      529.975      123.521        0.054      341.694       16.582      854.532
04/13/2013  10:13:00     -514.551     -180.146      -21.074      219.498      186.166       93.084    48179.310    34657.665     8664.700       19.457        4.575      545.175      110.607        0.041      341.544       16.328      854.483
04/13/2013  10:14:00     -341.534     -190.522      -11.433      149.152      118.052       91.644    22246.364    13936.316     8398.642        9.882        2.229      391.080       86.818        0.049      341.734       16.648      854.479
04/13/2013  10:15:00     -287.221     -182.133       21.126      177.129      110.975       65.755    31374.620    12315.437     4323.734        8.206        2.401      340.101       73.432        0.047      341.912       16.951      854.526
04/13/2013  10:16:00     -380.843     -271.564       -2.159      241.909      188.188       93.124    58519.966    35414.760     8672.107       16.068        5.130      467.749      107.109        0.052      341.852       16.849      854.521
04/13/2013  10:17:00     -430.123     -271.271       -8.581      232.042      201.566      109.521    53843.474    40628.773    11994.848       18.255        5.323      508.521      115.097        0.051      341.831       16.813      854.521
04/13/2013  10:18:00     -269.497     -144.146        0.245      149.549      150.087       87.442    22364.967    22526.178     7646.019        7.296        2.627      305.625       88.776        0.084      341.862       16.865      854.530
04/13/2013  10:19:00     -417.972     -211.250       13.115      262.743      208.365      106.881    69033.706    43416.022    11423.528       17.167        6.194      468.323      114.632        0.060      341.844       16.836      854.504
04/13/2013  10:20:00     -445.128     -144.286       -4.851      231.924      214.080      108.171    53788.559    45830.255    11700.989       16.513        5.566      467.928      113.941        0.059      341.768       16.707      854.446
04/13/2013  10:21:00     -554.151     -270.931      -29.812      255.911      240.135      111.808    65490.612    57664.672    12500.927       25.849        6.783      616.837      130.157        0.045      341.781       16.728      854.394
04/13/2013  10:22:00     -383.920     -120.018        6.729      219.953      169.869       98.824    48379.272    28855.462     9766.166       12.441        4.350      402.242      105.243        0.068      341.933       16.986      854.455
04/13/2013  10:23:00     -342.507     -265.535       11.310      282.930      261.639       97.538    80049.421    68455.074     9513.692       17.296        7.901      433.382      118.123        0.074      341.928       16.978      854.474
04/13/2013  10:24:00     -525.379     -385.426        6.342      295.893      213.015      138.618    87552.926    45375.338    19214.881       28.835        7.607      651.595      166.012        0.065      341.564       16.360      854.435
04/13/2013  10:25:00     -405.554     -290.387      -11.101      217.630      174.182      107.225    47362.761    30339.464    11497.302       16.905        4.460      498.797      105.818        0.045      341.767       16.705      854.403
04/13/2013  10:26:00     -424.759     -147.974      -11.653      198.963      174.735       91.290    39586.366    30532.475     8333.800       14.044        3.923      449.797      107.832        0.057      341.968       17.046      854.400
04/13/2013  10:27:00     -201.919      -92.103      -17.966      175.743      113.990       63.138    30885.571    12993.830     3986.365        4.871        2.393      221.933       60.594        0.075      342.019       17.134      854.364
04/13/2013  10:28:00     -128.887      -60.229       17.000      152.707      141.646       78.024    23319.508    20063.494     6087.817        3.499        2.474      142.265       84.859        0.356      342.223       17.481      854.343
04/13/2013  10:29:00     -145.711     -264.472        1.027      112.192      145.919       79.951    12587.024    21292.388     6392.124        6.572        2.014      301.955       58.856        0.038      342.174       17.395      854.363
04/13/2013  10:30:00     -395.530     -253.982       -6.036      259.840      224.624      106.575    67516.922    50456.008    11358.322       17.514        6.467      470.054      114.877        0.060      342.041       17.171      854.249
04/13/2013  10:31:00     -439.123     -290.324        4.033      269.471      197.526      114.933    72614.835    39016.636    13209.503       20.097        6.242      526.419      133.586        0.064      342.050       17.185      854.207
04/13/2013  10:32:00     -350.700     -256.893      -25.104      166.801      146.576       79.545    27822.463    21484.519     6327.470       12.262        2.782      434.723       80.958        0.035      341.935       16.991      854.217
04/13/2013  10:33:00     -197.396     -179.870        0.574      149.894      110.710       72.164    22468.267    12256.707     5207.622        5.562        1.997      267.055       72.729        0.074      342.268       17.556      854.207
04/13/2013  10:34:00     -224.006     -114.968       -2.258      179.205      122.176       57.774    32114.327    14927.012     3337.873        5.688        2.519      251.786       77.836        0.096      342.464       17.888      854.214
04/13/2013  10:35:00     -585.455     -223.789      -36.530      275.173      227.586       99.278    75720.344    51795.164     9856.110       26.575        6.869      626.769      129.231        0.043      342.189       17.423      854.131
04/13/2013  10:36:00     -278.099     -271.485       -2.534      207.665      215.810       85.410    43124.771    46573.961     7294.936       12.401        4.850      388.643      100.953        0.067      342.218       17.471      854.219
04/13/2013  10:37:00     -546.227     -396.331      -24.323      299.370      234.392      115.341    89622.377    54939.472    13303.529       30.692        7.893      674.864      133.346        0.039      342.008       17.114      854.224
04/13/2013  10:38:00     -187.817      -81.087       16.232      167.652      104.181       65.015    28107.269    10853.595     4226.906        4.264        2.159      204.574       66.727        0.106      342.183       17.413      854.218
04/13/2013  10:39:00     -367.139     -128.188        7.404      234.587      188.151       91.254    55031.258    35400.783     8327.290       12.500        4.938      388.874      109.751        0.080      342.223       17.479      854.185
04/13/2013  10:40:00     -424.407     -239.914      -12.284      234.546      179.979       85.212    55011.773    32392.422     7261.126       16.623        4.733      487.524       84.948        0.030      342.303       17.615      854.173
04/13/2013  10:41:00     -380.209     -262.617        4.657      267.495      183.351      106.529    71553.631    33617.408    11348.407       16.501        5.826      462.089      132.750        0.083      342.136       17.332      854.142
04/13/2013  10:42:00     -332.801      -80.248       -9.450      264.475      202.180       80.004    69947.130    40876.945     6400.685       11.724        5.861      342.340      112.758        0.108      342.072       17.223      854.132
04/13/2013  10:43:00     -309.563     -366.363       -4.434      189.919      177.357       93.816    36069.342    31455.503     8801.469       15.319        3.816      479.637       84.781        0.031      342.265       17.549      854.102
04/13/2013  10:44:00     -238.196     -321.405      -13.240      162.538      172.084       90.299    26418.747    29612.868     8153.939       11.219        3.209      400.049       85.132        0.045      342.237       17.502      854.090
04/13/2013  10:45:00     -300.863     -214.011      -10.828      132.658      116.751       72.799    17598.217    13630.789     5299.748        8.648        1.826      369.215       70.604        0.037      342.284       17.583      854.085
04/13/2013  10:46:00     -291.166     -273.714       -2.538      191.024      165.242       88.369    36490.039    27304.845     7809.016       11.564        3.580      399.621      100.703        0.064      342.328       17.659      854.128
04/13/2013  10:47:00     -156.066     -214.899        2.255      155.338      173.226       76.461    24130.014    30007.286     5846.249        6.525        2.999      265.590       67.635        0.065      342.404       17.786      854.141
04/13/2013  10:48:00     -224.031      -79.505       -6.377      126.284      135.584       73.587    15947.528    18383.106     5415.087        4.814        1.987      237.720       69.262        0.085      342.473       17.902      854.093
04/13/2013  10:49:00     -204.321     -214.656       20.095      226.096      146.804       92.518    51119.567    21551.468     8559.623        8.472        4.062      296.351      111.179        0.141      342.628       18.167      854.078
04/13/2013  10:50:00     -396.704     -246.290      -12.040      260.505      237.680       79.789    67862.720    56491.718     6366.206       17.443        6.536      466.940       71.846        0.024      342.254       17.531      854.055
04/13/2013  10:51:00     -493.997     -284.773      -24.704      234.560      210.828       98.746    55018.458    44448.584     9750.685       21.746        5.461      570.201       84.062        0.022      342.345       17.686      854.001
04/13/2013  10:52:00     -384.143     -318.369       -1.177      212.509      180.883      106.640    45160.218    32718.707    11372.101       16.907        4.463      498.924      105.611        0.045      342.422       17.818      854.025
04/13/2013  10:53:00     -428.789     -275.866        9.853      196.677      206.658       97.393    38681.969    42707.663     9485.482       17.545        4.544      509.864       96.859        0.036      342.348       17.691      854.017
04/13/2013  10:54:00     -287.565     -224.623       12.204      193.183      132.732       69.037    37319.629    17617.750     4766.097        9.649        2.985      364.897       78.739        0.047      342.356       17.705      854.006
04/13/2013  10:55:00     -364.818     -195.848       -5.277      239.264      170.386       76.148    57247.158    29031.272     5798.552       13.176        4.604      414.064      101.662        0.060      342.176       17.401      853.933
04/13/2013  10:56:00      -54.583      -22.263       33.323       80.983       88.105       46.682     6558.192     7762.537     2179.175        1.054        0.825       58.949       47.076        0.638      342.602       18.127      853.853
04/13/2013  10:57:00      -91.633     -140.322       18.918      113.186      105.270       64.973    12810.991    11081.758     4221.453        2.827        1.406      167.592       58.340        0.121      342.611       18.139      853.844
04/13/2013  10:58:00      -82.062     -147.889       13.341      175.114      117.560       79.392    30664.770    13820.406     6303.132        3.978        2.539      169.131       77.032        0.207      342.812       18.482      853.857
04/13/2013  10:59:00      -93.826     -178.714      -20.188      212.868      142.775       74.027    45312.914    20384.588     5479.984        5.615        3.559      201.846       65.901        0.107      342.645       18.197      853.757
04/13/2013  11:00:00     -475.038     -387.845       -4.255      254.490      198.405      113.575    64765.033    39364.393    12899.178       24.655        5.851      613.257      127.016        0.043      342.129       17.319      853.824
04/13/2013  11:01:00     -262.969      -87.130        1.912      213.431      136.536       71.964    45552.906    18641.968     5178.807        7.305        3.469      277.028       71.193        0.066      342.370       17.729      853.797
04/13/2013  11:02:00     -171.023     -168.842        9.681      157.583      239.284       90.213    24832.455    57256.920     8138.404        7.402        4.511      240.325      102.505        0.182      342.550       18.035      853.829
04/13/2013  11:03:00     -216.114     -156.779        6.455      181.167      159.857       77.686    32821.390    25554.139     6035.049        6.786        3.221      266.993       78.887        0.087      342.665       18.232      853.866
04/13/2013  11:04:00     -474.261     -292.407      -11.330      231.602      190.893       83.509    53639.529    36440.093     6973.745       20.379        4.853      557.159      103.433        0.034      342.371       17.731      853.864
04/13/2013  11:05:00     -461.880      -73.049      -27.989      192.085      178.504       82.698    36896.674    31863.773     6839.011       14.751        3.780      467.621       79.300        0.029      342.298       17.607      853.929
04/13/2013  11:06:00     -283.113     -162.561      -19.467      158.666      135.930       68.340    25174.822    18477.081     4670.327        7.763        2.416      326.464       73.402        0.051      342.108       17.284      853.863
04/13/2013  11:07:00     -106.207     -320.085      -12.260      122.195      177.625       75.273    14931.603    31550.543     5666.098        8.301        2.607      337.245       25.792        0.006      342.171       17.392      853.874
04/13/2013  11:08:00     -253.934     -210.324        3.728      226.757      134.279       85.797    51418.931    18030.827     7361.081        9.276        3.841      329.725       69.091        0.044      342.620       18.154      853.836
04/13/2013  11:09:00     -212.260     -135.628        2.783      140.735       97.224       72.609    19806.273     9452.452     5272.006        4.899        1.727      251.891       78.244        0.096      342.330       17.662      853.888
04/13/2013  11:10:00      -64.168     -115.140        3.024      110.390      100.667       53.014    12185.888    10133.858     2810.444        2.125        1.257      131.814       49.775        0.143      342.517       17.979      853.882
04/13/2013  11:11:00     -202.203     -181.069       -1.730      238.064      133.321       72.280    56674.536    17774.608     5224.466        7.666        3.984      271.426       80.297        0.088      342.550       18.035      853.860
04/13/2013  11:12:00     -228.387     -294.678        8.211      222.060      228.692       98.027    49310.690    52299.974     9609.358       12.512        5.561      372.821      109.473        0.086      342.532       18.006      853.875
04/13/2013  11:13:00     -372.635     -276.915       -5.370      238.442      157.122      101.171    56854.748    24687.458    10235.527       15.366        4.589      464.262      124.109        0.071      342.309       17.625      853.823
04/13/2013  11:14:00     -477.891     -327.299       -1.927      266.700      195.381      100.034    71129.076    38173.651    10006.885       22.739        5.965      579.227      110.472        0.036      342.306       17.621      853.769
04/13/2013  11:15:00     -334.014     -346.849      -13.927      247.772      205.448      115.612    61391.135    42208.919    13366.063       17.449        5.848      481.528      100.087        0.043      342.257       17.537      853.815
04/13/2013  11:16:00     -279.267     -239.827        5.109      211.730      165.960       90.774    44829.604    27542.759     8239.853       10.806        4.031      368.113       97.739        0.070      342.273       17.565      853.779
04/13/2013  11:17:00     -117.286     -180.119       29.381      174.270      113.573       67.140    30369.966    12898.938     4507.811        4.741        2.389      214.939       70.230        0.107      342.557       18.049      853.750
04/13/2013  11:18:00     -162.764     -159.989        3.901      134.612      150.321       57.837    18120.262    22596.259     3345.079        4.808        2.203      228.229       52.952        0.054      342.558       18.048      853.781
04/13/2013  11:19:00     -337.433     -267.942      -13.613      294.521      208.669       84.288    86742.905    43542.958     7104.415       16.159        6.870      430.876       97.903        0.052      342.472       17.902      853.726
04/13/2013  11:20:00     -436.601     -253.596      -23.070      223.648      197.132       93.688    50018.605    38861.138     8777.361       17.654        4.883      504.907       96.618        0.037      342.615       18.146      853.702
04/13/2013  11:21:00     -339.869     -195.846       -5.981      213.709      147.756       90.197    45671.663    21831.872     8135.439       11.476        3.782      392.258      106.206        0.073      342.551       18.037      853.763
04/13/2013  11:22:00     -205.555      -60.684       -5.658      122.838      154.201       62.058    15089.086    23777.882     3851.234        4.434        2.136      214.325       62.340        0.085      342.796       18.455      853.752
04/13/2013  11:23:00     -236.540      -79.502      -16.230      213.631      126.363       68.618    45638.327    15967.697     4708.445        6.441        3.316      249.543       88.034        0.124      342.658       18.221      853.762
04/13/2013  11:24:00      -60.121     -135.503       26.806       96.732       74.681       52.017     9357.147     5577.239     2705.721        2.016        0.882      148.241       50.709        0.117      342.680       18.257      853.698
04/13/2013  11:25:00     -231.941      -52.296      -10.353      156.662      113.599       61.545    24542.961    12904.745     3787.760        4.893        2.062      237.764       62.935        0.070      342.936       18.692      853.743
04/13/2013  11:26:00      -11.249     -204.981       17.248       90.387      168.958       56.027     8169.838    28546.939     3139.078        4.114        1.993      205.289       14.364        0.005      342.669       18.238      853.720
04/13/2013  11:27:00     -246.439     -260.129      -21.127      297.448      228.430       68.671    88475.191    52180.217     4715.770       13.708        7.269      358.329       74.087        0.043      342.617       18.150      853.711
04/13/2013  11:28:00     -477.217      -92.830      -16.840      250.338      209.978       99.700    62669.153    44090.932     9940.165       17.665        5.835      486.162      113.260        0.054      342.660       18.222      853.741
04/13/2013  11:29:00     -335.175     -101.306        4.569      289.500      131.090       72.515    83810.305    17184.668     5258.452       11.442        5.313      350.151      101.797        0.085      342.498       17.946      853.660
04/13/2013  11:30:00     -384.157     -198.685      -14.815      174.679      141.842       75.560    30512.838    20119.088     5709.377       12.180        2.817      432.496       75.675        0.031      342.514       17.975      853.655
04/13/2013  11:31:00     -252.490     -147.852        7.882      190.958      191.950       86.768    36464.894    36844.680     7528.631        8.324        4.042      292.595       86.337        0.087      342.679       18.255      853.682
04/13/2013  11:32:00     -297.433     -385.254       -0.550      267.921      269.324      126.013    71781.440    72535.197    15879.305       19.851        8.010      486.710      123.519        0.064      342.462       17.886      853.614
04/13/2013  11:33:00     -259.189      -70.668        2.074      188.585      194.656       86.643    35564.379    37891.052     7507.078        7.656        4.048      268.651      104.196        0.150      342.755       18.384      853.656
04/13/2013  11:34:00     -239.759     -252.450       10.896      200.246      177.891       86.341    40098.420    31645.210     7454.763       10.025        3.960      348.160       96.926        0.078      342.589       18.102      853.713
04/13/2013  11:35:00     -344.395     -295.079        3.831      264.498      272.548      112.303    69959.179    74282.661    12611.962       18.125        7.843      453.519      115.881        0.065      342.331       17.663      853.590
04/13/2013  11:36:00     -157.690     -132.486       22.776      205.925      192.704       93.287    42404.955    37134.925     8702.497        6.558        4.412      205.959       89.755        0.190      342.749       18.374      853.596
04/13/2013  11:37:00     -427.455     -308.508      -13.792      190.237      180.368       99.990    36189.980    32532.589     9997.980       17.839        3.936      527.158      103.215        0.038      342.389       17.762      853.622
04/13/2013  11:38:00     -201.712     -140.457       14.168      179.784      145.683       69.758    32322.449    21223.585     4866.196        5.950        2.921      245.796       69.797        0.081      342.576       18.079      853.615
04/13/2013  11:39:00     -159.195     -165.080       19.522      187.522      124.393       79.327    35164.325    15473.619     6292.811        5.494        2.847      229.335       96.917        0.179      342.865       18.570      853.604
04/13/2013  11:40:00     -110.988     -100.800       27.775      126.164       88.570       58.329    15917.385     7844.709     3402.219        2.520        1.358      149.930       64.239        0.184      342.815       18.487      853.553
04/13/2013  11:41:00     -236.424        0.651        6.223      219.639      150.558       70.684    48241.138    22667.705     4996.189        6.591        3.795      236.425       80.593        0.116      342.885       18.606      853.565
04/13/2013  11:42:00      -19.751     -236.491        1.824      168.578      143.187       76.013    28418.573    20502.408     5777.998        5.550        2.735      237.315       44.049        0.034      342.905       18.640      853.533
04/13/2013  11:43:00     -418.731     -218.409        8.974      262.138      225.523      117.186    68716.271    50860.587    13732.631       17.819        6.665      472.269      128.402        0.074      342.665       18.230      853.552
04/13/2013  11:44:00     -418.843     -342.134       -2.896      278.453      196.911      119.075    77535.986    38773.858    14178.918       21.147        6.524      540.819      143.609        0.071      342.472       17.903      853.480
04/13/2013  11:45:00     -345.506     -240.118       -5.049      214.331      172.963      105.773    45937.699    29916.227    11187.867       13.203        4.352      420.750      115.128        0.075      342.572       18.072      853.429
04/13/2013  11:46:00     -189.461     -218.485        4.559      141.583      133.532       72.335    20045.823    17830.838     5232.326        6.337        2.155      289.190       64.463        0.050      342.766       18.402      853.386
04/13/2013  11:47:00     -404.243      -88.800       -9.502      290.686      126.514       80.257    84498.427    16005.789     6441.245       13.915        5.347      413.881      115.658        0.078      342.881       18.597      853.376
04/13/2013  11:48:00     -362.076     -106.716       -2.104      236.192      155.886       96.469    55786.802    24300.541     9306.322       11.593        4.470      377.475      126.773        0.113      342.772       18.412      853.382
04/13/2013  11:49:00     -389.921     -277.000        7.466      251.945      259.650      106.817    63476.331    67418.264    11409.792       18.554        7.115      478.296      133.883        0.078      342.592       18.106      853.285
04/13/2013  11:50:00     -117.977      -18.615       -4.487      138.708      114.896       59.822    19240.003    13201.115     3578.700        2.515        1.801      119.436       62.111        0.270      343.028       18.849      853.241
04/13/2013  11:51:00     -325.325     -111.375       -0.342      245.490      173.157       86.546    60265.498    29983.358     7490.215       10.797        4.887      343.861      107.464        0.098      342.946       18.708      853.221
04/13/2013  11:52:00     -295.217       -9.537       22.272      247.012      146.082      106.050    61014.900    21339.896    11246.681        9.066        4.680      295.371      115.730        0.154      343.185       19.116      853.240
04/13/2013  11:53:00     -110.764      -16.144        4.371      147.462      110.072       54.645    21744.903    12115.835     2986.049        2.469        1.842      111.935       60.220        0.289      343.481       19.620      853.298
04/13/2013  11:54:00     -280.164       62.742      -29.743      137.367      132.941       74.531    18869.653    17673.244     5554.935        6.270        2.105      287.104       70.020        0.059      342.909       18.646      853.306
04/13/2013  11:55:00     -290.267     -202.919       18.972      199.655      158.206       97.666    39862.130    25029.262     9538.648       10.010        3.722      354.162      101.000        0.081      342.887       18.608      853.281
04/13/2013  11:56:00     -381.142     -265.921      -13.912      276.754      209.505      129.656    76592.924    43892.252    16810.746       17.671        6.865      464.740      146.260        0.099      342.636       18.181      853.254
04/13/2013  11:57:00     -424.250     -129.261       -9.796      160.822      182.801       79.510    25863.757    33416.217     6321.767       13.119        3.280      443.504       76.087        0.029      342.811       18.480      853.242
04/13/2013  11:58:00     -329.511     -352.419        8.957      302.836      276.338      134.259    91709.527    76362.540    18025.510       20.945        9.305      482.470      167.222        0.120      342.725       18.332      853.246
04/13/2013  11:59:00     -335.065     -171.576       10.750      251.150      252.846       94.228    63076.499    63931.301     8879.010       13.883        6.794      376.440      109.652        0.085      342.701       18.292      853.285
04/13/2013  12:00:00     -211.571     -172.102       -4.816      253.876      213.206       98.652    64452.964    45456.804     9732.306        9.700        5.982      272.730      129.104        0.224      342.934       18.690      853.308
04/13/2013  12:01:00     -215.258     -208.727       15.772      232.054      173.885       94.734    53848.916    30236.138     8974.535        9.159        4.653      299.838      109.141        0.132      342.912       18.652      853.201
04/13/2013  12:02:00     -208.525     -254.891       -4.355      150.704      145.952       75.132    22711.763    21302.001     5644.776        7.906        2.483      329.320       63.399        0.037      342.948       18.711      853.234
04/13/2013  12:03:00      -79.429      -64.652       -1.914      138.124      108.710       74.847    19078.333    11817.963     5602.033        2.349        1.825      102.415       74.060        0.523      342.970       18.751      853.215
04/13/2013  12:04:00     -370.670      -82.937      -12.423      185.400      155.404       78.910    34373.091    24150.288     6226.831       10.458        3.238      379.835       79.615        0.044      342.888       18.609      853.322
04/13/2013  12:05:00     -524.078       -0.892      -40.323      195.539      173.914       87.950    38235.360    30246.131     7735.115       17.624        3.811      524.079       95.533        0.033      342.727       18.334      853.238
04/13/2013  12:06:00     -119.544     -130.125       39.093      168.384      116.540       77.210    28353.294    13581.539     5961.461        4.032        2.395      176.701       74.548        0.178      343.035       18.861      853.250
04/13/2013  12:07:00     -455.772     -322.165      -26.679      238.787      189.238      103.567    57019.456    35811.055    10726.167       20.788        5.178      558.138      116.358        0.043      342.551       18.037      853.236
04/13/2013  12:08:00     -334.981     -251.039       -7.070      203.205      160.725      105.462    41292.107    25832.630    11122.142       12.675        3.912      418.608      103.672        0.061      342.783       18.432      853.273
04/13/2013  12:09:00     -366.648     -137.312       -8.700      325.001      216.998      102.634   105625.771    47087.976    10533.698       15.828        8.162      391.517      130.582        0.111      342.720       18.325      853.266
04/13/2013  12:10:00     -116.405     -186.862       14.657      175.097      144.447       81.460    30659.131    20864.819     6635.652        5.341        2.908      220.154       75.949        0.119      342.742       18.362      853.290
04/13/2013  12:11:00     -314.774     -309.068       18.702      276.653      234.564      114.733    76537.056    55020.300    13163.638       16.981        7.236      441.141      115.977        0.069      342.654       18.211      853.269
04/13/2013  12:12:00     -426.604     -233.840      -19.312      252.005      213.708       94.366    63506.663    45671.036     8904.967       17.754        5.904      486.490      111.356        0.052      342.794       18.451      853.155
04/13/2013  12:13:00     -369.739     -195.325      -16.301      241.337      159.200       94.125    58243.390    25344.543     8859.570       13.377        4.622      418.161      103.064        0.061      342.912       18.651      853.205
04/13/2013  12:14:00     -270.297     -163.897        6.279      238.379      179.975       88.330    56824.475    32390.821     7802.209        9.847        4.851      316.105       96.127        0.092      343.068       18.917      853.255
04/13/2013  12:15:00     -462.793     -250.393       -5.380      241.388      215.081      111.627    58268.168    46259.809    12460.490       19.693        5.849      526.188      142.012        0.073      342.854       18.552      853.279
04/13/2013  12:16:00     -473.931     -178.816       -5.107      279.979      198.068      108.740    78388.172    39231.040    11824.472       19.301        6.472      506.543      131.205        0.067      342.966       18.743      853.230
04/13/2013  12:17:00     -392.359     -273.359      -13.332      287.377      246.415       97.489    82585.312    60720.361     9504.104       19.080        7.640      478.196      133.555        0.078      342.932       18.684      853.250
04/13/2013  12:18:00     -212.832     -164.305       13.338      204.075      172.963      103.159    41646.686    29916.319    10641.873        7.732        4.110      268.875      120.658        0.201      343.097       18.965      853.226
04/13/2013  12:19:00     -528.416     -164.128      -22.226      273.685      235.844      107.024    74903.481    55622.530    11454.105       22.429        7.099      553.319      125.831        0.052      342.784       18.433      853.200
04/13/2013  12:20:00     -434.839     -262.612      -16.330      287.359      205.804       99.824    82575.194    42355.081     9964.881       19.658        6.745      507.987      102.708        0.041      342.877       18.591      853.211
04/13/2013  12:21:00     -228.776     -184.344       -4.974      203.653      167.579      104.052    41474.632    28082.737    10826.783        8.335        4.019      293.805      109.737        0.140      343.032       18.856      853.158
04/13/2013  12:22:00     -180.571     -132.924        7.168      215.177      162.271       84.769    46301.145    26331.939     7185.788        6.506        3.991      224.220       92.191        0.169      343.167       19.084      853.099
04/13/2013  12:23:00     -201.107     -118.937       11.444      186.660      167.086       78.733    34842.059    27917.567     6198.910        6.183        3.448      233.645       91.572        0.154      343.394       19.475      853.085
04/13/2013  12:24:00     -108.589      -28.060       21.262      118.504       76.615       56.552    14043.202     5869.787     3198.089        1.807        1.156      112.156       66.262        0.349      343.613       19.847      853.145
04/13/2013  12:25:00     -400.009        8.389      -30.205      240.579      173.603       85.769    57878.357    30138.116     7356.374       12.817        4.769      400.097       90.820        0.052      343.230       19.192      853.081
04/13/2013  12:26:00     -547.179     -193.619       -3.930      277.145      189.672       99.222    76809.238    35975.605     9845.002       22.975        6.131      580.425      110.191        0.036      342.992       18.787      853.042
04/13/2013  12:27:00     -492.618     -391.801      -11.246      391.765      251.601      160.238   153479.915    63302.870    25676.205       31.934       12.123      629.429      182.701        0.084      343.001       18.802      853.014
04/13/2013  12:28:00     -594.418     -422.593      -32.021      341.718      306.319      127.590   116770.928    93831.102    16279.120       37.987       11.344      729.327      137.942        0.036      342.582       18.091      853.120
04/13/2013  12:29:00     -520.990     -156.526      -14.168      275.765      284.881      147.935    76046.130    81157.181    21884.686       23.758        8.954      543.995      160.997        0.088      342.712       18.310      852.984
04/13/2013  12:30:00     -475.030      -64.051      -28.961      269.028      185.542      107.328    72375.843    34425.681    11519.328       17.444        5.916      479.329      121.030        0.064      342.995       18.792      853.012
04/13/2013  12:31:00     -311.938     -165.473        4.487      255.648      140.404       99.459    65355.995    19713.211     9892.187       10.982        4.748      353.110      114.911        0.106      343.043       18.875      853.047
04/13/2013  12:32:00     -272.214     -154.069      -11.982      201.414      222.734       91.870    40567.528    49610.447     8440.024        9.828        4.931      312.791      111.560        0.127      343.117       19.001      853.041
04/13/2013  12:33:00     -307.871     -239.475        3.702      248.420      210.797      114.169    61712.731    44435.307    13034.663       13.564        5.959      390.042      138.433        0.126      343.067       18.914      853.047
04/13/2013  12:34:00     -140.135       -2.020       18.236      172.823      164.197       90.198    29867.838    26960.549     8135.716        4.246        3.248      140.150       99.788        0.507      343.304       19.319      853.046
04/13/2013  12:35:00     -306.165     -234.869       10.004      301.119      190.413       98.876    90672.787    36256.975     9776.444       14.283        6.835      385.877      144.632        0.140      343.166       19.082      853.029
04/13/2013  12:36:00     -445.123     -245.925      -29.549      299.076      283.233      101.960    89446.499    80220.685    10395.824       21.974        9.003      508.541      112.341        0.049      342.873       18.584      852.959
04/13/2013  12:37:00     -355.771     -280.904       21.538      315.668      188.138      135.732    99646.520    35395.874    18423.263       17.968        7.673      453.299      163.584        0.130      343.112       18.990      853.020
04/13/2013  12:38:00     -191.299     -109.841       31.026      303.009      158.766       94.215    91814.166    25206.758     8876.468        8.774        6.295      220.590      113.233        0.263      343.230       19.192      853.032
04/13/2013  12:39:00     -430.257     -103.347      -10.608      278.705      169.706      105.170    77676.546    28800.182    11060.678       15.671        5.877      442.495      104.892        0.056      343.052       18.889      852.992
04/13/2013  12:40:00     -543.040     -161.606      -32.764      306.019      179.836      110.017    93647.410    32341.144    12103.674       23.006        6.905      566.576      138.585        0.060      343.021       18.837      852.916
04/13/2013  12:41:00     -528.421     -174.394      -18.734      307.659      220.751      110.931    94654.291    48731.171    12305.667       23.282        7.785      556.455      133.391        0.057      343.104       18.977      852.942
04/13/2013  12:42:00     -570.997     -331.675      -27.049      290.167      294.170      121.483    84196.633    86536.233    14758.050       31.110        9.275      660.337      128.768        0.038      342.948       18.712      852.928
04/13/2013  12:43:00     -617.556     -269.008      -46.436      356.277      269.313      118.343   126933.272    72529.735    14005.063       33.465       10.673      673.603      146.442        0.047      342.911       18.649      852.896
04/13/2013  12:44:00     -515.683     -296.793      -12.635      290.372      226.795      113.043    84315.779    51436.128    12778.739       25.133        7.427      594.992      141.245        0.056      342.751       18.377      852.924
04/13/2013  12:45:00     -628.367     -313.928      -36.920      275.888      249.796      105.300    76114.176    62398.166    11087.987       32.215        7.480      702.421      112.975        0.026      342.749       18.374      852.871
04/13/2013  12:46:00     -612.301       68.129      -33.670      252.101      220.649       88.234    63555.122    48685.847     7785.270       25.034        6.001      616.080       88.648        0.021      342.854       18.551      852.875
04/13/2013  12:47:00     -620.504     -262.500      -23.689      349.958      276.968      127.600   122470.626    76711.118    16281.650       33.494       10.773      673.744      145.841        0.047      343.024       18.841      852.851
04/13/2013  12:48:00     -530.845     -295.324       -9.477      380.803      251.073      130.596   145011.069    63037.445    17055.244       29.707       11.255      607.464      127.530        0.044      342.880       18.597      852.928
04/13/2013  12:49:00     -345.125      -68.140        0.091      213.335      166.944       95.610    45512.010    27870.238     9141.293       10.313        4.126      351.788      103.717        0.087      343.192       19.129      852.951
04/13/2013  12:50:00     -280.366      -71.826       -0.967      174.587      127.522       76.988    30480.684    16261.779     5927.173        6.821        2.633      289.420       99.524        0.118      343.408       19.495      853.003
04/13/2013  12:51:00     -373.386        6.532      -17.119      220.679      175.981       91.938    48699.160    30969.145     8452.687       11.392        4.406      373.443      104.657        0.079      343.252       19.230      853.040
04/13/2013  12:52:00     -575.831     -237.596      -36.053      351.133      267.100      115.726   123294.127    71342.396    13392.617       29.865       10.401      622.924      157.033        0.064      343.056       18.895      853.014
04/13/2013  12:53:00     -646.388     -218.423      -32.462      250.983      206.791      107.866    62992.408    42762.541    11635.153       29.197        5.870      682.295      104.130        0.023      342.962       18.735      853.015
04/13/2013  12:54:00     -476.223      -66.183       -2.326      344.422      304.547      142.808   118626.853    92749.162    20394.226       23.143       11.589      480.800      183.403        0.146      343.078       18.933      853.022
04/13/2013  12:55:00     -300.680      -97.585        2.381      194.382      149.021       81.954    37784.277    22207.244     6716.378        8.331        3.335      316.119       92.469        0.086      343.200       19.139      853.023
04/13/2013  12:56:00     -422.745     -104.283      -16.854      224.507      196.982       93.452    50403.344    38802.055     8733.216       14.389        4.897      435.417       94.316        0.047      343.216       19.167      853.022
04/13/2013  12:57:00     -337.095     -109.974       -2.524      342.614      231.192      139.133   117384.461    53449.558    19358.042       15.793        9.510      354.580      155.266        0.192      343.092       18.957      853.078
04/13/2013  12:58:00     -216.323      -91.731       16.220      292.879      236.265      116.879    85778.286    55821.029    13660.721       10.534        7.763      234.968      133.164        0.321      343.168       19.087      853.060
04/13/2013  12:59:00     -204.691     -139.693       -0.226      176.537      157.986       89.509    31165.373    24959.431     8011.892        6.276        3.207      247.816       72.408        0.085      343.167       19.086      852.990
04/13/2013  13:00:00     -333.609     -162.239       22.288      287.652      192.580      110.410    82743.658    37087.055    12190.354       13.505        6.601      370.967      126.143        0.116      343.245       19.218      852.990
04/13/2013  13:01:00     -474.829      -23.156      -39.448      197.849      184.928      102.524    39144.422    34198.224    10511.235       15.569        4.193      475.393      102.021        0.046      343.227       19.187      852.970
04/13/2013  13:02:00     -353.991      -43.279       -3.917      281.300      208.811       92.409    79129.724    43602.106     8539.499       12.921        6.564      356.627      116.826        0.107      343.340       19.381      852.945
04/13/2013  13:03:00     -350.074     -173.783       -5.963      259.800      242.089      108.095    67496.054    58607.203    11684.442       14.526        6.889      390.835      135.637        0.120      343.405       19.490      852.953
04/13/2013  13:04:00     -553.542      -83.167      -37.958      254.963      193.999      114.214    65005.906    37635.529    13044.795       21.521        5.784      559.755      110.524        0.039      343.248       19.223      852.976
04/13/2013  13:05:00     -762.680     -137.514      -25.911      290.482      221.593      105.560    84379.587    49103.553    11142.828       37.292        7.231      774.978      121.309        0.025      342.972       18.751      852.992
04/13/2013  13:06:00     -534.822      -87.299      -44.062      267.132      237.097       95.982    71359.379    56215.055     9212.572       21.617        6.839      541.900      102.238        0.036      343.082       18.940      852.979
04/13/2013  13:07:00     -377.768      -21.732       -1.069      184.469      201.614       94.705    34028.656    40648.243     8969.055       11.340        4.182      378.393       69.475        0.034      343.148       19.051      852.918
04/13/2013  13:08:00     -520.466       34.736        6.929      393.721      200.447      117.224   155015.965    40179.199    13741.409       24.050       10.447      521.624      153.654        0.087      343.353       19.402      852.875
04/13/2013  13:09:00     -587.519      -26.385      -28.345      283.374      196.367      120.615    80300.734    38560.033    14548.016       24.002        6.670      588.112      143.145        0.059      343.239       19.207      852.925
04/13/2013  13:10:00     -621.664     -129.259      -13.662      252.822      185.966       95.090    63918.792    34583.321     9042.035       25.543        5.377      634.960      103.839        0.027      342.860       18.563      852.903
04/13/2013  13:11:00     -557.226     -273.679        5.615      363.262      225.927      148.546   131958.952    51043.027    22065.904       29.522       10.253      620.806      173.487        0.078      342.949       18.713      852.882
04/13/2013  13:12:00     -590.337     -290.569      -15.012      358.787      280.491      154.276   128728.211    78675.413    23801.223       33.214       11.560      657.973      167.726        0.065      343.038       18.866      852.834
04/13/2013  13:13:00     -408.144     -228.369       -5.456      269.623      212.328      114.532    72696.324    45083.007    13117.528       17.481        6.545      467.690      122.313        0.068      343.073       18.926      852.853
04/13/2013  13:14:00     -305.183       21.242      -10.487      184.242      167.459       86.941    33944.966    28042.404     7558.795        8.161        3.477      305.921       87.578        0.082      343.579       19.788      852.919
04/13/2013  13:15:00     -429.847       23.672       -4.521      319.136      270.428      125.936   101847.800    73131.287    15859.992       18.806        9.542      430.499      164.458        0.146      343.527       19.698      852.926
04/13/2013  13:16:00     -577.880      -39.865      -40.547      232.029      169.607       94.834    53837.234    28766.671     8993.507       21.437        4.580      579.254       94.182        0.026      343.380       19.446      852.977
04/13/2013  13:17:00     -695.153     -249.961      -33.935      349.853      200.257      112.454   122397.366    40103.021    12645.945       36.098        8.757      738.728      127.890        0.030      342.966       18.744      852.922
04/13/2013  13:18:00     -552.882      -84.355      -16.781      244.373      236.484      113.913    59718.316    55924.728    12976.239       22.083        6.431      559.280      119.082        0.045      343.020       18.834      852.908
04/13/2013  13:19:00     -266.560      -86.420       11.186      226.911      217.544      110.405    51488.620    47325.348    12189.370        9.481        5.550      280.219      121.080        0.187      343.434       19.541      852.924
04/13/2013  13:20:00     -398.318     -226.563       -6.791      359.806      219.153      112.886   129460.148    48027.999    12743.335       20.010        9.512      458.244      140.014        0.093      343.338       19.376      852.946
04/13/2013  13:21:00     -649.926     -164.883      -13.307      321.037      251.086      135.787   103064.546    63044.378    18437.980       31.713        9.227      670.515      154.161        0.053      343.043       18.873      852.933
04/13/2013  13:22:00     -586.500     -237.534      -32.150      286.649      242.582      116.095    82167.608    58846.150    13478.146       27.794        7.725      632.776      125.560        0.039      343.085       18.945      852.883
04/13/2013  13:23:00     -319.977     -152.605       14.235      208.148      174.931       92.605    43325.741    30601.010     8575.667       10.418        4.125      354.504      110.599        0.097      343.513       19.674      852.844
04/13/2013  13:24:00     -592.121      -46.194      -35.399      230.355      206.097      100.403    53063.292    42475.773    10080.737       22.979        5.281      593.921      105.590        0.032      343.526       19.697      852.897
04/13/2013  13:25:00     -234.698     -172.150        9.022      225.046      238.745      109.449    50645.552    56999.291    11978.992       10.219        5.981      291.065      112.314        0.149      343.487       19.630      852.898
04/13/2013  13:26:00     -648.034      -58.733      -38.421      389.115      206.631      124.831   151410.345    42696.384    15582.808       31.725       10.484      650.690      162.002        0.062      343.277       19.272      852.886
04/13/2013  13:27:00     -712.385     -314.509      -15.257      328.347      236.837      121.797   107811.477    56091.996    14834.524       39.266        8.937      778.722      131.964        0.029      343.171       19.090      852.827
04/13/2013  13:28:00     -342.620      -71.402      -12.656      235.336      180.748       90.025    55383.157    32669.764     8104.488       10.939        4.808      349.981       98.591        0.079      343.582       19.792      852.868
04/13/2013  13:29:00     -307.158      -36.490       12.922      236.714      177.396       94.173    56033.334    31469.366     8868.491        9.609        4.819      309.318      100.834        0.106      343.576       19.781      852.836
04/13/2013  13:30:00     -735.176      -94.997      -24.271      327.810      244.023      117.249   107459.314    59547.232    13747.278       36.540        9.038      741.288      156.289        0.044      343.121       19.006      852.808
04/13/2013  13:31:00     -348.380     -107.581       -3.192      211.524      200.384       93.963    44742.595    40153.564     8829.095       11.332        4.686      364.612      105.738        0.084      343.580       19.788      852.842
04/13/2013  13:32:00     -384.205     -222.760       10.250      275.190      225.185      104.828    75729.404    50708.238    10988.909       16.736        6.871      444.112      121.552        0.075      343.404       19.488      852.844
04/13/2013  13:33:00     -375.382     -107.991      -15.799      269.888      191.766       94.930    72839.727    36774.234     9011.615       13.570        5.931      390.607      119.693        0.094      343.307       19.323      852.919
04/13/2013  13:34:00     -624.479     -290.312       -5.822      307.816      241.886      138.166    94750.412    58509.077    19089.830       32.329        8.617      688.662      154.317        0.050      343.046       18.878      852.853
04/13/2013  13:35:00     -604.467     -330.830      -33.637      324.854      222.676      131.798   105530.254    49584.582    17370.774       32.419        8.624      689.079      155.193        0.051      343.253       19.230      852.889
04/13/2013  13:36:00     -590.615     -162.233      -32.617      319.638      211.559      120.016   102168.252    44757.160    14403.816       26.874        8.066      612.491      149.756        0.060      343.308       19.325      852.988
04/13/2013  13:37:00     -238.216     -137.511        7.600      171.837      128.201       80.286    29528.065    16435.425     6445.803        6.405        2.620      275.057       88.962        0.105      343.540       19.722      853.053
04/13/2013  13:38:00     -492.833      -56.559      -21.949      214.253      201.171       98.100    45904.396    40469.653     9623.604       17.127        4.800      496.068       98.093        0.039      343.324       19.350      853.029
04/13/2013  13:39:00     -871.301     -258.772      -42.142      403.046      271.331      136.039   162446.085    73620.253    18506.505       54.120       12.729      908.916      163.952        0.033      343.112       18.992      852.933
04/13/2013  13:40:00     -586.353     -249.736      -14.835      329.198      211.812      125.416   108371.415    44864.364    15729.278       28.765        8.448      637.321      147.037        0.053      343.123       19.010      852.954
04/13/2013  13:41:00     -585.991     -137.227      -20.731      266.640      201.189      107.171    71096.862    40477.065    11485.711       24.283        6.153      601.844      129.307        0.046      343.106       18.980      852.981
04/13/2013  13:42:00     -327.779     -223.451      -14.524      325.962      210.070      118.031   106251.054    44129.394    13931.409       16.092        8.216      396.698      139.072        0.123      343.385       19.456      852.964
04/13/2013  13:43:00     -498.319     -108.455      -13.428      248.015      163.109      110.004    61511.422    26604.701    12100.858       18.022        5.011      509.984      131.606        0.067      343.302       19.315      852.907
04/13/2013  13:44:00     -597.055       14.709      -48.096      254.430      181.472      110.886    64734.618    32932.195    12295.757       23.446        5.498      597.236      112.440        0.035      343.329       19.360      852.927
04/13/2013  13:45:00     -499.331     -200.933      -21.599      285.754      241.160      117.628    81655.529    58158.349    13836.246       22.189        7.683      538.243      117.501        0.048      343.395       19.474      852.930
04/13/2013  13:46:00     -557.918     -299.186      -24.407      297.976      250.096      122.108    88789.731    62547.996    14910.357       28.379        8.312      633.076      152.793        0.058      343.207       19.152      852.922
04/13/2013  13:47:00     -465.130     -229.175      -20.371      225.275      199.761      113.044    50748.617    39904.372    12778.916       18.634        5.172      518.524      114.536        0.049      343.160       19.073      852.927
04/13/2013  13:48:00     -565.223     -141.642      -23.980      303.360      187.684      116.572    92027.429    35225.388    13588.923       24.045        7.042      582.700      114.525        0.039      343.155       19.064      852.851
04/13/2013  13:49:00     -261.749      -42.833       16.852      188.510      186.401       91.826    35535.953    34745.273     8432.043        7.466        3.936      265.231       93.458        0.124      343.495       19.643      852.809
04/13/2013  13:50:00     -357.745     -167.474        3.095      232.985      170.173      113.050    54282.131    28958.799    12780.220       12.601        4.801      395.005      119.490        0.092      343.353       19.401      852.750
04/13/2013  13:51:00     -586.048      -31.279      -18.409      330.836      226.090      120.118   109452.606    51116.793    14428.354       25.985        8.750      586.882      138.757        0.056      343.223       19.181      852.725
04/13/2013  13:52:00     -388.940     -122.117      -27.830      160.019      211.832       88.143    25606.016    44872.818     7769.162       12.259        3.912      407.660       77.885        0.037      343.373       19.437      852.689
04/13/2013  13:53:00     -401.645     -206.729        0.063      223.935      175.260      104.822    50147.023    30716.139    10987.548       14.794        4.593      451.725      117.973        0.068      343.348       19.395      852.671
04/13/2013  13:54:00     -547.009     -146.328      -21.570      240.131      178.443      112.371    57663.073    31841.930    12627.332       21.160        5.107      566.242      111.740        0.039      343.400       19.481      852.632
04/13/2013  13:55:00     -616.967     -175.044       -8.018      314.939      292.802      137.983    99186.422    85732.942    19039.259       30.762       10.198      641.318      157.896        0.061      343.216       19.169      852.599
04/13/2013  13:56:00     -445.795     -174.111      -18.640      249.042      214.952      110.079    62021.810    46204.422    12117.477       17.485        6.017      478.590      110.292        0.053      343.208       19.154      852.627
04/13/2013  13:57:00     -614.641     -115.263      -31.249      331.768      211.987      114.574   110070.298    44938.437    13127.243       28.006        8.407      625.355      149.363        0.057      343.161       19.074      852.640
04/13/2013  13:58:00     -645.514      -98.253      -11.494      366.676      213.430      110.559   134451.238    45552.304    12223.201       30.932        9.611      652.948      137.444        0.044      343.232       19.197      852.646
04/13/2013  13:59:00     -633.988     -167.524       -0.430      377.346      268.667      144.079   142390.294    72182.111    20758.780       33.263       11.767      655.748      185.888        0.080      343.223       19.180      852.616
04/13/2013  14:00:00     -518.526     -238.791      -21.576      242.857      250.182       91.971    58979.453    62591.007     8458.692       22.817        6.501      570.868      110.393        0.037      343.006       18.810      852.620
04/13/2013  14:01:00     -393.370     -248.924        0.705      265.763      182.441      107.617    70630.140    33284.621    11581.360       16.608        5.775      465.514      108.356        0.054      342.955       18.723      852.576
04/13/2013  14:02:00     -360.348     -169.163      -13.996      206.225      138.187       79.935    42528.838    19095.767     6389.590       11.333        3.401      398.079      100.829        0.064      342.993       18.788      852.596
04/13/2013  14:03:00     -322.184     -158.787       -6.858      226.205      210.007      103.594    51168.577    44102.852    10731.669       11.752        5.300      359.187      106.763        0.088      343.427       19.527      852.643
04/13/2013  14:04:00     -671.993     -179.000      -15.136      320.928      231.259      107.808   102994.774    53480.761    11622.591       32.594        8.405      695.424      105.038        0.023      343.269       19.258      852.669
04/13/2013  14:05:00     -672.442     -112.018      -27.697      320.820      304.450      114.749   102925.736    92690.092    13167.432       33.710       10.439      681.708      121.965        0.032      343.098       18.967      852.704
04/13/2013  14:06:00     -673.695     -305.070      -22.048      342.122      214.742      123.949   117047.532    46114.228    15363.342       36.294        8.926      739.549      151.280        0.042      342.921       18.667      852.738
04/13/2013  14:07:00     -594.157     -155.245      -28.504      273.126      235.862      110.836    74597.966    55630.897    12284.687       26.020        7.126      614.104      117.453        0.037      342.906       18.640      852.738
04/13/2013  14:08:00     -404.427     -201.895       -8.481      242.930      285.310      113.269    59014.838    81401.649    12829.959       17.879        7.662      452.021      113.853        0.063      343.142       19.043      852.715
04/13/2013  14:09:00     -525.905     -320.825       13.163      305.977      287.801      134.142    93622.084    82829.249    17993.957       28.703        9.722      616.039      157.148        0.065      343.147       19.051      852.653
04/13/2013  14:10:00     -377.401     -165.412       23.134      352.663      223.632      127.671   124371.409    50011.359    16299.875       18.047        9.534      412.059      162.828        0.156      343.251       19.228      852.701
04/13/2013  14:11:00     -524.340      -82.736      -29.511      282.995      257.758      101.851    80086.076    66439.415    10373.723       21.975        7.845      530.827      117.476        0.049      343.325       19.355      852.697
04/13/2013  14:12:00     -617.627     -241.053      -22.707      367.420      234.832      136.751   134997.326    55145.922    18700.873       32.443       10.442      663.000      153.375        0.054      343.297       19.306      852.696
04/13/2013  14:13:00     -700.338      -93.247      -14.612      334.751      269.524      105.874   112058.210    72642.954    11209.331       34.761        9.796      706.518      138.582        0.038      343.191       19.126      852.643
04/13/2013  14:14:00     -467.975     -303.073      -11.387      256.877      242.607      109.204    65985.608    58858.337    11925.605       22.385        6.838      557.542      126.257        0.051      343.428       19.529      852.667
04/13/2013  14:15:00     -597.335     -321.571        2.270      294.759      254.116      136.914    86882.870    64575.139    18745.360       31.518        8.510      678.393      159.674        0.055      343.175       19.098      852.613
04/13/2013  14:16:00     -593.529      -99.730      -18.804      236.221      225.416      112.668    55800.155    50812.526    12693.981       24.092        5.965      601.849      117.808        0.038      343.332       19.366      852.717
04/13/2013  14:17:00     -548.599      -85.498      -37.502      251.951      226.521      108.532    63479.338    51311.778    11779.296       21.810        6.329      555.222      128.419        0.053      343.400       19.482      852.762
04/13/2013  14:18:00     -708.092      -81.921      -58.920      264.210      187.473      114.378    69807.051    35145.969    13082.299       31.479        5.902      712.816      109.663        0.024      343.155       19.063      852.782
04/13/2013  14:19:00     -380.464      -62.093      -11.087      209.318      237.279      110.595    43814.107    56301.244    12231.259       13.052        5.617      385.497      121.007        0.099      343.219       19.173      852.777
04/13/2013  14:20:00     -480.606      -75.119      -30.762      181.895      184.371       83.031    33085.901    33992.826     6894.164       15.576        3.699      486.441       83.261        0.029      343.251       19.228      852.831
04/13/2013  14:21:00     -195.200      -92.231        4.804      206.329      149.540      105.194    42571.663    22362.068    11065.789        6.130        3.800      215.892      120.547        0.312      343.543       19.726      852.828
04/13/2013  14:22:00     -291.872       18.373      -11.656      190.394      126.740       83.629    36249.796    16062.961     6993.842        7.247        2.965      292.449       94.037        0.103      343.672       19.944      852.834
04/13/2013  14:23:00     -679.588     -145.215      -41.318      215.774      226.676       97.971    46558.412    51381.791     9598.248       29.607        5.377      694.930       95.281        0.019      343.395       19.473      852.832
04/13/2013  14:24:00     -573.507      -50.948      -32.502      332.497      200.030       92.379   110554.281    40011.822     8533.949       24.580        7.955      575.765      125.915        0.048      343.221       19.177      852.752
04/13/2013  14:25:00     -377.326      -83.291       -0.854      260.846      213.885       95.840    68040.437    45746.724     9185.233       13.612        6.149      386.409      120.339        0.097      343.488       19.633      852.739
04/13/2013  14:26:00     -609.723     -251.968      -39.944      341.985      198.044      129.213   116953.912    39221.311    16695.904       30.483        8.644      659.735      137.048        0.043      343.107       18.983      852.715
04/13/2013  14:27:00     -591.541     -205.133       -5.923      303.058      211.625      130.481    91844.380    44785.002    17025.413       27.282        7.683      626.099      165.304        0.070      343.116       18.997      852.717
04/13/2013  14:28:00     -458.758     -188.094      -15.089      245.082      230.131      123.247    60065.159    52960.400    15189.883       18.712        6.411      495.821      128.899        0.068      343.231       19.194      852.693
04/13/2013  14:29:00     -645.847     -196.101      -16.181      304.725      270.479      128.828    92857.171    73158.787    16596.581       31.919        9.131      674.962      151.591        0.050      343.210       19.158      852.650
04/13/2013  14:30:00     -683.198     -221.670      -51.257      293.555      289.488      138.509    86174.444    83803.493    19184.683       35.381        9.458      718.260      145.070        0.041      343.118       19.001      852.631
04/13/2013  14:31:00     -218.833       -7.268       12.728      183.583      173.457       90.316    33702.681    30087.365     8156.958        6.001        3.597      218.954       97.651        0.199      343.528       19.700      852.628
04/13/2013  14:32:00      -69.476      -26.573       46.187      148.921      118.884       95.994    22177.419    14133.376     9214.780        2.659        2.276       74.385       95.874        1.661      343.751       20.083      852.583
04/13/2013  14:33:00     -224.689      -23.754       -1.254      157.368      116.405       60.012    24764.792    13550.203     3601.468        4.648        2.096      225.941       62.125        0.076      343.842       20.236      852.648
04/13/2013  14:34:00     -464.899     -134.011      -13.794      306.446      321.943      130.403    93909.312   103647.125    17004.822       22.439       10.728      483.829      140.290        0.084      343.647       19.904      852.697
04/13/2013  14:35:00     -267.472     -191.784      -11.423      231.161      190.290      100.369    53435.282    36210.465    10073.896       10.407        4.986      329.123       92.710        0.079      343.643       19.896      852.737
04/13/2013  14:36:00     -180.386     -169.138       12.414      205.676      135.583       97.129    42302.586    18382.765     9434.136        6.570        3.506      247.279      109.363        0.196      343.551       19.739      852.711
04/13/2013  14:37:00     -474.418     -121.411      -19.324      317.686      198.768      111.734   100924.466    39508.625    12484.382       19.653        7.646      489.707      134.808        0.076      343.576       19.783      852.691
04/13/2013  14:38:00     -350.804      -58.670      -28.352      217.699      164.566       96.935    47392.653    27081.917     9396.454       10.558        4.194      355.676      105.773        0.088      343.763       20.099      852.741
04/13/2013  14:39:00     -167.509      -65.969       16.693      194.139      150.675      101.469    37689.875    22703.100    10296.012        5.168        3.534      180.031      104.718        0.338      343.896       20.329      852.774
04/13/2013  14:40:00     -285.328     -145.840       -9.542      269.807      233.683      107.754    72795.618    54607.623    11610.859       12.087        6.951      320.439      141.688        0.196      343.585       19.798      852.757
04/13/2013  14:41:00     -346.565      -99.451      -23.634      321.413      230.113      124.651   103306.017    52951.826    15537.866       15.115        8.590      360.552      118.088        0.107      343.437       19.544      852.775
04/13/2013  14:42:00     -462.810     -136.674       -9.257      240.978      196.418      115.624    58070.342    38580.200    13368.803       17.147        5.501      482.569      119.557        0.061      343.386       19.457      852.689
04/13/2013  14:43:00     -455.359     -275.238       -3.475      225.840      224.788      110.968    51003.531    50529.747    12313.990       19.846        5.692      532.079      114.018        0.046      343.358       19.408      852.698
04/13/2013  14:44:00     -543.218     -315.946       -2.914      238.281      183.336      109.301    56777.740    33612.260    11946.783       24.861        5.117      628.417      116.885        0.035      343.441       19.552      852.697
04/13/2013  14:45:00     -412.576      -50.722        0.766      279.014      206.069      120.459    77848.924    42464.576    14510.375       15.379        6.741      415.682      142.335        0.117      343.555       19.744      852.718
04/13/2013  14:46:00     -552.030     -147.334      -24.158      222.185      201.039       86.548    49366.198    40416.726     7490.478       21.213        4.864      571.353       87.697        0.024      343.368       19.429      852.646
04/13/2013  14:47:00     -399.097      -60.929      -25.873      270.926      173.945      105.467    73400.915    30256.908    11123.256       13.920        5.739      403.721      107.847        0.071      343.530       19.704      852.576
04/13/2013  14:48:00     -465.413     -118.364      -18.722      288.533      293.559      131.614    83251.519    86176.924    17322.153       20.883        9.338      480.228      136.722        0.081      343.862       20.270      852.616
04/13/2013  14:49:00     -393.899     -120.054      -20.842      290.156      313.772      140.822    84190.654    98453.025    19830.821       18.621       10.124      411.788      159.790        0.151      343.632       19.878      852.582
04/13/2013  14:50:00     -469.699     -159.126        6.664      259.955      236.597      118.669    67576.817    55978.133    14082.354       19.179        6.882      495.922      135.452        0.075      343.468       19.596      852.549
04/13/2013  14:51:00     -471.433     -189.427       -5.020      233.155      196.996       93.080    54361.384    38807.394     8663.831       17.998        5.092      508.067      108.299        0.045      343.367       19.425      852.588
04/13/2013  14:52:00     -551.271     -162.062        0.193      299.283      204.631      113.589    89570.319    41873.660    12902.457       23.723        7.217      574.599      139.873        0.059      343.411       19.499      852.593
04/13/2013  14:53:00     -448.609     -195.487        1.462      320.309      225.498      104.233   102598.155    50849.170    10864.494       20.186        8.216      489.352      141.064        0.083      343.526       19.697      852.613
04/13/2013  14:54:00     -604.326      -97.788      -18.181      240.653      233.163      108.598    57913.913    54364.800    11793.481       24.957        6.204      612.187      118.431        0.037      343.574       19.778      852.586
04/13/2013  14:55:00     -586.211     -230.624       -9.193      371.314      234.889      127.018   137873.868    55173.002    16133.529       30.301       10.459      629.945      138.815        0.049      343.463       19.589      852.599
04/13/2013  14:56:00     -332.478     -255.583       13.222      322.325      238.544      131.790   103893.266    56903.326    17368.487       17.707        8.908      419.362      156.050        0.138      343.467       19.596      852.552
04/13/2013  14:57:00     -514.109     -141.259      -27.023      315.019      235.583      101.912    99236.772    55499.421    10386.003       22.503        8.256      533.162      103.169        0.037      343.542       19.724      852.563
04/13/2013  14:58:00     -519.993        6.492      -25.979      272.355      198.347      105.917    74177.259    39341.457    11218.379       19.790        6.237      520.033      113.725        0.048      343.455       19.576      852.587
04/13/2013  14:59:00     -377.621     -199.944       11.313      311.224      265.011      125.752    96860.404    70230.652    15813.531       18.277        9.145      427.288      161.991        0.144      343.564       19.762      852.651
04/13/2013  15:00:00     -315.953     -142.476       18.836      243.108      179.786       95.615    59101.383    32322.918     9142.164       11.051        5.028      346.591      111.399        0.103      343.409       19.497      852.605
04/13/2013  15:01:00     -460.566     -411.841       -1.713      331.588      250.332      141.178   109950.489    62665.940    19931.291       28.711        9.627      617.847      152.051        0.061      343.206       19.151      852.609
04/13/2013  15:02:00     -593.964      -95.495      -33.859      298.606      204.795      112.079    89165.798    41941.182    12561.615       25.334        7.183      601.592      132.585        0.049      343.303       19.316      852.570
04/13/2013  15:03:00     -611.034     -214.492      -26.499      322.120      234.189      131.937   103761.502    54844.596    17407.498       29.801        8.801      647.587      164.871        0.065      343.256       19.237      852.587
04/13/2013  15:04:00     -469.974     -335.504       -3.952      359.365      302.227      146.215   129143.136    91341.186    21378.896       28.762       12.093      577.441      179.179        0.096      343.235       19.200      852.514
04/13/2013  15:05:00     -687.075     -260.804      -26.890      313.450      272.324      124.612    98251.152    74160.240    15528.253       36.435        9.397      734.909      132.392        0.032      343.222       19.177      852.479
04/13/2013  15:06:00     -699.448     -111.508      -29.043      244.374      260.362      106.358    59718.525    67788.468    11312.014       32.064        6.941      708.281      107.379        0.023      343.339       19.377      852.554
04/13/2013  15:07:00     -423.332     -156.006       10.353      243.233      196.103      117.774    59162.443    38456.502    13870.660       15.755        5.574      451.162      123.226        0.075      343.280       19.276      852.467
04/13/2013  15:08:00     -522.565      -90.907      -13.556      313.476      229.868      111.494    98267.086    52839.381    12430.872       22.250        8.177      530.413      145.059        0.075      343.307       19.324      852.433
04/13/2013  15:09:00     -401.954      -20.670       17.143      235.479      213.785       96.313    55450.336    45704.011     9276.149       13.634        5.522      402.485      106.848        0.070      343.600       19.823      852.403
04/13/2013  15:10:00     -430.751     -192.897      -16.074      252.885      223.629      119.942    63950.629    50009.740    14386.153       17.566        6.417      471.970      134.126        0.081      343.558       19.750      852.366
04/13/2013  15:11:00     -177.839     -135.118       42.451      239.320      240.811      133.520    57273.931    57989.815    17827.712        9.237        6.655      223.346      150.657        0.455      343.787       20.143      852.347
04/13/2013  15:12:00     -507.584      -51.579      -20.028      261.051      260.863      119.990    68147.526    68049.425    14397.682       20.562        7.530      510.198      120.970        0.056      343.471       19.604      852.320
04/13/2013  15:13:00     -571.734     -142.116      -12.580      363.486      229.859      135.200   132122.065    52835.332    18279.072       27.520       10.162      589.132      172.327        0.086      343.371       19.432      852.314
04/13/2013  15:14:00     -539.243      -73.597       -8.141      268.184      207.796      108.118    71922.696    43179.090    11689.503       21.151        6.340      544.242      122.757        0.051      343.316       19.340      852.278
04/13/2013  15:15:00     -628.715     -149.716      -27.678      321.891      187.162      132.451   103614.047    35029.535    17543.349       28.730        7.809      646.295      136.328        0.044      343.417       19.510      852.302
04/13/2013  15:16:00     -521.011     -218.143      -23.405      278.842      206.450      115.017    77752.892    42621.586    13228.903       22.657        6.680      564.835      128.639        0.052      343.326       19.355      852.348
04/13/2013  15:17:00     -428.762      -75.665      -16.597      233.035      234.324       95.129    54305.480    54907.606     9049.546       15.403        5.913      435.387       97.685        0.050      343.462       19.586      852.317
04/13/2013  15:18:00     -505.846     -127.203      -25.537      416.530      179.745      107.188   173497.530    32308.122    11489.313       24.497       10.865      521.594      150.320        0.083      343.569       19.770      852.272
04/13/2013  15:19:00     -552.728     -116.073      -10.973      347.870      219.662      147.823   121013.300    48251.610    21851.584       25.508        9.556      564.784      178.990        0.100      343.356       19.407      852.338
04/13/2013  15:20:00     -317.786      -69.603       12.410      276.518      212.958      114.860    76462.412    45350.912    13192.915       12.047        6.750      325.319      124.751        0.147      343.468       19.597      852.298
04/13/2013  15:21:00     -498.875     -244.868      -18.545      375.544      263.410      125.914   141033.027    69384.659    15854.243       26.769       11.314      555.731      155.374        0.078      343.234       19.198      852.294
04/13/2013  15:22:00     -577.088      -14.326      -11.165      378.741      261.716      123.572   143444.864    68495.162    15269.953       28.025       11.360      577.265      159.568        0.076      343.464       19.591      852.337
04/13/2013  15:23:00     -652.488      -67.262      -33.167      249.789      194.496      122.585    62394.391    37828.696    15027.074       27.329        5.763      655.945      133.472        0.041      343.289       19.291      852.302
04/13/2013  15:24:00     -748.331     -140.580      -24.652      304.910      231.841       99.829    92970.105    53750.437     9965.844       36.850        7.834      761.421      114.587        0.023      343.377       19.441      852.276
04/13/2013  15:25:00     -664.169     -137.657      -42.455      266.187      261.982      125.604    70855.692    68634.492    15776.342       30.854        7.763      678.284      117.183        0.030      343.475       19.610      852.285
04/13/2013  15:26:00     -681.316     -130.838      -37.216      272.528      238.672      110.646    74271.343    56964.509    12242.457       31.306        7.174      693.765      119.161        0.030      343.368       19.426      852.286
04/13/2013  15:27:00     -482.798     -134.195      -23.413      181.422      133.521       82.689    32914.036    17827.912     6837.461       15.461        2.879      501.101       94.099        0.035      343.569       19.769      852.264
04/13/2013  15:28:00     -505.854     -159.808      -28.799      290.219      190.627       94.336    84227.000    36338.763     8899.310       20.584        6.473      530.497       92.577        0.030      343.526       19.697      852.234
04/13/2013  15:29:00     -553.221     -142.451       -3.837      279.511      256.773      120.461    78126.315    65932.361    14510.894       24.244        7.928      571.266      131.409        0.053      343.566       19.765      852.251
04/13/2013  15:30:00     -644.165      -82.123      -34.192      265.757      201.750      120.081    70626.713    40703.191    14419.348       27.428        6.287      649.379      134.483        0.043      343.397       19.477      852.271
04/13/2013  15:31:00     -415.922     -169.012       10.105      257.358      192.532      108.462    66233.171    37068.614    11763.902       15.834        5.753      448.950      124.606        0.077      343.664       19.931      852.273
04/13/2013  15:32:00     -641.636     -118.876      -33.901      384.364      215.858      111.315   147736.064    46594.806    12391.012       31.682       10.336      652.555      161.865        0.062      343.545       19.729      852.274
04/13/2013  15:33:00     -869.979     -213.784       -9.947      384.665      248.914      130.894   147966.977    61958.039    17133.255       51.482       11.353      895.861      158.433        0.031      343.276       19.271      852.243
04/13/2013  15:34:00     -611.118     -209.539       -0.268      274.972      248.099      133.060    75609.667    61552.993    17704.964       28.609        7.743      646.043      151.724        0.055      343.248       19.223      852.300
04/13/2013  15:35:00     -298.421     -112.511        7.780      217.556      171.186       88.049    47330.829    29304.636     7752.700        9.307        4.219      318.925       92.376        0.084      343.372       19.434      852.239
04/13/2013  15:36:00     -554.108     -155.338      -20.315      233.738      208.983       95.757    54633.437    43673.983     9169.419       21.951        5.374      575.470      108.783        0.036      343.369       19.428      852.262
04/13/2013  15:37:00     -466.820     -103.558      -14.429      228.776      161.588       91.047    52338.649    26110.605     8289.538       15.778        4.337      478.169       93.760        0.038      343.472       19.604      852.290
04/13/2013  15:38:00     -409.233      -73.643       -5.332      198.151      162.693       98.677    39263.713    26469.106     9737.226       12.418        3.774      415.807      107.594        0.067      343.350       19.397      852.234
04/13/2013  15:39:00     -413.755      -37.042       -3.501      315.250      172.884       99.394    99382.605    29888.793     9879.114       15.584        6.958      415.410      128.534        0.096      343.551       19.739      852.242
04/13/2013  15:40:00     -450.183     -343.570        0.922      324.271      248.275      136.104   105151.999    61640.622    18524.408       25.298        9.266      566.308      166.240        0.086      343.176       19.099      852.139
04/13/2013  15:41:00     -338.612      -40.651      -23.273      185.987      177.112       83.075    34591.237    31368.584     6901.482        9.484        3.643      341.044       81.608        0.057      343.384       19.454      852.204
04/13/2013  15:42:00     -457.372      -35.886       -5.688      200.563      180.148       88.375    40225.667    32453.151     7810.107       14.549        4.024      458.777      100.076        0.048      343.519       19.684      852.229
04/13/2013  15:43:00     -331.361       10.182      -27.362      228.108      175.621       68.295    52033.154    30842.834     4664.181        9.908        4.377      331.517       91.410        0.076      343.559       19.753      852.272
04/13/2013  15:44:00     -290.734     -152.538      -20.410      190.684      235.892       83.453    36360.451    55644.948     6964.367       10.357        4.948      328.321       86.966        0.070      343.672       19.947      852.299
04/13/2013  15:45:00     -354.112     -223.559        7.083      281.255      174.001      114.180    79104.637    30276.233    13036.969       14.890        6.121      418.776      140.122        0.112      343.483       19.623      852.255
04/13/2013  15:46:00     -639.558     -329.204      -11.705      360.986      302.997      137.447   130310.567    91807.237    18891.661       37.924       12.050      719.312      167.865        0.054      343.320       19.345      852.286
04/13/2013  15:47:00     -333.388      -74.624       19.012      310.330      225.129      118.411    96304.402    50683.048    14021.100       13.902        8.050      341.637      148.548        0.189      343.467       19.596      852.263
04/13/2013  15:48:00     -278.093       -5.403       11.167      298.084      183.908      116.741    88853.801    33822.234    13628.412       10.687        6.815      278.145      124.352        0.200      343.501       19.654      852.269
04/13/2013  15:49:00     -420.896     -167.720        7.015      269.433      282.965      109.891    72594.299    80068.923    12076.122       18.501        8.237      453.082      132.859        0.086      343.404       19.489      852.243
04/13/2013  15:50:00     -578.241     -148.688      -25.768      289.394      220.274      118.906    83749.049    48520.485    14138.735       25.175        7.320      597.052      126.107        0.045      343.341       19.381      852.220
04/13/2013  15:51:00     -502.162      -26.786       -1.283      260.121      196.563      110.656    67662.767    38637.053    12244.740       18.570        5.927      502.876      122.438        0.059      343.488       19.631      852.302
04/13/2013  15:52:00     -318.809      -42.723       10.422      257.790      176.948       96.880    66455.924    31310.761     9385.677       10.534        5.358      321.659      114.786        0.127      343.510       19.669      852.332
04/13/2013  15:53:00     -236.834     -112.591       -1.154      169.833      151.401       98.977    28843.177    22922.147     9796.384        6.515        3.078      262.234       93.546        0.127      343.494       19.644      852.291
04/13/2013  15:54:00     -604.305     -186.637       -6.377      300.650      178.345      106.456    90390.366    31806.772    11332.879       26.677        6.677      632.470      132.832        0.044      343.330       19.362      852.250
04/13/2013  15:55:00     -474.044     -308.631        0.636      227.945      203.715      111.703    51958.862    41499.986    12477.509       21.294        5.297      565.660      128.397        0.052      343.430       19.532      852.244
04/13/2013  15:56:00     -374.086     -264.995      -12.132      275.635      207.142       95.630    75974.635    42907.716     9145.149       16.915        6.401      458.435       94.540        0.043      343.365       19.421      852.201
04/13/2013  15:57:00     -231.029     -167.926       -1.752      157.562      171.269       72.014    24825.667    29333.147     5186.061        7.045        2.967      285.611       82.801        0.084      343.611       19.843      852.183
04/13/2013  15:58:00     -187.499     -153.849       -2.415      138.823      136.740       79.594    19271.932    18697.821     6335.144        5.156        2.215      242.540       82.566        0.116      343.705       20.003      852.171
04/13/2013  15:59:00     -397.183     -281.513        5.670      259.124      216.379      126.756    67145.154    46819.803    16067.179       18.351        6.502      486.831      126.208        0.067      343.434       19.540      852.130
04/13/2013  16:00:00     -267.666     -251.510        7.326      214.273      174.892      100.435    45913.074    30587.358    10087.211       11.076        4.329      367.291      110.843        0.091      343.453       19.573      852.138
04/13/2013  16:01:00     -551.293     -316.258      -19.322      281.504      249.285      122.763    79244.643    62142.789    15070.836       28.036        7.823      635.565      130.656        0.042      343.307       19.323      852.115
04/13/2013  16:02:00     -421.832     -214.189       -4.686      266.088      187.250      114.196    70802.696    35062.678    13040.755       17.135        5.945      473.095      125.517        0.070      343.295       19.302      852.162
04/13/2013  16:03:00     -458.067     -113.914      -11.118      237.180      173.605       95.489    56254.539    30138.858     9118.181       15.920        4.776      472.019      114.221        0.059      343.301       19.314      852.129
04/13/2013  16:04:00     -342.206     -185.460      -11.154      261.975      179.307       92.103    68630.916    32151.006     8482.934       13.043        5.463      389.230      111.313        0.082      343.432       19.535      852.169
04/13/2013  16:05:00     -433.822     -186.462      -25.515      303.360      233.959      116.959    92027.347    54736.889    13679.375       19.201        8.022      472.196      133.353        0.080      343.313       19.334      852.199
04/13/2013  16:06:00     -665.206     -324.427      -16.144      341.721      217.293      125.549   116773.253    47216.222    15762.617       36.385        8.988      740.103      151.530        0.042      343.032       18.853      852.110
04/13/2013  16:07:00     -353.417     -113.256      -30.998      242.006      202.522       98.032    58566.758    41015.216     9610.339       12.392        5.460      371.121      122.837        0.110      343.320       19.345      852.116
04/13/2013  16:08:00     -429.088     -124.306      -13.525      277.411      189.413       97.264    76956.734    35877.272     9460.319       16.100        6.115      446.731      104.617        0.055      343.228       19.187      852.154
04/13/2013  16:09:00     -317.807      -95.173        1.386      174.969      130.171       77.530    30614.308    16944.593     6010.887        8.181        2.678      331.752       84.217        0.064      343.291       19.296      852.182
04/13/2013  16:10:00     -322.801     -209.828       -6.982      168.670      171.024       78.648    28449.497    29249.350     6185.437       10.607        3.194      385.004       84.859        0.049      343.275       19.268      852.247
04/13/2013  16:11:00     -441.618     -201.368      -21.473      217.724      199.052       91.534    47403.535    39621.677     8378.405       16.570        4.770      485.361       95.146        0.038      343.108       18.985      852.248
04/13/2013  16:12:00     -173.246     -127.970       16.292      145.596      105.611       75.316    21198.317    11153.716     5672.546        4.233        1.901      215.384       82.705        0.147      343.515       19.678      852.298
04/13/2013  16:13:00     -237.609     -123.760       -7.412      168.122      178.127       74.286    28265.173    31729.148     5518.403        6.866        3.276      267.907       84.695        0.100      343.373       19.436      852.325
04/13/2013  16:14:00     -201.932       -2.280       -0.931      143.959       99.707       71.182    20724.312     9941.565     5066.865        3.825        1.787      201.945       64.233        0.101      343.635       19.882      852.291
04/13/2013  16:15:00     -357.495     -120.057        1.507      174.018      129.980       77.750    30282.367    16894.915     6045.040        9.771        2.661      377.116       76.772        0.041      343.686       19.969      852.319
04/13/2013  16:16:00     -237.992        3.346       -8.118      156.349      140.342       83.237    24444.998    19695.781     6928.457        5.388        2.553      238.015       66.338        0.078      343.726       20.039      852.355
04/13/2013  16:17:00     -390.583      -29.053      -12.808      254.023      154.842       84.518    64527.862    23975.964     7143.281       12.459        4.782      391.662      101.407        0.067      343.551       19.739      852.409
04/13/2013  16:18:00     -288.890        7.601        0.676      202.284      167.338       85.897    40918.635    28001.976     7378.297        7.989        3.815      288.990       81.973        0.080      343.634       19.881      852.394
04/13/2013  16:19:00     -174.772      -10.456        5.012      197.785      141.186       76.277    39118.886    19933.419     5818.171        4.776        3.244      175.085       89.061        0.259      343.550       19.738      852.374
04/13/2013  16:20:00     -602.106        7.167      -41.953      182.121      182.992       79.680    33167.965    33485.961     6348.979       21.866        3.650      602.149       84.329        0.020      343.220       19.174      852.379
04/13/2013  16:21:00     -188.003     -178.391        9.935      183.808      235.776       98.285    33785.272    55590.353     9659.879        8.313        4.952      259.169      104.077        0.161      343.367       19.425      852.365
04/13/2013  16:22:00     -409.419      -51.106      -20.321      234.166      172.344      101.113    54833.875    29702.412    10223.847       13.269        4.738      412.596      123.952        0.090      343.339       19.378      852.393
04/13/2013  16:23:00     -569.129       40.727      -30.440      241.192      219.616      110.690    58173.488    48231.190    12252.181       22.255        5.933      570.584      121.905        0.046      343.329       19.361      852.394
04/13/2013  16:24:00     -538.708      -67.997      -58.642      243.132      208.171       88.389    59113.237    43335.307     7812.643       20.425        5.513      542.983       96.664        0.032      343.300       19.310      852.357
04/13/2013  16:25:00     -568.124     -164.503      -26.673      280.914      170.785       97.674    78912.448    29167.496     9540.291       23.406        5.881      591.461      108.371        0.034      343.156       19.065      852.340
04/13/2013  16:26:00     -354.415     -157.669       10.250      302.479      276.874      115.191    91493.544    76659.232    13268.878       16.597        9.071      387.904      141.635        0.133      343.071       18.921      852.340
04/13/2013  16:27:00     -581.471     -177.478      -19.879      211.475      192.341      106.552    44721.556    36995.090    11353.405       23.152        4.654      607.953      111.598        0.034      343.157       19.068      852.369
04/13/2013  16:28:00     -363.690     -135.820       -5.772      214.633      128.352       84.047    46067.310    16474.192     7063.895       11.017        3.480      388.224      111.754        0.083      343.258       19.239      852.428
04/13/2013  16:29:00     -228.323      -71.461        3.514      180.373      114.629       73.255    32534.520    13139.795     5366.362        5.414        2.552      239.244       62.178        0.068      343.450       19.569      852.481
04/13/2013  16:30:00     -226.616      -95.390       -7.787      208.273      178.976       74.776    43377.644    32032.276     5591.518        7.074        4.050      245.874       55.141        0.050      343.570       19.772      852.578
04/13/2013  16:31:00     -343.138     -220.861       16.938      260.526      167.750      114.496    67873.802    28139.977    13109.270       13.795        5.456      408.073      125.372        0.094      343.171       19.091      852.544
04/13/2013  16:32:00     -328.550     -153.353       -5.557      282.532      242.888      109.499    79824.364    58994.593    11990.108       14.113        7.540      362.577      139.692        0.148      343.171       19.092      852.554
04/13/2013  16:33:00     -512.739     -121.212      -19.392      251.119      207.981      105.973    63060.806    43256.142    11230.353       19.774        5.877      526.871      118.869        0.051      343.235       19.200      852.552
04/13/2013  16:34:00     -486.969      -64.962      -41.158      278.544      115.627       83.951    77586.487    13369.516     7047.777       17.051        4.900      491.283      117.040        0.057      343.167       19.085      852.495
04/13/2013  16:35:00     -443.680     -106.965       -7.225      229.245      209.107      104.362    52553.334    43725.623    10891.334       15.774        5.359      456.392      110.561        0.059      343.301       19.313      852.476
04/13/2013  16:36:00     -676.251     -177.652      -16.917      309.436      251.953      118.094    95750.528    63480.199    13946.178       33.114        8.659      699.196      132.875        0.036      343.124       19.010      852.477
04/13/2013  16:37:00     -392.143     -133.801      -12.325      193.533      204.567       88.622    37455.094    41847.753     7853.920       12.948        4.358      414.342       75.229        0.033      343.257       19.239      852.471
04/13/2013  16:38:00     -221.382        8.640       -7.188      165.825      104.262       76.558    27498.030    10870.666     5861.069        4.668        2.211      221.550       87.672        0.157      343.319       19.344      852.424
04/13/2013  16:39:00     -706.562      -83.928      -30.475      240.874      185.076      102.683    58020.140    34253.147    10543.777       30.499        5.141      711.529      106.047        0.022      343.007       18.811      852.362
04/13/2013  16:40:00     -561.751     -190.119      -30.040      275.156      160.709      109.240    75711.061    25827.531    11933.402       23.302        5.674      593.051      123.071        0.043      343.108       18.984      852.335
04/13/2013  16:41:00     -615.379     -102.834      -21.040      236.734      228.329       98.277    56043.100    52134.100     9658.418       25.375        5.892      623.912       96.502        0.024      343.143       19.044      852.344
04/13/2013  16:42:00     -504.498     -147.405       -8.028      263.510      185.238      104.460    69437.365    34313.190    10911.804       19.547        5.733      525.592      125.166        0.057      343.116       18.996      852.300
04/13/2013  16:43:00     -150.525     -172.806        4.882      128.360      154.203       73.410    16476.223    23778.477     5389.046        4.909        2.282      229.172       64.675        0.080      343.396       19.475      852.305
04/13/2013  16:44:00     -459.671     -141.580      -14.044      260.854      205.795      115.970    68044.830    42351.631    13449.153       17.767        6.192      480.980      120.768        0.063      343.270       19.260      852.307
04/13/2013  16:45:00     -429.773     -132.238      -18.381      213.792      236.352      103.592    45707.031    55862.260    10731.267       15.740        5.615      449.657      119.860        0.071      343.024       18.838      852.316
04/13/2013  16:46:00     -191.596      -75.637       11.819      183.711      174.423       80.088    33749.680    30423.304     6414.043        5.657        3.529      205.985       73.303        0.127      343.229       19.190      852.277
04/13/2013  16:47:00     -193.929     -145.326       10.688      167.902      190.019       99.317    28190.931    36107.308     9863.965        6.649        3.708      242.339      102.120        0.178      343.208       19.154      852.236
04/13/2013  16:48:00     -443.560     -331.434      -27.795      248.305      173.199       96.520    61655.531    29997.927     9316.022       20.415        5.048      553.709      110.743        0.040      343.113       18.994      852.269
04/13/2013  16:49:00     -378.527     -201.000      -25.866      283.165      200.352      119.818    80182.276    40140.994    14356.418       15.949        6.734      428.583      131.189        0.094      343.046       18.879      852.263
04/13/2013  16:50:00     -393.957     -136.399        1.364      222.523      166.579      100.691    49516.406    27748.676    10138.700       13.059        4.370      416.901      104.726        0.063      343.089       18.952      852.270
04/13/2013  16:51:00     -353.848     -113.419      -10.206      169.905      152.436       88.608    28867.826    23236.707     7851.446        9.906        2.998      371.581       83.931        0.051      343.244       19.216      852.290
04/13/2013  16:52:00     -422.090     -347.148        8.928      336.925      273.878      143.684   113518.438    75009.358    20644.982       25.393       10.459      546.508      178.479        0.107      343.053       18.889      852.331
04/13/2013  16:53:00     -494.203     -282.992      -10.921      270.224      179.150       99.848    73021.121    32094.881     9969.569       21.974        5.754      569.492       94.909        0.028      342.967       18.743      852.329
04/13/2013  16:54:00     -392.561      -26.662      -16.031      214.165      165.250       92.832    45866.698    27307.634     8617.858       11.842        4.090      393.465       92.937        0.056      343.042       18.872      852.325
04/13/2013  16:55:00     -141.036     -130.509       29.218      182.601      151.883       79.067    33343.201    23068.392     6251.578        5.021        3.133      192.156       97.518        0.258      343.223       19.180      852.347
04/13/2013  16:56:00     -602.100      -38.999      -47.724      226.854      155.219      106.914    51462.850    24092.823    11430.684       22.664        4.349      603.362      113.702        0.036      343.100       18.971      852.351
04/13/2013  16:57:00     -534.910     -236.662       -9.885      253.972      252.439      100.899    64501.546    63725.244    10180.510       24.030        6.920      584.926      113.471        0.038      343.095       18.962      852.355
04/13/2013  16:58:00     -405.677     -268.043       -8.702      265.301      188.285      110.937    70384.695    35451.295    12307.042       17.730        5.907      486.231      127.846        0.069      342.943       18.703      852.339
04/13/2013  16:59:00     -121.135      -31.839       28.464      179.978      121.784      103.480    32392.124    14831.351    10708.155        3.720        2.897      125.249      108.025        0.744      343.249       19.225      852.342
04/13/2013  17:00:00     -620.721     -202.414       -8.753      278.639      200.565      116.838    77639.797    40226.430    13651.012       27.891        6.576      652.891      131.849        0.041      343.111       18.988      852.391
04/13/2013  17:01:00     -512.697     -218.332      -16.408      248.161      231.498      122.895    61584.041    53591.130    15103.228       22.052        6.514      557.249      126.441        0.051      342.884       18.603      852.429
04/13/2013  17:02:00     -327.759     -224.647       -8.850      215.424      199.487      105.445    46407.435    39794.983    11118.743       12.763        4.866      397.357      108.747        0.075      342.992       18.788      852.451
04/13/2013  17:03:00     -465.625     -248.487      -12.287      300.585      195.409      113.725    90351.118    38184.680    12933.464       21.006        7.073      527.781      146.007        0.077      342.991       18.786      852.427
04/13/2013  17:04:00     -489.083      -98.312       -6.112      320.482      253.663      122.898   102708.668    64344.822    15104.002       21.550        9.108      498.866      136.396        0.075      343.067       18.913      852.434
04/13/2013  17:05:00     -528.069     -295.322      -10.914      294.861      185.146      125.500    86943.211    34279.007    15750.369       25.156        6.849      605.039      127.342        0.044      342.843       18.532      852.453
04/13/2013  17:06:00     -310.354      -99.423      -11.411      164.428      120.934       79.666    27036.486    14625.007     6346.733        7.716        2.400      325.890       88.012        0.073      343.056       18.897      852.448
04/13/2013  17:07:00     -285.035      -42.587      -15.229      185.134      145.957       75.513    34274.586    21303.518     5702.192        7.228        3.064      288.199       68.543        0.057      343.117       19.001      852.444
04/13/2013  17:08:00     -253.494     -137.441        8.733      173.709      171.889       89.984    30174.911    29545.848     8097.081        7.551        3.391      288.356       96.866        0.113      343.206       19.151      852.464
04/13/2013  17:09:00     -495.686     -104.676      -29.202      282.497      216.981      128.731    79804.282    47080.856    16571.574       20.046        7.173      506.618      122.890        0.059      342.962       18.734      852.474
04/13/2013  17:10:00     -502.096     -170.272       -0.623      279.954      184.146       93.885    78374.406    33909.880     8814.450       20.108        6.055      530.182      113.409        0.046      342.882       18.599      852.495
04/13/2013  17:11:00     -500.029      -62.766      -13.588      224.829      177.475       86.257    50548.239    31497.240     7440.235       17.180        4.474      503.953       89.424        0.031      342.799       18.458      852.501
04/13/2013  17:12:00     -354.703      -98.192        4.460      308.382      195.616       90.489    95099.424    38265.662     8188.207       13.849        7.078      368.043      104.302        0.080      342.950       18.715      852.493
04/13/2013  17:13:00     -438.390     -135.947       -8.570      221.279      171.381       89.571    48964.314    29371.566     8022.952       14.854        4.318      458.985      101.115        0.049      342.891       18.615      852.523
04/13/2013  17:14:00     -447.703     -198.293      -27.874      214.962      178.145      105.951    46208.448    31735.486    11225.583       16.484        4.458      489.651       88.828        0.033      342.913       18.653      852.533
04/13/2013  17:15:00     -289.370     -136.273       -3.505      211.781      176.925       85.611    44851.318    31302.604     7329.296        9.289        4.174      319.852      108.266        0.115      343.075       18.928      852.584
04/13/2013  17:16:00     -325.718     -208.924       -3.849      188.536      170.064       83.937    35545.664    28921.828     7045.341       11.062        3.576      386.965       96.723        0.062      342.973       18.754      852.616
04/13/2013  17:17:00     -349.535     -134.035      -22.259      206.246      264.075      126.918    42537.611    69735.770    16108.187       13.449        6.419      374.353       87.574        0.055      342.892       18.617      852.538
04/13/2013  17:18:00     -379.470       26.574      -28.134      238.683      168.162       80.864    56969.758    28278.483     6539.051       11.863        4.589      380.399       91.740        0.058      343.038       18.865      852.614
04/13/2013  17:19:00     -194.803      -50.454        1.649      131.649      146.336       78.086    17331.552    21414.347     6097.493        4.266        2.242      201.230       71.396        0.126      343.089       18.952      852.604
04/13/2013  17:20:00     -443.327     -130.801      -22.722      182.705      163.856       80.800    33381.063    26848.808     6528.594       14.045        3.338      462.220       71.332        0.024      343.013       18.823      852.657
04/13/2013  17:21:00     -376.091     -195.804      -14.885      242.265      177.091      111.636    58692.389    31361.151    12462.613       14.124        5.126      424.009      125.303        0.087      342.853       18.550      852.667
04/13/2013  17:22:00     -358.207     -157.685      -14.422      199.854      140.667       86.204    39941.570    19787.245     7431.126       11.026        3.358      391.378       87.703        0.050      342.880       18.597      852.654
04/13/2013  17:23:00     -480.077      -31.920      -10.035      223.845      203.909      104.528    50106.526    41579.073    10926.020       16.709        5.131      481.137       84.769        0.031      342.852       18.548      852.671
04/13/2013  17:24:00     -769.364      -93.015      -47.070      283.729      187.222      112.570    80502.415    35052.151    12672.099       36.549        6.411      774.967      129.945        0.028      342.707       18.303      852.684
04/13/2013  17:25:00     -634.758       -7.509      -59.554      236.324      207.747       97.317    55849.161    43158.726     9470.570       25.748        5.424      634.802      101.474        0.026      342.754       18.382      852.655
04/13/2013  17:26:00     -400.668     -100.100      -17.253      223.294      195.075      103.738    49860.040    38054.370    10761.526       13.475        4.934      412.983      119.300        0.083      342.929       18.680      852.704
04/13/2013  17:27:00     -238.254      -79.176       -0.506      201.330      141.728       80.649    40533.681    20086.902     6504.298        6.507        3.356      251.065       86.962        0.120      342.941       18.702      852.687
04/13/2013  17:28:00     -375.537      -80.840        2.615      202.182      159.518       78.513    40877.492    25445.893     6164.335       11.002        3.624      384.140       91.925        0.057      342.949       18.714      852.682
04/13/2013  17:29:00     -534.176      -13.433      -46.352      289.092      208.106      109.710    83574.380    43308.092    12036.368       21.327        6.946      534.345      123.575        0.053      342.839       18.527      852.674
04/13/2013  17:30:00     -545.376     -139.091      -44.519      206.809      205.286       91.134    42770.044    42142.326     8305.447       20.597        4.661      562.833       91.972        0.027      342.747       18.370      852.714
04/13/2013  17:31:00     -309.121       17.274        6.163      189.890      143.389       81.434    36058.345    20560.343     6631.545        7.956        3.163      309.603       82.249        0.071      342.940       18.699      852.712
04/13/2013  17:32:00     -469.059     -114.339      -26.113      200.864      171.436       93.262    40346.509    29390.293     8697.792       15.609        3.922      482.794       74.727        0.024      342.784       18.432      852.730
04/13/2013  17:33:00     -512.066      -98.452      -47.743      175.903      163.378       90.514    30942.010    26692.315     8192.831       16.999        3.291      521.445       80.790        0.024      342.793       18.448      852.733
04/13/2013  17:34:00     -477.359     -153.418       -2.098      228.047      145.897       88.789    52005.306    21285.958     7883.485       16.628        4.059      501.407       96.851        0.037      342.748       18.371      852.726
04/13/2013  17:35:00     -384.618      -36.529      -23.793      155.584      125.111       64.987    24206.266    15652.654     4223.363        9.695        2.204      386.349       71.770        0.035      342.807       18.472      852.761
04/13/2013  17:36:00     -611.184      -80.030      -45.659      259.550      164.358       92.681    67366.263    27013.708     8589.695       24.249        5.148      616.402      125.895        0.042      342.712       18.311      852.756
04/13/2013  17:37:00     -397.506      -26.493      -18.401      282.084      198.881       98.650    79571.534    39553.568     9731.854       14.393        6.443      398.387      101.124        0.064      342.804       18.467      852.748
04/13/2013  17:38:00     -551.471      -90.410      -25.890      258.232      195.950       96.524    66683.996    38396.445     9316.956       21.366        5.720      558.833      116.410        0.043      342.668       18.235      852.714
04/13/2013  17:39:00     -286.241     -123.394       25.157      223.608      196.631      103.064    50000.451    38663.644    10622.233        9.852        4.964      311.705      107.798        0.120      342.833       18.517      852.775
04/13/2013  17:40:00     -200.519     -192.058        5.481      253.469      175.662      109.227    64246.696    30857.196    11930.457        9.206        5.352      277.658      121.308        0.191      342.715       18.316      852.761
04/13/2013  17:41:00     -130.090     -141.128       18.569      252.982      170.799      131.617    63999.686    29172.448    17322.971        7.382        5.525      191.939      135.694        0.500      342.806       18.473      852.749
04/13/2013  17:42:00     -641.861     -171.935      -15.005      315.316      208.128      123.411    99423.902    43317.259    15230.226       29.985        7.899      664.490      154.710        0.054      342.616       18.147      852.736
04/13/2013  17:43:00     -403.320     -124.575       -5.212      233.449      160.360      103.669    54498.552    25715.240    10747.264       13.457        4.548      422.121      115.581        0.075      342.653       18.209      852.742
04/13/2013  17:44:00     -382.738     -181.065      -11.816      230.619      166.625       96.170    53184.964    27763.810     9248.625       13.479        4.510      423.407      104.698        0.061      342.690       18.274      852.736
04/13/2013  17:45:00     -422.303      -42.957       -9.043      237.303      151.855       94.062    56312.553    23059.992     8847.732       13.423        4.411      424.482      101.574        0.057      342.682       18.258      852.733
04/13/2013  17:46:00     -420.571      -20.007      -29.210      311.294      161.432       96.826    96903.731    26060.370     9375.223       15.521        6.617      421.046      130.219        0.096      342.677       18.250      852.731
04/13/2013  17:47:00     -271.941      -72.584        4.642      174.995      161.634       86.097    30623.402    26125.539     7412.641        7.169        3.208      281.461       82.530        0.086      342.805       18.469      852.729
04/13/2013  17:48:00     -472.951      -94.733      -13.305      304.615      151.381       78.689    92790.100    22916.100     6191.966       17.735        6.095      482.345       93.903        0.038      342.755       18.384      852.753
04/13/2013  17:49:00     -582.555     -105.659       -2.116      345.037      204.313      122.369   119050.618    41743.990    14974.130       26.312        8.788      592.059      149.768        0.064      342.526       17.993      852.757
04/13/2013  17:50:00     -493.591      -59.087      -18.374      261.749      211.669      102.648    68512.475    44803.665    10536.537       18.564        6.193      497.115      129.643        0.068      342.569       18.068      852.705
04/13/2013  17:51:00     -417.769      -40.288      -27.299      154.119      145.366       78.944    23752.538    21131.308     6232.199       11.400        2.556      419.707       73.177        0.030      342.613       18.141      852.729
04/13/2013  17:52:00     -545.839     -201.237      -11.233      276.452      251.013      104.289    76425.789    63007.276    10876.195       24.441        7.515      581.753       79.636        0.019      342.618       18.149      852.728
04/13/2013  17:53:00     -471.793     -107.557      -29.623      212.303      209.982      107.672    45072.634    44092.576    11593.338       16.788        5.038      483.897      106.612        0.049      342.568       18.064      852.717
04/13/2013  17:54:00     -635.673     -141.994      -25.280      265.301      211.599      113.438    70384.806    44774.127    12868.186       27.643        6.401      651.339      125.423        0.037      342.573       18.074      852.739
04/13/2013  17:55:00     -507.956     -170.093      -14.258      306.249      177.660      106.378    93788.393    31562.964    11316.377       21.189        6.833      535.678      136.053        0.065      342.533       18.006      852.786
04/13/2013  17:56:00     -367.375     -112.524       -2.253      170.960      147.064       80.209    29227.380    21627.691     6433.549       10.245        2.864      384.221       82.849        0.046      342.601       18.123      852.838
04/13/2013  17:57:00     -270.922      -26.986       -2.273      181.138      157.355       98.079    32811.001    24760.520     9619.398        7.065        3.360      272.263       92.222        0.115      342.506       17.960      852.820
04/13/2013  17:58:00     -435.758     -134.067      -15.859      218.200      183.886       96.752    47611.403    33813.879     9360.975       14.943        4.539      455.916       96.912        0.045      342.493       17.939      852.819
04/13/2013  17:59:00     -379.949     -152.013      -11.507      227.846      188.178       99.871    51913.677    35411.077     9974.298       13.243        4.865      409.230      100.791        0.061      342.500       17.949      852.817
04/13/2013  18:00:00     -434.763     -203.188       -5.998      290.500      204.691      104.132    84390.410    41898.538    10843.470       18.371        6.857      479.900      120.700        0.063      342.492       17.937      852.818
04/13/2013  18:01:00     -376.873       -2.747       11.616      195.197      210.627       95.286    38101.680    44363.839     9079.481       11.685        4.577      376.883       85.602        0.052      342.554       18.041      852.872
04/13/2013  18:02:00     -571.012      -67.812      -20.455      278.842      200.270      112.700    77752.824    40107.996    12701.314       23.080        6.528      575.025      114.532        0.040      342.477       17.911      852.878
04/13/2013  18:03:00     -383.729     -154.945       -2.806      238.059      183.956      106.615    56671.858    33839.865    11366.770       13.655        5.094      413.831      114.333        0.076      342.497       17.946      852.856
04/13/2013  18:04:00     -241.294      -69.168      -19.705      188.097      137.996       76.862    35380.384    19042.878     5907.716        6.185        3.017      251.012       95.281        0.144      342.598       18.116      852.902
04/13/2013  18:05:00     -559.679      -65.696      -31.473      261.869      254.978       94.288    68575.414    65013.898     8890.302       23.049        7.124      563.522      112.822        0.040      342.428       17.827      852.888
04/13/2013  18:06:00     -481.582     -120.305      -22.470      193.860      158.788       86.195    37581.596    25213.601     7429.642       15.855        3.511      496.382      102.155        0.042      342.405       17.789      852.908
04/13/2013  18:07:00     -316.399      -21.601      -11.528      143.353       99.865       73.912    20549.984     9973.032     5462.926        6.834        1.799      317.136       61.322        0.037      342.452       17.868      852.924
04/13/2013  18:08:00     -256.307     -215.268       11.168      247.841      174.859       97.779    61425.307    30575.629     9560.732       10.684        5.078      334.714      122.212        0.133      342.454       17.873      852.948
04/13/2013  18:09:00     -548.218     -258.651       -8.722      212.534      180.052      104.210    45170.512    32418.610    10859.666       22.797        4.422      606.171      112.602        0.035      342.309       17.626      852.918
04/13/2013  18:10:00     -303.408     -179.410       -0.579      205.847      224.936      110.801    42373.037    50595.996    12276.776       11.473        5.262      352.483      121.737        0.119      342.390       17.762      852.880
04/13/2013  18:11:00     -486.938      -73.329      -16.329      236.975      175.667       88.849    56156.921    30858.967     7894.177       16.882        4.746      492.429       86.459        0.031      342.396       17.773      852.978
04/13/2013  18:12:00     -481.666      -51.769      -33.149      276.496      169.880       93.945    76450.123    28859.084     8825.672       17.494        5.707      484.441      122.984        0.064      342.346       17.688      852.943
04/13/2013  18:13:00     -721.018     -149.542      -52.740      290.793      221.927      110.468    84560.458    49251.483    12203.272       34.549        7.301      736.363       96.542        0.017      342.260       17.541      852.881
04/13/2013  18:14:00     -611.098      -81.066      -30.276      252.339      192.219      107.445    63675.016    36948.067    11544.506       24.653        5.608      616.451      132.169        0.046      342.283       17.581      852.880
04/13/2013  18:15:00     -558.733       -2.861      -50.586      143.379      160.711       77.921    20557.598    25828.006     6071.606       18.359        2.623      558.740       63.197        0.013      342.292       17.597      852.946
04/13/2013  18:16:00     -361.145      -44.364        2.996      150.614      120.452       81.764    22684.674    14508.705     6685.398        8.813        2.194      363.859       88.121        0.059      342.351       17.697      852.976
04/13/2013  18:17:00     -365.213       15.338      -24.589      140.288      103.278       64.406    19680.626    10666.355     4148.071        8.435        1.725      365.535       68.113        0.035      342.410       17.798      852.995
04/13/2013  18:18:00     -460.302      -26.917      -34.022      176.648      196.354       86.448    31204.387    38554.920     7473.301       14.548        3.862      461.088       89.917        0.038      342.303       17.614      852.986
04/13/2013  18:19:00     -299.771     -171.642      -11.436      197.330      167.292      103.338    38939.003    27986.579    10678.660        9.852        3.880      345.432       96.283        0.078      342.352       17.698      853.009
04/13/2013  18:20:00     -350.999      -78.110       -3.434      214.362      135.713       89.722    45951.092    18418.004     8049.995       10.085        3.621      359.586      105.911        0.087      342.285       17.584      853.031
04/13/2013  18:21:00     -491.554      -15.853      -44.144      169.763      155.864       72.336    28819.518    24293.705     5232.554       15.108        2.917      491.809       80.899        0.027      342.256       17.536      853.032
04/13/2013  18:22:00     -317.331      -68.642      -12.441      141.850      133.282       66.086    20121.492    17763.975     4367.334        7.390        2.113      324.670       67.287        0.043      342.277       17.570      853.038
04/13/2013  18:23:00     -283.803      -39.912      -16.812      221.386       86.088       73.642    49011.697     7411.092     5423.079        7.212        3.092      286.596      106.708        0.139      342.325       17.654      853.037
04/13/2013  18:24:00     -346.282     -112.687       -6.552      181.559      147.425       80.465    32963.690    21734.165     6474.655        9.690        3.059      364.156       95.204        0.068      342.280       17.577      853.037
04/13/2013  18:25:00     -384.286     -112.065       -9.210      189.509      147.683       86.973    35913.731    21810.181     7564.318       11.279        3.264      400.293       98.617        0.061      342.252       17.529      853.055
04/13/2013  18:26:00     -407.782     -116.592       -9.191      197.277      180.211       90.114    38918.218    32475.827     8120.453       12.973        3.976      424.122       81.144        0.037      342.178       17.402      853.064
04/13/2013  18:27:00     -393.865      -22.083      -26.215      216.435      162.804       86.393    46844.210    26505.160     7463.794       11.855        4.041      394.483       96.708        0.060      342.150       17.354      853.060
04/13/2013  18:28:00     -366.742      -88.189       -1.658      220.710      160.850       91.465    48712.754    25872.805     8365.825       11.260        4.148      377.196      101.732        0.073      342.200       17.440      853.097
04/13/2013  18:29:00     -441.329     -107.706      -14.977      270.334      174.862       92.228    73080.419    30576.633     8505.995       15.936        5.608      454.282       96.619        0.045      342.117       17.300      853.107
04/13/2013  18:30:00     -460.678     -207.814      -22.126      225.735      207.435       91.523    50956.409    43029.231     8376.385       17.911        5.118      505.382      107.453        0.045      342.105       17.277      853.129
04/13/2013  18:31:00     -313.165     -116.932      -25.541      171.733      140.631       67.264    29492.372    19777.028     4524.415        8.309        2.690      334.283       77.857        0.054      342.189       17.422      853.172
04/13/2013  18:32:00     -313.561      -40.991      -11.049      209.409      153.691       63.257    43852.289    23620.987     4001.441        8.579        3.574      316.229       79.989        0.064      342.189       17.422      853.201
04/13/2013  18:33:00     -526.887     -132.689      -28.694      322.472      197.614      113.822   103987.973    39051.389    12955.403       22.599        7.800      543.339      141.227        0.068      342.065       17.210      853.195
04/13/2013  18:34:00     -411.205      -36.827      -19.446      199.807      171.282       89.371    39922.873    29337.626     7987.162       12.402        3.862      412.851       74.658        0.033      342.069       17.217      853.209
04/13/2013  18:35:00     -371.903      -83.875       -3.598      187.630      164.019       76.958    35205.062    26902.341     5922.572       10.668        3.401      381.243       83.090        0.048      342.017       17.130      853.268
04/13/2013  18:36:00     -436.332     -114.615       -6.848      239.927      173.345      109.430    57565.124    30048.448    11974.916       15.156        4.979      451.134      116.104        0.066      341.991       17.084      853.256
04/13/2013  18:37:00      -86.320      -47.492        3.128      132.174      127.666       76.131    17469.844    16298.483     5796.000        2.463        1.978       98.522       82.063        0.694      342.063       17.210      853.274
04/13/2013  18:38:00     -322.148      -12.126        3.941      253.527      126.402       76.143    64275.734    15977.354     5797.811        9.498        4.303      322.376      113.139        0.123      342.060       17.203      853.299
04/13/2013  18:39:00     -467.444      -47.202      -32.654      164.513      127.444       82.610    27064.407    16241.943     6824.483       13.596        2.507      469.821       85.369        0.033      342.045       17.176      853.286
04/13/2013  18:40:00     -237.940      -40.819       20.872      192.124      155.401       80.023    36911.551    24149.538     6403.661        6.308        3.373      241.416       80.200        0.110      342.049       17.184      853.304
04/13/2013  18:41:00     -314.702      -73.894       -2.309      189.787      140.622       75.594    36019.196    19774.632     5714.428        8.300        3.075      323.261       88.188        0.074      342.021       17.137      853.310
04/13/2013  18:42:00     -585.878      -67.328      -36.745      278.526      163.164       90.316    77576.889    26622.643     8156.992       23.073        5.618      589.734      102.799        0.030      341.942       17.000      853.321
04/13/2013  18:43:00     -584.433       11.228      -39.232      239.457      185.633       99.901    57339.883    34459.606     9980.151       22.249        5.089      584.541      105.324        0.032      341.894       16.920      853.305
04/13/2013  18:44:00     -354.549      -62.326       -5.714      187.935      143.583       72.839    35319.507    20616.160     5305.467        9.542        3.062      359.986       82.116        0.052      341.939       16.998      853.334
04/13/2013  18:45:00     -317.687      -46.806      -14.294      124.429      105.989       62.922    15482.679    11233.756     3959.211        6.699        1.534      321.117       61.276        0.036      341.949       17.013      853.349
04/13/2013  18:46:00     -322.241      -85.946      -33.374      129.931      103.292       65.898    16882.066    10669.294     4342.562        7.211        1.595      333.506       56.257        0.028      341.968       17.046      853.346
04/13/2013  18:47:00     -369.805     -130.418      -17.997      217.920      169.126       65.009    47489.176    28603.625     4226.158       11.719        4.016      392.129       94.259        0.058      341.970       17.050      853.345
04/13/2013  18:48:00     -509.416     -118.770      -21.342      204.422      170.985       83.954    41788.340    29235.776     7048.218       17.606        3.904      523.078       92.878        0.032      341.878       16.891      853.328
04/13/2013  18:49:00     -556.724      -27.928      -19.077      239.597      241.134      107.749    57406.749    58145.573    11609.819       21.910        6.358      557.424      117.890        0.045      341.820       16.795      853.324
04/13/2013  18:50:00     -383.316     -121.886       -6.191      252.365      180.016      109.979    63687.907    32405.656    12095.331       13.499        5.409      402.228      126.296        0.099      341.841       16.830      853.302
04/13/2013  18:51:00     -551.583      -97.486      -21.740      188.193      140.041       74.948    35416.514    19611.388     5617.227       18.742        3.032      560.131       72.429        0.017      341.776       16.720      853.340
04/13/2013  18:52:00     -284.945      -67.248       -4.596      155.468      120.184       75.442    24170.253    14444.229     5691.516        6.501        2.215      292.773       77.344        0.070      341.865       16.869      853.368
04/13/2013  18:53:00     -302.106     -115.760       -5.381      157.870      110.804       71.150    24922.860    12277.542     5062.266        7.347        2.113      323.525       54.388        0.028      341.873       16.884      853.397
04/13/2013  18:54:00     -178.330      -97.459        7.994      167.936      120.815       75.577    28202.383    14596.188     5711.898        4.493        2.426      203.224       83.767        0.170      341.894       16.922      853.436
04/13/2013  18:55:00     -425.428     -130.380       -5.902      271.727      207.527      108.367    73835.368    43067.487    11743.373       16.331        6.432      444.959      114.444        0.066      341.769       16.708      853.439
04/13/2013  18:56:00     -601.310     -331.578      -22.597      282.004      258.191      127.976    79526.505    66662.568    16377.981       31.727        8.128      686.671      141.136        0.042      341.680       16.558      853.405
04/13/2013  18:57:00     -368.647     -190.568      -18.289      227.745      191.664      106.945    51867.769    36735.031    11437.160       13.628        5.002      414.990      113.770        0.075      341.743       16.664      853.415
04/13/2013  18:58:00     -346.424     -182.892      -14.769      180.283      158.914       96.783    32501.884    25253.703     9366.899       11.039        3.356      391.739       79.601        0.041      341.720       16.626      853.468
04/13/2013  18:59:00     -479.679     -134.067      -16.879      157.015      176.047       90.332    24653.807    30992.621     8159.958       15.607        3.190      498.063       85.744        0.030      341.696       16.585      853.478
04/13/2013  19:00:00     -406.146     -113.397       -8.649      253.926      155.257       76.391    64478.541    24104.838     5835.577       13.614        4.721      421.679       96.044        0.052      341.700       16.592      853.502
04/13/2013  19:01:00     -313.665     -226.266      -14.198      212.017      174.134       94.767    44951.273    30322.654     8980.877       11.701        4.213      386.758      110.828        0.082      341.693       16.580      853.492
04/13/2013  19:02:00     -456.133     -104.305      -22.561      217.812      151.755       92.584    47441.955    23029.549     8571.824       14.923        3.952      467.907       95.065        0.041      341.665       16.531      853.481
04/13/2013  19:03:00     -298.618      -85.352       -4.221      161.779      107.167       78.489    26172.462    11484.812     6160.594        7.014        2.191      310.577       81.035        0.068      341.710       16.607      853.502
04/13/2013  19:04:00     -297.576      -37.432       -6.921      180.093      149.857       85.663    32433.449    22457.054     7338.069        7.610        3.111      299.921      100.576        0.112      341.672       16.545      853.536
04/13/2013  19:05:00     -499.825      -32.346      -16.925      192.216      226.389      109.478    36946.914    51251.823    11985.430       17.565        5.009      500.870       98.706        0.039      341.578       16.386      853.526
04/13/2013  19:06:00     -477.926      -76.124       -5.747      218.889      234.873      104.067    47912.306    55165.255    10829.944       17.406        5.695      483.951      115.836        0.057      341.575       16.379      853.537
04/13/2013  19:07:00     -342.951     -106.438       -8.710      209.889      150.661       89.426    44053.216    22698.615     7997.040       10.187        3.737      359.088       93.495        0.068      341.573       16.377      853.546
04/13/2013  19:08:00     -366.244      -24.768      -15.134      168.323      123.925       68.630    28332.733    15357.329     4710.057        9.168        2.420      367.081       74.995        0.042      341.568       16.368      853.571
04/13/2013  19:09:00     -222.955        3.561       -4.427      184.800      104.709       81.645    34151.138    10963.905     6665.959        5.075        2.589      222.984       94.952        0.181      341.579       16.388      853.564
04/13/2013  19:10:00     -606.702     -105.128      -32.061      217.583      200.655       99.697    47342.224    40262.249     9939.393       23.884        4.877      615.743      113.878        0.034      341.492       16.239      853.541
04/13/2013  19:11:00     -475.432     -134.131      -26.175      239.080      233.204      103.970    57159.265    54384.023    10809.711       18.351        6.118      493.991      102.579        0.043      341.490       16.235      853.550
04/13/2013  19:12:00     -216.385     -104.530       16.823      226.701      178.989      104.473    51393.275    32037.117    10914.570        7.617        4.717      240.310      117.462        0.239      341.504       16.260      853.572
04/13/2013  19:13:00     -295.536      -18.726       13.485      260.713      201.761      113.422    67971.340    40707.564    12864.578       10.469        6.077      296.129      121.697        0.169      341.485       16.227      853.563
04/13/2013  19:14:00     -556.347     -142.142      -25.038      234.944      170.804       95.480    55198.638    29174.039     9116.453       21.191        4.674      574.218       91.283        0.025      341.458       16.179      853.590
04/13/2013  19:15:00     -682.510     -162.317      -19.069      222.017      187.893      105.390    49291.426    35303.698    11107.058       29.410        4.785      701.546      119.718        0.029      341.392       16.068      853.596
04/13/2013  19:16:00     -391.687      -93.517      -17.554      212.293      163.560       89.789    45068.108    26751.949     8062.007       12.116        3.994      402.696      100.349        0.062      341.416       16.109      853.610
04/13/2013  19:17:00     -432.799     -106.247       -9.191      206.676      194.536       96.634    42714.922    37844.437     9338.058       14.428        4.495      445.649      105.213        0.056      341.379       16.047      853.613
04/13/2013  19:18:00     -432.686      -66.233      -19.328      252.118      191.379      101.473    63563.480    36625.877    10296.813       15.121        5.524      437.726      115.525        0.070      341.382       16.052      853.618
04/13/2013  19:19:00     -419.964     -190.245        7.214      258.909      177.729      112.826    67033.912    31587.527    12729.809       16.196        5.568      461.045      135.193        0.086      341.361       16.016      853.597
04/13/2013  19:20:00     -504.726     -169.951      -10.508      230.261      207.971      103.405    53020.183    43252.122    10692.659       19.534        5.348      532.571      121.721        0.052      341.333       15.970      853.574
04/13/2013  19:21:00     -336.295     -216.706       12.592      210.212      187.303      117.731    44189.174    35082.343    13860.621       12.666        4.657      400.070      119.369        0.089      341.335       15.973      853.581
04/13/2013  19:22:00     -432.007     -152.653      -21.588      215.623      151.635       88.118    46493.243    22993.054     7764.767       14.381        3.863      458.185       96.429        0.044      341.345       15.990      853.585
04/13/2013  19:23:00     -133.220      -70.132        7.301      152.325      133.602       84.499    23203.047    17849.618     7140.025        3.545        2.410      150.552       83.785        0.310      341.337       15.978      853.605
04/13/2013  19:24:00     -353.208     -199.193      -13.696      197.741      193.569       87.363    39101.571    37468.775     7632.240       12.440        4.210      405.504       94.443        0.054      341.310       15.931      853.597
04/13/2013  19:25:00     -511.108     -176.305      -27.734      297.942      189.009       87.929    88769.559    35724.516     7731.569       21.263        6.611      540.661      104.337        0.037      341.294       15.905      853.590
04/13/2013  19:26:00     -364.582      -53.576        1.377      181.541      177.260      100.517    32957.283    31421.035    10103.687       10.512        3.724      368.498      113.088        0.094      341.284       15.887      853.605
04/13/2013  19:27:00     -290.004     -139.044      -12.936      237.332      179.484       98.567    56326.313    32214.657     9715.484       10.091        4.913      321.614      109.413        0.116      341.261       15.848      853.609
04/13/2013  19:28:00     -560.683     -137.363      -16.083      224.681      253.842       95.717    50481.336    64435.751     9161.791       22.877        6.204      577.265      110.739        0.037      341.211       15.764      853.607
04/13/2013  19:29:00     -463.310      -59.956       -5.132      245.784      146.036       85.850    60409.844    21326.562     7370.160       15.368        4.455      467.174       99.514        0.045      341.179       15.711      853.643
04/13/2013  19:30:00     -381.423      -23.026      -17.753      198.825      108.872       73.974    39531.567    11853.212     5472.210       10.158        2.843      382.117       81.936        0.046      341.162       15.679      853.667
04/13/2013  19:31:00     -457.513      -56.889      -28.435      164.043      170.878       67.814    26910.212    29199.214     4598.734       13.703        3.035      461.036       57.301        0.015      341.136       15.635      853.679
04/13/2013  19:32:00     -439.136      -30.019      -20.650      176.578      158.768       92.557    31179.660    25207.120     8566.863       12.955        3.248      440.161       81.563        0.034      341.103       15.580      853.687
04/13/2013  19:33:00     -617.867      -81.382      -34.848      226.945      159.664       89.489    51504.237    25492.482     8008.257       23.729        4.250      623.203      100.844        0.026      341.086       15.551      853.689
04/13/2013  19:34:00     -471.237      -97.855      -13.992      183.280      110.685       67.382    33591.564    12251.268     4540.346       14.110        2.519      481.290       70.232        0.021      341.073       15.529      853.721
04/13/2013  19:35:00     -486.330     -163.854       -7.021      234.043      209.979      105.231    54776.117    44091.025    11073.642       18.666        5.497      513.191      107.567        0.044      341.066       15.518      853.722
04/13/2013  19:36:00     -243.407      -96.236       18.535      223.424      141.558      104.882    49918.109    20038.655    11000.185        7.489        4.048      261.741      118.284        0.204      341.077       15.535      853.744
04/13/2013  19:37:00     -475.041        3.987      -30.802      191.648      136.826       82.079    36729.086    18721.351     6736.902       14.440        3.109      475.058       94.019        0.039      341.035       15.466      853.780
04/13/2013  19:38:00     -416.788     -103.102      -34.504      207.919      164.512       66.688    43230.479    27064.073     4447.259       13.012        3.737      429.351       50.137        0.014      341.045       15.484      853.753
04/13/2013  19:39:00     -403.366     -184.328      -10.202      217.715      173.245       97.495    47400.035    30013.731     9505.348       14.184        4.346      443.487      105.695        0.057      341.025       15.449      853.744
04/13/2013  19:40:00     -462.475      -56.844      -24.178      214.566      130.981       77.599    46038.415    17156.094     6021.531       14.345        3.461      465.955       83.648        0.032      341.009       15.421      853.762
04/13/2013  19:41:00     -479.505     -132.664      -17.384      196.254      196.066       83.164    38515.502    38442.039     6916.185       16.584        4.194      497.519       82.843        0.028      340.989       15.387      853.779
04/13/2013  19:42:00     -485.914     -125.439      -24.889      216.700      194.447       95.007    46958.684    37809.467     9026.409       17.311        4.690      501.844      100.240        0.040      340.967       15.350      853.779
04/13/2013  19:43:00     -482.557     -116.303       -5.147      172.588      132.506       84.648    29786.518    17557.766     7165.339       15.045        2.725      496.375       83.025        0.028      340.934       15.294      853.827
04/13/2013  19:44:00     -602.512     -173.733      -27.793      168.875      162.373       87.526    28518.613    26364.857     7660.723       22.825        3.127      627.060       90.219        0.021      340.906       15.247      853.841
04/13/2013  19:45:00     -516.641     -103.157      -23.350      287.085      182.827       99.297    82417.618    33425.724     9859.847       20.188        6.285      526.839      124.968        0.056      340.895       15.229      853.851
04/13/2013  19:46:00     -578.823      -29.132      -52.180      237.163      157.694       94.914    56246.240    24867.438     9008.616       21.435        4.506      579.556      108.908        0.035      340.891       15.220      853.866
04/13/2013  19:47:00     -396.948     -101.434      -23.803      211.931      152.463       87.903    44914.830    23245.090     7726.885       12.214        3.794      409.703       87.091        0.045      340.859       15.166      853.877
04/13/2013  19:48:00     -496.871     -131.032      -14.735      233.927      194.416      103.503    54721.821    37797.674    10712.824       18.373        5.162      513.859       98.880        0.037      340.844       15.141      853.886
04/13/2013  19:49:00     -629.295     -159.064      -19.749      263.021      235.408      101.853    69180.283    55417.126    10374.097       27.831        6.749      649.087      117.503        0.033      340.828       15.114      853.877
04/13/2013  19:50:00     -558.148     -111.664      -33.235      229.069      172.278       91.533    52472.414    29679.711     8378.346       20.780        4.527      569.208      101.291        0.032      340.810       15.085      853.919
04/13/2013  19:51:00     -502.241     -163.776      -19.696      239.321      140.654       89.667    57274.492    19783.572     8040.177       18.226        4.255      528.269      106.022        0.040      340.779       15.032      853.956
04/13/2013  19:52:00     -630.539     -234.013      -14.996      236.239      190.812       98.839    55808.993    36409.405     9769.131       27.726        5.099      672.563      106.332        0.025      340.782       15.036      853.951
04/13/2013  19:53:00     -464.030     -164.730      -16.311      164.305      133.795       77.517    26996.166    17900.980     6008.833       14.681        2.545      492.402       64.013        0.017      340.750       14.985      854.008
04/13/2013  19:54:00     -454.899       -9.622      -56.687      210.325      108.543       72.554    44236.424    11781.556     5264.040       13.575        3.064      455.001       96.551        0.045      340.729       14.948      854.060
04/13/2013  19:55:00     -454.005     -120.293      -23.068      168.782      125.965       80.950    28487.458    15867.117     6552.888       13.601        2.545      469.671       85.802        0.033      340.699       14.897      854.090
04/13/2013  19:56:00     -498.234     -115.958      -38.582      143.846      181.675       92.068    20691.576    33005.763     8476.520       16.266        3.109      511.550       79.110        0.024      340.704       14.905      854.097
04/13/2013  19:57:00     -467.684     -135.165      -24.477      182.447      162.308       90.564    33286.945    26343.786     8201.904       15.270        3.392      486.824       88.936        0.033      340.697       14.892      854.129
04/13/2013  19:58:00     -403.126      -76.322      -27.282      226.556      139.366       94.790    51327.730    19422.749     8985.067       12.439        3.987      410.287       97.612        0.057      340.694       14.889      854.159
04/13/2013  19:59:00     -478.566      -56.425      -51.734      240.063      187.247       91.595    57630.295    35061.464     8389.691       16.797        5.054      481.881       85.392        0.031      340.690       14.882      854.153
04/13/2013  20:00:00     -545.857      -86.539      -16.506      190.223      176.229       93.860    36184.642    31056.757     8809.762       19.087        3.803      552.674       94.242        0.029      340.648       14.809      854.205
04/13/2013  20:01:00     -396.448     -137.863      -12.668      264.047      151.332       79.441    69720.978    22901.356     6310.942       13.762        4.947      419.735       94.758        0.051      340.617       14.758      854.209
04/13/2013  20:02:00     -440.597      -81.548      -16.125      145.608      173.167       74.934    21201.591    29986.981     5615.067       12.891        2.840      448.081       70.089        0.024      340.617       14.756      854.235
04/13/2013  20:03:00     -440.050      -94.336      -16.416      213.714      137.970       82.886    45673.522    19035.669     6870.053       13.718        3.579      450.048      100.173        0.050      340.596       14.723      854.251
04/13/2013  20:04:00     -397.517     -145.437      -24.982      168.081      151.190       83.175    28251.242    22858.266     6918.116       11.890        2.901      423.287       74.055        0.031      340.586       14.705      854.286
04/13/2013  20:05:00     -417.573     -166.863      -20.786      141.176      145.774       72.952    19930.722    21249.954     5321.992       12.456        2.325      449.678       60.037        0.018      340.562       14.663      854.300
04/13/2013  20:06:00     -450.758     -114.938      -22.790      181.519      178.919       94.176    32949.307    32012.022     8869.083       14.536        3.692      465.181       89.908        0.037      340.539       14.626      854.339
04/13/2013  20:07:00     -620.111      -38.644      -34.145      241.643      229.349       92.415    58391.381    52600.744     8540.532       25.334        5.977      621.313      111.044        0.032      340.520       14.595      854.347
04/13/2013  20:08:00     -545.772      -77.680      -44.829      216.726      173.877       92.464    46970.293    30233.226     8549.591       19.582        4.288      551.273      103.770        0.035      340.501       14.563      854.341
04/13/2013  20:09:00     -429.822      -62.096      -17.032      192.510      175.368       85.086    37060.055    30753.785     7239.676       13.196        3.753      434.284       90.264        0.043      340.476       14.519      854.390
04/13/2013  20:10:00     -541.294      -35.323      -35.786      188.498      144.180       74.054    35531.534    20787.933     5484.066       17.865        3.090      542.445       82.816        0.023      340.467       14.502      854.374
04/13/2013  20:11:00     -534.552     -115.180      -22.221      207.401      145.260       71.762    43014.993    21100.481     5149.758       18.437        3.463      546.821       72.787        0.018      340.450       14.473      854.394
04/13/2013  20:12:00     -647.565     -157.642      -24.516      165.008      138.188       83.490    27227.768    19095.903     6970.550       24.903        2.665      666.477       88.419        0.018      340.422       14.427      854.393
04/13/2013  20:13:00     -519.884      -64.109      -38.513      173.803      168.628      103.690    30207.621    28435.386    10751.643       17.262        3.470      523.822      104.470        0.040      340.408       14.405      854.399
04/13/2013  20:14:00     -346.126     -108.520       15.038      189.345      174.619       95.078    35851.604    30491.909     9039.908       10.358        3.769      362.739      100.462        0.077      340.389       14.373      854.406
04/13/2013  20:15:00     -457.658      -41.844      -39.747      172.951      146.435       76.040    29912.003    21443.216     5782.032       13.495        2.857      459.567       73.414        0.026      340.360       14.324      854.420
04/13/2013  20:16:00     -449.714      -47.500      -15.104      187.621      184.308       86.068    35201.652    33969.546     7407.742       14.064        3.829      452.216       83.879        0.034      340.334       14.279      854.388
04/13/2013  20:17:00     -495.686      -48.138      -35.394      171.154      151.131       71.300    29293.603    22840.438     5083.690       15.324        2.861      498.017       82.850        0.028      340.323       14.261      854.395
04/13/2013  20:18:00     -522.467      -93.627      -38.761      201.484      155.569       84.781    40595.976    24201.734     7187.840       17.760        3.599      530.790       84.401        0.025      340.317       14.250      854.411
04/13/2013  20:19:00     -424.587      -46.081      -34.875      187.653      148.722       73.047    35213.795    22118.354     5335.909       12.313        3.133      427.080       75.089        0.031      340.300       14.222      854.439
04/13/2013  20:20:00     -341.278     -107.167        7.959      163.761      139.118       80.235    26817.734    19353.931     6437.721        9.031        2.630      357.709       79.637        0.050      340.287       14.199      854.494
04/13/2013  20:21:00     -435.249     -116.389      -16.495      153.359      128.358       70.520    23519.120    16475.883     4973.080       12.411        2.248      450.542       61.520        0.019      340.271       14.172      854.524
04/13/2013  20:22:00     -415.493     -192.202      -20.257      165.322       96.941       75.016    27331.502     9397.479     5627.358       12.616        2.118      457.795       75.974        0.028      340.221       14.089      854.532
04/13/2013  20:23:00     -483.397      -84.796       -2.469      175.462      108.523       77.858    30786.912    11777.284     6061.888       14.474        2.431      490.778       89.267        0.033      340.151       13.972      854.555
04/13/2013  20:24:00     -330.137      -43.734        2.430      212.979      130.944       77.872    45360.226    17146.210     6064.101        8.973        3.429      333.021       87.171        0.069      340.133       13.940      854.533
04/13/2013  20:25:00     -443.751     -103.669       -8.092      213.220      132.696       79.793    45462.750    17608.141     6366.984       13.857        3.472      455.700       72.654        0.025      340.135       13.944      854.492
04/13/2013  20:26:00     -452.289        1.804      -35.019      204.317      146.536       84.206    41745.358    21472.752     7090.601       13.804        3.515      452.292       95.009        0.044      340.141       13.953      854.450
04/13/2013  20:27:00     -461.215     -161.271      -22.339      211.498      122.813       92.457    44731.596    15082.964     8548.232       15.378        3.418      488.598       91.888        0.035      340.150       13.969      854.437
04/13/2013  20:28:00     -379.562      -76.731      -43.915      155.299      139.210       68.407    24117.833    19379.294     4679.511       10.002        2.409      387.240       60.429        0.024      340.138       13.948      854.468
04/13/2013  20:29:00     -405.931      -91.204      -28.105      148.740      120.089       70.864    22123.525    14421.451     5021.644       10.772        2.078      416.051       67.240        0.026      340.092       13.869      854.463
04/13/2013  20:30:00     -520.391      -50.055      -42.179      184.585      143.242       76.543    34071.472    20518.355     5858.773       16.776        3.022      522.793       86.680        0.027      340.089       13.866      854.471
04/13/2013  20:31:00     -377.138     -122.334       -6.924      119.295      121.301       63.163    14231.289    14713.989     3989.565        9.509        1.647      396.483       63.883        0.026      340.055       13.809      854.482
04/13/2013  20:32:00     -264.782      -91.385       -2.271      131.414       87.526       50.706    17269.704     7660.846     2571.125        5.298        1.375      280.108       55.909        0.040      340.035       13.773      854.507
04/13/2013  20:33:00     -415.069      -56.740      -21.834      105.340      104.232       63.441    11096.607    10864.310     4024.716       10.098        1.299      418.929       56.188        0.018      340.035       13.772      854.523
04/13/2013  20:34:00     -250.182      -44.894       -4.136      164.939      104.490       71.842    27204.809    10918.199     5161.310        5.395        2.164      254.178       59.311        0.054      340.037       13.777      854.519
04/13/2013  20:35:00     -258.122      -64.995        1.552      137.521      110.631       64.246    18911.970    12239.213     4127.502        5.306        1.764      266.180       68.247        0.066      339.997       13.710      854.520
04/13/2013  20:36:00     -396.911      -42.447      -25.636      115.032      122.825       55.536    13232.296    15086.042     3084.194        9.569        1.570      399.174       49.925        0.016      339.978       13.678      854.535
04/13/2013  20:37:00     -295.523      -96.951      -20.082      126.337      100.432       57.482    15960.939    10086.492     3304.146        6.324        1.468      311.020       62.918        0.041      339.936       13.607      854.556
04/13/2013  20:38:00     -324.421      -50.632      -36.877      112.344       94.102       58.069    12621.205     8855.119     3372.050        6.701        1.242      328.348       54.175        0.027      339.945       13.622      854.579
04/13/2013  20:39:00     -324.542     -159.401      -12.658      159.815      100.822       65.764    25540.751    10165.040     4324.905        8.546        2.002      361.574       54.402        0.023      339.907       13.559      854.593
04/13/2013  20:40:00     -309.024      -45.139      -12.398      174.000      114.616       66.515    30276.089    13136.860     4424.239        7.275        2.392      312.303       81.928        0.069      339.916       13.575      854.617
04/13/2013  20:41:00     -281.918      -73.935       -6.805      126.412      101.112       61.279    15980.094    10223.567     3755.083        5.747        1.498      291.452       62.050        0.045      339.895       13.539      854.625
04/13/2013  20:42:00     -366.889      -91.238      -29.521      132.484       89.296       52.035    17552.079     7973.796     2707.636        8.601        1.412      378.064       46.508        0.015      339.901       13.548      854.648
04/13/2013  20:43:00     -230.093      -44.483        1.995      122.351       92.149       48.214    14969.871     8491.453     2324.589        4.035        1.289      234.353       50.813        0.047      339.857       13.473      854.664
04/13/2013  20:44:00     -189.759      -87.872       -4.201      103.503       81.488       53.667    10712.963     6640.221     2880.094        3.199        1.012      209.117       51.846        0.061      339.849       13.461      854.694
04/13/2013  20:45:00     -376.942      -27.634      -23.629      112.276      128.106       48.327    12605.874    16411.041     2335.490        8.737        1.568      377.953       43.324        0.013      339.841       13.446      854.741
04/13/2013  20:46:00     -325.905      -36.345      -30.565       72.389       78.294       49.598     5240.186     6130.016     2459.940        6.115        0.692      327.925       40.555        0.015      339.785       13.354      854.797
04/13/2013  20:47:00     -319.704      -85.575      -25.987       98.656       77.665       48.747     9733.056     6031.889     2376.222        6.417        0.907      330.959       41.217        0.016      339.747       13.289      854.846
04/13/2013  20:48:00     -333.897     -126.050      -22.465       88.673      102.049       62.104     7862.902    10414.013     3856.932        7.500        1.107      356.898       48.328        0.018      339.796       13.373      854.875
04/13/2013  20:49:00     -332.140     -117.904      -24.527      124.835       94.518       66.887    15583.778     8933.574     4473.829        7.690        1.450      352.446       61.930        0.031      339.799       13.377      854.906
04/13/2013  20:50:00     -244.467     -122.882      -15.041      116.058       84.214       56.709    13469.570     7092.057     3215.854        4.943        1.189      273.613       49.362        0.033      339.792       13.366      854.924
04/13/2013  20:51:00     -361.819       18.470      -40.448      133.110      118.873       59.640    17718.315    14130.820     3556.954        8.414        1.770      362.290       64.617        0.032      339.790       13.363      854.950
04/13/2013  20:52:00     -371.422      -23.243      -32.323      178.534       98.574       62.705    31874.281     9716.834     3931.907        9.252        2.276      372.149       84.863        0.052      339.805       13.387      854.977
04/13/2013  20:53:00     -391.368      -38.033      -33.108       85.970      118.865       56.745     7390.785    14128.910     3219.962        9.022        1.237      393.212       50.674        0.017      339.796       13.372      854.993
04/13/2013  20:54:00     -268.317      -79.750      -18.546      163.388      105.962       66.452    26695.775    11228.029     4415.812        6.051        2.117      279.918       66.847        0.057      339.785       13.354      855.034
04/13/2013  20:55:00     -256.811        0.995      -17.880      160.649       78.361       61.502    25808.246     6140.413     3782.474        5.100        1.787      256.813       75.380        0.086      339.765       13.321      855.065
04/13/2013  20:56:00     -328.198      -21.164      -19.452      139.554       86.320       65.427    19475.356     7451.088     4280.705        6.987        1.560      328.880       72.852        0.049      339.730       13.260      855.089
04/13/2013  20:57:00     -348.217      -33.622      -22.398      121.140      108.770       67.864    14674.940    11830.877     4605.575        7.699        1.556      349.836       56.098        0.026      339.747       13.290      855.094
04/13/2013  20:58:00     -309.360     -139.833      -14.032       94.254      104.596       50.870     8883.835    10940.404     2587.783        6.893        1.121      339.495       37.471        0.012      339.724       13.252      855.095
04/13/2013  20:59:00     -333.276      -27.958      -15.642      120.177      109.364       59.616    14442.574    11960.553     3554.076        7.102        1.498      334.446       59.908        0.032      339.723       13.249      855.117
04/13/2013  21:00:00     -304.472     -116.835       -6.731      158.012      121.387       63.239    24967.940    14734.719     3999.221        7.504        2.185      326.118       67.369        0.043      339.739       13.276      855.118
04/13/2013  21:01:00     -218.523      -77.487        1.507      113.617       99.713       67.549    12908.884     9942.635     4562.802        4.058        1.371      231.854       63.147        0.074      339.707       13.224      855.135
04/13/2013  21:02:00     -370.972      -67.067      -17.790       95.490       93.576       59.718     9118.362     8756.506     3566.186        8.193        1.072      376.986       51.230        0.018      339.666       13.150      855.160
04/13/2013  21:03:00     -254.271     -107.160       -8.886      108.847       90.774       51.193    11847.650     8239.955     2620.703        4.946        1.135      275.929       52.769        0.037      339.647       13.120      855.174
04/13/2013  21:04:00     -314.325      -89.124      -16.688      114.809       95.113       57.837    13181.210     9046.435     3345.154        6.629        1.279      326.716       61.198        0.035      339.635       13.100      855.191
04/13/2013  21:05:00     -246.420      -86.846       -7.781      153.407       96.787       77.147    23533.661     9367.749     5951.640        5.358        1.943      261.276       87.581        0.112      339.624       13.082      855.200
04/13/2013  21:06:00     -288.790     -117.585      -13.754      100.390      107.330       64.883    10078.239    11519.807     4209.807        6.161        1.290      311.811       53.560        0.030      339.609       13.056      855.219
04/13/2013  21:07:00     -263.388      -73.180      -12.324       99.178      116.798       53.105     9836.345    13641.788     2820.105        5.058        1.315      273.365       39.913        0.021      339.613       13.062      855.238
04/13/2013  21:08:00     -299.163      -55.986      -16.930      144.464      120.632       63.380    20869.776    14552.000     4017.078        6.617        1.972      304.357       71.660        0.055      339.594       13.032      855.277
04/13/2013  21:09:00     -358.025      -81.857       -9.295      133.886      109.824       63.224    17925.488    12061.294     3997.265        8.447        1.699      367.264       69.110        0.035      339.574       12.997      855.295
04/13/2013  21:10:00     -264.117      -48.391        5.370      147.184      111.210       54.660    21663.084    12367.695     2987.754        5.457        1.851      268.514       64.875        0.058      339.523       12.912      855.317
04/13/2013  21:11:00     -391.957      -74.693      -21.662      160.611      116.749       61.372    25796.051    13630.314     3766.523       10.143        2.160      399.010       60.436        0.023      339.543       12.945      855.302
04/13/2013  21:12:00     -385.334      -57.147      -22.696      149.540      103.590       62.061    22362.271    10730.981     3851.510        9.460        1.847      389.549       72.497        0.035      339.550       12.957      855.299
04/13/2013  21:13:00     -353.351      -95.309       -5.051      125.945      117.479       63.896    15862.164    13801.387     4082.711        8.385        1.687      365.979       68.166        0.035      339.530       12.921      855.286
04/13/2013  21:14:00     -250.426      -38.904       -7.776      115.265       83.978       58.262    13286.087     7052.274     3394.419        4.401        1.187      253.430       65.786        0.067      339.487       12.851      855.286
04/13/2013  21:15:00     -367.168      -68.512      -18.251      172.599      118.260       71.665    29790.358    13985.309     5135.872        9.437        2.446      373.505       76.771        0.042      339.514       12.896      855.307
04/13/2013  21:16:00     -283.611      -86.725       -5.277      137.764      115.220       67.328    18978.817    13275.546     4533.099        6.238        1.839      296.574       67.943        0.052      339.502       12.876      855.302
04/13/2013  21:17:00     -247.967      -36.546       -2.043      122.673       97.285       53.687    15048.569     9464.452     2882.268        4.511        1.370      250.646       47.692        0.036      339.506       12.882      855.318
04/13/2013  21:18:00     -197.242      -53.077        3.666      131.240      128.163       73.780    17223.882    16425.861     5443.516        4.041        1.955      204.259       78.502        0.148      339.513       12.894      855.324
04/13/2013  21:19:00     -204.644      -85.529       11.352      141.326      128.004       59.633    19973.177    16385.053     3556.104        4.461        1.996      221.798       63.605        0.082      339.525       12.915      855.344
04/13/2013  21:20:00     -309.569      -72.453      -19.160      170.402      128.717       64.556    29036.673    16568.095     4167.526        7.560        2.489      317.935       82.843        0.068      339.531       12.923      855.364
04/13/2013  21:21:00     -364.037      -72.002      -19.531      212.755      106.993       65.800    45264.827    11447.443     4329.664        9.955        3.052      371.089       86.264        0.054      339.532       12.926      855.366
04/13/2013  21:22:00     -270.648     -123.132        0.006      148.026      130.246       69.095    21911.673    16963.986     4774.174        6.602        2.182      297.342       87.510        0.087      339.492       12.859      855.371
04/13/2013  21:23:00     -192.340      -24.707       15.205      146.008      115.671       64.963    21318.410    13379.669     4220.204        3.837        1.946      193.921       73.816        0.145      339.486       12.849      855.377
04/13/2013  21:24:00     -312.335      -74.719      -18.414      104.647      108.120       62.085    10950.942    11689.904     3854.569        6.498        1.325      321.148       46.609        0.021      339.508       12.884      855.398
04/13/2013  21:25:00     -242.270      -12.455      -20.080      121.826      115.841       60.744    14841.668    13419.127     3689.850        4.560        1.598      242.590       63.327        0.068      339.469       12.819      855.439
04/13/2013  21:26:00     -323.666      -14.345      -18.330      193.151      132.023       46.772    37307.315    17430.109     2187.655        8.110        2.846      323.984       59.789        0.034      339.478       12.836      855.472
04/13/2013  21:27:00     -223.503      -76.831       -5.161      146.189       95.104       59.833    21371.275     9044.759     3580.015        4.493        1.700      236.340       69.896        0.087      339.446       12.781      855.521
04/13/2013  21:28:00     -318.778     -106.494      -24.511      159.958      125.337       69.921    25586.609    15709.248     4888.907        7.987        2.309      336.096       63.324        0.035      339.479       12.837      855.540
04/13/2013  21:29:00     -280.140     -124.494      -15.477      141.192      120.146       63.205    19935.098    14435.146     3994.933        6.628        1.918      306.557       64.534        0.044      339.444       12.778      855.554
04/13/2013  21:30:00     -266.138      -28.021      -17.348      110.025      109.525       58.198    12105.506    11995.735     3387.008        4.970        1.374      267.609       49.209        0.034      339.463       12.809      855.594
04/13/2013  21:31:00     -340.586       24.597       -5.765      195.717      141.209       63.504    38304.961    19940.039     4032.798        8.945        3.114      341.473       56.350        0.027      339.473       12.826      855.619
04/13/2013  21:32:00     -287.787      -55.597      -12.524      114.679       97.099       56.312    13151.198     9428.257     3171.016        5.591        1.288      293.109       47.511        0.026      339.462       12.809      855.631
04/13/2013  21:33:00     -255.032      -29.588      -10.747      153.089      106.001       57.028    23436.175    11236.197     3252.209        5.197        1.896      256.742       58.952        0.053      339.469       12.820      855.657
04/13/2013  21:34:00     -269.698      -63.160        0.849      149.737       92.912       61.422    22421.159     8632.609     3772.675        5.577        1.741      276.995       67.309        0.059      339.410       12.721      855.648
04/13/2013  21:35:00     -157.258      -43.433       11.732      149.981       81.043       59.357    22494.234     6567.899     3523.209        2.966        1.629      163.146       68.240        0.175      339.410       12.723      855.639
04/13/2013  21:36:00     -236.478      -53.425       -4.478      104.536      141.164       56.082    10927.778    19927.184     3145.226        4.639        1.700      242.438       46.482        0.037      339.402       12.708      855.648
04/13/2013  21:37:00     -235.719      -51.416        2.343      136.324      121.777       73.353    18584.256    14829.733     5380.679        4.850        1.940      241.262       82.356        0.117      339.365       12.646      855.638
04/13/2013  21:38:00     -322.893      -48.199       -6.586      164.274      134.271       75.767    26985.962    18028.697     5740.578        7.868        2.538      326.470       84.474        0.067      339.381       12.672      855.630
04/13/2013  21:39:00     -175.965      -78.392        5.558      159.582      112.762       67.982    25466.277    12715.360     4621.537        3.996        2.140      192.637       86.001        0.199      339.378       12.668      855.627
04/13/2013  21:40:00     -250.071      -75.534       -2.269      142.341       96.761       63.638    20261.051     9362.643     4049.743        5.095        1.684      261.230       76.679        0.086      339.369       12.651      855.636
04/13/2013  21:41:00     -219.315      -59.262       -9.884      136.084      132.756       62.258    18518.726    17624.143     3876.112        4.586        2.001      227.181       59.987        0.070      339.356       12.630      855.653
04/13/2013  21:42:00     -251.545      -63.264      -27.853      120.789       89.660       58.122    14589.896     8038.843     3378.140        4.703        1.300      259.379       52.022        0.040      339.333       12.590      855.672
04/13/2013  21:43:00     -205.078      -78.048       -2.193      151.088      114.749       63.699    22827.629    13167.269     4057.519        4.410        2.003      219.428       68.613        0.098      339.320       12.569      855.661
04/13/2013  21:44:00     -158.802      -91.463       10.995      137.190      104.121       70.455    18821.157    10841.179     4963.967        3.416        1.731      183.258       73.897        0.163      339.317       12.564      855.665
04/13/2013  21:45:00     -186.650      -26.113       -0.737       96.934       83.358       49.731     9396.212     6948.629     2473.213        2.717        0.941      188.468       38.194        0.041      339.301       12.538      855.693
04/13/2013  21:46:00     -163.504      -37.829       -5.256      137.968      121.299       63.782    19035.295    14713.531     4068.181        3.300        1.891      167.823       72.838        0.188      339.311       12.554      855.708
04/13/2013  21:47:00     -298.251        7.510      -11.291      127.442       92.078       58.743    16241.545     8478.268     3450.758        5.865        1.409      298.346       65.048        0.048      339.299       12.535      855.743
04/13/2013  21:48:00     -293.797     -141.815        3.016      142.682      120.302       59.950    20358.107    14472.665     3594.017        7.242        1.921      326.233       71.897        0.049      339.299       12.533      855.743
04/13/2013  21:49:00     -306.618      -70.558      -17.429      143.364      104.198       66.574    20553.319    10857.171     4432.050        6.756        1.792      314.632       66.507        0.045      339.269       12.484      855.752
04/13/2013  21:50:00     -435.342     -145.606       -7.489      150.403      139.835       53.061    22621.057    19553.960     2815.439       12.788        2.250      459.047       60.368        0.017      339.322       12.572      855.752
04/13/2013  21:51:00     -240.103      -54.514       -5.778      104.943       93.472       46.495    11012.990     8736.957     2161.831        4.128        1.096      246.214       51.098        0.043      339.258       12.465      855.760
04/13/2013  21:52:00     -235.808      -27.787       -0.766      144.763       75.730       54.970    20956.222     5734.998     3021.647        4.304        1.486      237.439       61.482        0.067      339.196       12.362      855.771
04/13/2013  21:53:00     -194.674      -41.308       -4.336      130.271       88.417       49.070    16970.426     7817.511     2407.842        3.340        1.360      199.008       52.424        0.069      339.182       12.339      855.778
04/13/2013  21:54:00     -352.522       11.581      -23.971      134.203       88.889       59.299    18010.319     7901.222     3516.426        7.720        1.471      352.712       64.597        0.034      339.208       12.380      855.794
04/13/2013  21:55:00     -321.002     -105.002      -18.567      155.137      100.526       57.935    24067.373    10105.561     3356.517        7.596        1.876      337.739       68.284        0.041      339.230       12.417      855.808
04/13/2013  21:56:00     -222.744      -78.724       -4.884       89.231       85.728       51.009     7962.196     7349.275     2601.941        3.687        0.896      236.246       37.454        0.025      339.214       12.390      855.829
04/13/2013  21:57:00     -213.120      -90.813       -4.134       94.205       75.368       50.144     8874.666     5680.388     2514.377        3.537        0.853      231.662       50.641        0.048      339.202       12.370      855.841
04/13/2013  21:58:00     -229.796      -80.248      -13.850      120.386       84.454       48.142    14492.882     7132.510     2317.665        4.169        1.197      243.405       35.152        0.021      339.247       12.447      855.831
04/13/2013  21:59:00     -331.750      -35.813      -18.277      154.753      107.241       64.420    23948.456    11500.683     4149.882        7.563        1.980      333.677       76.086        0.052      339.248       12.448      855.838
04/13/2013  22:00:00     -306.217      -93.422        2.212      155.197      138.421       67.420    24086.114    19160.501     4545.522        7.514        2.390      320.151       66.403        0.043      339.230       12.418      855.826
04/13/2013  22:01:00     -357.835     -117.806      -18.747      103.824       95.339       50.452    10779.455     9089.470     2545.364        8.234        1.121      376.728       41.840        0.012      339.242       12.437      855.830
04/13/2013  22:02:00     -364.020     -146.501       -4.956      110.286       77.934       57.121    12162.904     6073.653     3262.818        8.774        1.075      392.394       60.126        0.023      339.262       12.471      855.826
04/13/2013  22:03:00     -301.614      -78.256      -20.275       97.558      113.972       54.743     9517.499    12989.538     2996.823        6.150        1.275      311.600       55.568        0.032      339.273       12.490      855.835
04/13/2013  22:04:00     -442.385     -105.719      -24.868      146.247      109.061       72.500    21388.185    11894.285     5256.219       12.301        1.927      454.842       68.347        0.023      339.308       12.550      855.820
04/13/2013  22:05:00     -260.939      -68.362       -3.364      136.766       92.877       68.088    18705.019     8626.087     4635.959        5.237        1.598      269.745       73.189        0.074      339.284       12.509      855.829
04/13/2013  22:06:00     -349.040      -45.335      -30.692      136.663       96.510       56.324    18676.669     9314.193     3172.430        7.799        1.558      351.972       58.450        0.028      339.309       12.550      855.852
04/13/2013  22:07:00     -334.063     -117.063      -10.394       98.541       78.930       45.175     9710.402     6229.921     2040.797        7.169        0.899      353.980       39.481        0.012      339.246       12.444      855.840
04/13/2013  22:08:00     -344.668      -83.783       -8.491      157.714      123.138       69.582    24873.634    15163.083     4841.715        8.538        2.244      354.705       81.658        0.053      339.253       12.457      855.800
04/13/2013  22:09:00     -359.837     -115.777       -1.670      158.299      128.171       66.616    25058.665    16427.851     4437.751        9.440        2.296      378.004       78.227        0.043      339.269       12.483      855.775
04/13/2013  22:10:00     -324.224      -76.152      -19.282      125.597       92.435       55.484    15774.587     8544.252     3078.511        6.934        1.370      333.047       45.580        0.019      339.227       12.413      855.780
04/13/2013  22:11:00     -385.746      -32.995      -10.447      149.836       77.933       59.452    22450.771     6073.519     3534.502        9.102        1.603      387.155       63.291        0.027      339.201       12.369      855.793
04/13/2013  22:12:00     -307.821      -60.120        0.964      141.126      103.704       63.202    19916.653    10754.599     3994.508        6.651        1.733      313.637       67.772        0.047      339.169       12.316      855.793
04/13/2013  22:13:00     -398.044      -92.839      -29.243      151.120      104.277       71.508    22837.190    10873.712     5113.447       10.336        1.941      408.728       77.411        0.036      339.177       12.329      855.796
04/13/2013  22:14:00     -344.391      -12.163      -18.055      148.051      101.016       69.440    21919.114    10204.278     4821.978        7.801        1.847      344.606       75.727        0.048      339.162       12.303      855.802
04/13/2013  22:15:00     -359.971      -66.341      -34.356      146.939      111.132       64.871    21590.968    12350.423     4208.288        8.665        1.907      366.033       70.699        0.037      339.158       12.296      855.792
04/13/2013  22:16:00     -373.486      -75.035      -20.009      133.242      101.991       61.033    17753.466    10402.211     3725.079        8.870        1.594      380.948       69.840        0.034      339.147       12.278      855.804
04/13/2013  22:17:00     -348.111      -40.403      -19.555      145.109       93.114       57.430    21056.528     8670.233     3298.223        7.811        1.651      350.448       67.032        0.037      339.124       12.241      855.832
04/13/2013  22:18:00     -367.544      -55.797      -19.429      120.489      114.955       59.792    14517.589    13214.673     3575.115        8.494        1.565      371.756       59.621        0.026      339.119       12.231      855.837
04/13/2013  22:19:00     -371.962      -82.973       -9.263      131.288      104.226       67.191    17236.621    10863.160     4514.656        8.896        1.631      381.104       68.937        0.033      339.094       12.189      855.852
04/13/2013  22:20:00     -342.856      -76.652      -23.420      116.253       93.755       54.869    13514.657     8790.001     3010.617        7.464        1.266      351.320       57.714        0.027      339.095       12.191      855.846
04/13/2013  22:21:00     -377.794     -121.682      -26.001      111.091       86.244       60.309    12341.170     7437.994     3637.172        9.081        1.171      396.907       50.692        0.016      339.114       12.222      855.822
04/13/2013  22:22:00     -353.764      -88.476       -7.866      145.195      102.001       62.667    21081.452    10404.217     3927.163        8.422        1.771      364.660       64.277        0.031      339.095       12.190      855.798
04/13/2013  22:23:00     -385.149     -136.405      -18.077      140.379      110.336       72.628    19706.398    12174.045     5274.859       10.221        1.858      408.590       70.822        0.030      339.118       12.229      855.801
04/13/2013  22:24:00     -345.113      -78.851      -13.648      119.755      120.331       65.156    14341.233    14479.499     4245.241        7.928        1.653      354.007       68.659        0.038      339.087       12.175      855.786
04/13/2013  22:25:00     -412.115       17.831      -30.575      148.439       86.117       60.344    22034.158     7416.165     3641.417       10.209        1.655      412.501       67.804        0.027      339.086       12.176      855.766
04/13/2013  22:26:00     -303.816      -56.809       -6.513      143.045       95.307       54.288    20461.769     9083.391     2947.157        6.403        1.625      309.082       63.903        0.043      339.044       12.105      855.752
04/13/2013  22:27:00     -359.680      -76.495      -25.427      122.449       87.935       59.259    14993.733     7732.559     3511.585        8.105        1.312      367.724       58.047        0.025      339.080       12.164      855.747
04/13/2013  22:28:00     -246.054      -56.885       -2.801      163.572       94.666       48.831    26755.800     8961.728     2384.469        5.094        1.905      252.544       59.668        0.056      339.036       12.092      855.734
04/13/2013  22:29:00     -268.603       -4.231      -10.717      142.410      103.700       57.195    20280.499    10753.770     3271.325        5.329        1.715      268.636       67.637        0.063      339.015       12.058      855.732
04/13/2013  22:30:00     -310.851      -58.387      -10.863      111.941      100.634       56.601    12530.706    10127.255     3203.673        6.300        1.293      316.287       58.849        0.035      339.022       12.068      855.737
04/13/2013  22:31:00     -252.851      -57.507       -1.724      141.674      128.908       72.808    20071.626    16617.354     5300.962        5.461        2.099      259.308       77.926        0.090      339.012       12.052      855.738
04/13/2013  22:32:00     -340.296       -3.936      -13.356      151.562      110.300       66.018    22971.091    12166.109     4358.417        7.774        1.975      340.319       77.117        0.051      339.004       12.038      855.745
04/13/2013  22:33:00     -431.675     -105.755      -11.938      148.265      131.839       66.511    21982.647    17381.562     4423.740       12.072        2.189      444.440       72.097        0.026      339.068       12.144      855.755
04/13/2013  22:34:00     -326.834      -47.943      -17.921      161.531      113.985       65.544    26092.292    12992.488     4295.968        7.640        2.169      330.331       75.937        0.053      339.040       12.099      855.781
04/13/2013  22:35:00     -336.848      -98.744      -17.865      144.473      118.793       64.466    20872.462    14111.679     4155.882        8.133        1.957      351.023       64.893        0.034      339.024       12.072      855.782
04/13/2013  22:36:00     -339.606      -81.858      -10.466       91.624      108.053       58.918     8394.971    11675.375     3471.340        7.284        1.177      349.332       51.319        0.022      339.014       12.053      855.802
04/13/2013  22:37:00     -285.237       -6.760       -2.649      141.444       97.186       69.969    20006.398     9445.193     4895.703        5.787        1.717      285.317       75.228        0.070      338.981       12.000      855.810
04/13/2013  22:38:00     -268.058      -40.487       -4.589      116.337      103.924       61.357    13534.235    10800.203     3764.674        5.080        1.405      271.098       63.711        0.055      338.946       11.940      855.805
04/13/2013  22:39:00     -257.089       -1.418        0.994      138.626      101.754       56.683    19217.073    10353.957     3213.016        4.944        1.639      257.093       54.710        0.045      338.941       11.934      855.809
04/13/2013  22:40:00     -360.411      -19.544      -28.485      176.542       74.412       56.777    31166.940     5537.152     3223.653        8.550        1.996      360.941       72.907        0.041      338.969       11.979      855.821
04/13/2013  22:41:00     -218.569      -44.553       -6.142      148.609      101.338       60.469    22084.765    10269.446     3656.457        4.290        1.801      223.064       54.966        0.061      338.957       11.958      855.841
04/13/2013  22:42:00     -374.425      -82.291       -5.314      143.121      114.992       66.478    20483.589    13223.203     4419.264        9.255        1.906      383.361       73.967        0.037      338.971       11.982      855.854
04/13/2013  22:43:00     -226.369      -64.135        7.167      130.500       98.292       59.655    17030.235     9661.398     3558.685        4.282        1.513      235.278       69.756        0.088      338.929       11.914      855.857
04/13/2013  22:44:00     -323.192      -79.971       -9.562      128.129       96.223       66.876    16417.096     9258.930     4472.421        7.054        1.507      332.939       70.641        0.045      338.964       11.972      855.871
04/13/2013  22:45:00     -313.962     -106.507      -10.270      136.500       92.800       55.011    18632.118     8611.897     3026.188        7.014        1.514      331.536       63.335        0.036      338.957       11.958      855.899
04/13/2013  22:46:00     -290.207      -46.564      -11.532      107.800      107.952       63.146    11620.794    11653.715     3987.364        5.689        1.363      293.919       51.430        0.031      338.949       11.947      855.909
04/13/2013  22:47:00     -400.258      -51.790      -34.405      223.618      105.584       78.441    50005.173    11148.070     6152.919       11.568        3.365      403.594       97.057        0.058      339.016       12.059      855.894
04/13/2013  22:48:00     -348.567       20.769      -23.745      116.027      133.425       59.407    13462.188    17802.203     3529.247        7.864        1.740      349.185       54.993        0.025      338.975       11.990      855.900
04/13/2013  22:49:00     -266.414      -28.277        3.045      113.542       89.945       60.587    12891.715     8090.118     3670.739        4.821        1.233      267.911       53.744        0.040      338.941       11.932      855.904
04/13/2013  22:50:00     -261.163     -115.929      -23.142      129.885       99.471       61.385    16870.243     9894.501     3768.115        5.635        1.527      285.737       41.065        0.021      339.027       12.076      855.901
04/13/2013  22:51:00     -195.539      -81.179       -0.634      136.026       87.879       60.159    18502.997     7722.679     3619.150        3.733        1.492      211.721       71.246        0.113      338.966       11.975      855.915
04/13/2013  22:52:00     -305.809      -28.594       -5.017      163.070       93.042       60.273    26591.883     8656.895     3632.833        6.662        1.944      307.143       71.922        0.055      338.942       11.935      855.931
04/13/2013  22:53:00     -348.060     -107.117       -6.679      186.637      129.260       69.535    34833.524    16708.116     4835.136        9.451        2.819      364.170       73.149        0.040      338.956       11.956      855.929
04/13/2013  22:54:00     -300.415      -26.899       -6.447       94.944       96.001       50.278     9014.349     9216.271     2527.834        5.588        1.038      301.617       49.111        0.027      338.915       11.889      855.933
04/13/2013  22:55:00     -228.696      -93.257        9.346      129.131      111.570       60.119    16674.769    12447.786     3614.322        4.691        1.637      246.979       68.532        0.077      338.890       11.845      855.943
04/13/2013  22:56:00     -283.206      -63.066      -20.821      127.506       96.757       69.392    16257.849     9361.970     4815.247        5.752        1.522      290.142       75.072        0.067      338.884       11.836      855.973
04/13/2013  22:57:00     -301.913      -55.416       -1.423      134.637      119.034       68.653    18127.069    14169.149     4713.283        6.561        1.850      306.957       76.821        0.063      338.896       11.854      855.985
04/13/2013  22:58:00     -411.729      -10.253      -30.427      112.879       95.968       53.081    12741.780     9209.762     2817.639        9.766        1.238      411.857       49.802        0.015      338.940       11.931      855.998
04/13/2013  22:59:00     -360.513      -34.282      -19.179      144.516      122.741       69.468    20884.911    15065.321     4825.764        8.614        2.039      362.139       73.322        0.041      338.904       11.869      856.015
04/13/2013  23:00:00     -364.559      -87.877       -9.696      148.434       92.950       67.147    22032.768     8639.713     4508.705        8.794        1.759      375.001       72.025        0.037      338.958       11.960      855.997
04/13/2013  23:01:00     -329.816      -38.776      -17.376      110.894      122.882       57.559    12297.536    15100.040     3313.091        7.064        1.536      332.087       48.597        0.021      338.934       11.919      855.980
04/13/2013  23:02:00     -307.585      -70.637       -7.843      148.568      111.254       65.360    22072.363    12377.438     4271.899        6.918        1.936      315.592       73.841        0.055      338.940       11.930      855.978
04/13/2013  23:03:00     -414.484      -68.655      -16.876      136.977      116.100       63.356    18762.612    13479.127     4014.031       10.652        1.813      420.131       68.259        0.026      338.942       11.933      855.976
04/13/2013  23:04:00     -365.532      -50.338      -16.111      144.362      101.969       60.061    20840.314    10397.607     3607.326        8.562        1.742      368.982       60.002        0.026      338.938       11.927      856.002
04/13/2013  23:05:00     -330.525     -115.730       -9.460      148.156      113.592       51.280    21950.174    12903.250     2629.622        8.010        1.874      350.200       62.020        0.031      338.909       11.879      856.002
04/13/2013  23:06:00     -260.964     -104.718        2.179      106.631       98.797       56.738    11370.208     9760.920     3219.218        5.171        1.218      281.190       56.059        0.040      338.880       11.830      856.015
04/13/2013  23:07:00     -300.768      -74.299        3.928      118.512      102.403       53.296    14045.177    10486.428     2840.426        6.168        1.369      309.810       56.172        0.033      338.888       11.842      856.030
04/13/2013  23:08:00     -336.951     -119.883      -22.916      106.566       92.458       51.216    11356.328     8548.541     2623.038        7.548        1.126      357.642       55.209        0.024      338.924       11.903      856.036
04/13/2013  23:09:00     -254.233      -29.946      -26.667       96.313       79.666       52.793     9276.120     6346.620     2787.053        4.232        0.920      255.991       30.695        0.014      338.908       11.878      856.062
04/13/2013  23:10:00     -262.012     -143.516      -10.354      124.794      111.505       63.979    15573.613    12433.369     4093.356        6.072        1.605      298.743       63.094        0.045      338.924       11.902      856.075
04/13/2013  23:11:00     -262.849      -62.717      -21.185      131.353      104.255       57.302    17253.670    10869.045     3283.550        5.243        1.570      270.227       46.114        0.029      338.916       11.889      856.110
04/13/2013  23:12:00     -313.831     -101.660      -23.000      100.749       95.136       54.986    10150.404     9050.930     3023.407        6.579        1.111      329.886       52.437        0.025      338.885       11.838      856.125
04/13/2013  23:13:00     -327.280     -105.103       -5.605      136.119      132.869       75.535    18528.440    17654.262     5705.509        8.003        2.094      343.742       69.958        0.041      338.949       11.945      856.143
04/13/2013  23:14:00     -276.632      -95.796      -13.697      109.825      102.006       58.826    12061.579    10405.135     3460.448        5.590        1.296      292.749       49.822        0.029      338.949       11.946      856.134
04/13/2013  23:15:00     -247.303      -82.043      -15.038      158.981       92.204       54.801    25274.981     8501.668     3003.124        5.244        1.839      260.557       62.757        0.058      338.910       11.880      856.149
04/13/2013  23:16:00     -291.087      -38.073      -18.982      109.058       95.380       50.846    11893.726     9097.314     2585.278        5.506        1.179      293.567       46.008        0.025      338.939       11.926      856.164
04/13/2013  23:17:00     -214.450      -52.369       -4.966       89.583       80.587       46.863     8025.112     6494.250     2196.118        3.273        0.836      220.751       49.048        0.049      338.865       11.804      856.187
04/13/2013  23:18:00     -148.602       59.359      -40.313       73.319       80.646       49.663     5375.623     6503.697     2466.446        2.079        0.717      160.019       36.627        0.052      338.791       11.681      856.190
04/13/2013  23:19:00     -143.862      -20.611       -2.299      105.280       60.933       36.971    11083.868     3712.864     1366.885        1.864        0.808      145.331       41.162        0.080      338.630       11.408      856.176
04/13/2013  23:20:00     -111.134       21.476       -9.534       49.282       61.154       33.376     2428.749     3739.780     1113.940        1.009        0.364      113.191       31.895        0.079      338.587       11.339      856.150
04/13/2013  23:21:00     -133.381      -34.336      -24.808       47.682       44.302       29.341     2273.545     1962.623      860.903        1.234        0.255      137.730       13.333        0.009      338.549       11.277      856.127
04/13/2013  23:22:00     -118.073      -32.868       -3.025       48.024       40.997       35.363     2306.349     1680.763     1250.556        1.013        0.262      122.562       24.379        0.040      338.505       11.202      856.125
04/13/2013  23:23:00      -71.574       27.485      -22.882       63.868       55.164       41.825     4079.067     3043.045     1749.310        0.764        0.444       76.670       32.767        0.183      338.472       11.146      856.117
04/13/2013  23:24:00     -177.123      -35.455       -9.216      106.545      107.703       38.234    11351.786    11599.952     1461.863        2.856        1.221      180.637       31.902        0.031      338.395       11.015      856.102
04/13/2013  23:25:00     -333.999      -60.574      -32.021       93.610       97.696       37.396     8762.793     9544.512     1398.465        6.797        0.985      339.447       37.437        0.012      338.276       10.817      856.143
04/13/2013  23:26:00     -243.264       18.869      -26.094       80.872      128.116       48.698     6540.288    16413.745     2371.533        4.277        1.266      243.994       55.707        0.052      338.289       10.838      856.150
04/13/2013  23:27:00     -168.454      121.305      -27.968       79.465       67.735       47.208     6314.715     4588.064     2228.639        2.850        0.657      207.585       43.766        0.044      338.286       10.833      856.118
04/13/2013  23:28:00     -209.137      170.695      -37.777       66.333      107.346       50.753     4400.058    11523.259     2575.852        4.640        0.925      269.954       49.384        0.033      338.241       10.756      856.102
04/13/2013  23:29:00     -201.082      -83.141      -23.598       69.264       53.793       40.769     4797.491     2893.735     1662.103        2.863        0.468      217.592       12.860        0.003      338.243       10.759      856.078
04/13/2013  23:30:00     -177.946      -62.416      -28.109      107.952       74.105       51.092    11653.720     5491.625     2610.436        2.805        0.988      188.575       37.060        0.039      338.109       10.535      856.071
04/13/2013  23:31:00     -158.928      -18.853      -24.116       61.880       55.890       38.400     3829.120     3123.705     1474.588        1.731        0.421      160.042       31.465        0.039      338.081       10.491      856.056
04/13/2013  23:32:00     -145.114      -75.621       -3.470       82.893       93.827       47.567     6871.183     8803.569     2262.613        2.236        0.897      163.636       34.623        0.045      338.087       10.499      856.056
04/13/2013  23:33:00     -263.541      -59.838      -15.996       95.606       81.623       47.669     9140.564     6662.351     2272.343        4.568        0.904      270.249       41.153        0.023      337.959       10.282      856.070
04/13/2013  23:34:00     -251.282       -2.698      -25.496      110.321      137.012       51.396    12170.708    18772.326     2641.530        4.869        1.679      251.296       48.242        0.037      337.956       10.278      856.084
04/13/2013  23:35:00     -256.188       93.993      -43.409      130.646       78.058       64.122    17068.348     6093.041     4111.661        5.181        1.364      272.887       66.917        0.060      337.907       10.196      856.097
04/13/2013  23:36:00     -219.509      196.722      -44.696       90.282      100.025       51.147     8150.764    10004.996     2616.059        5.482        1.039      294.760       43.999        0.022      337.946       10.260      856.106
04/13/2013  23:37:00     -268.811      185.695      -29.773      130.324      131.645       86.718    16984.224    17330.464     7519.944        7.472        2.092      326.714       88.654        0.074      337.913       10.205      856.113
04/13/2013  23:38:00     -236.785      275.873      -45.769       89.401      129.170       58.682     7992.480    16684.879     3443.605        8.119        1.406      363.557       49.849        0.019      337.885       10.158      856.128
04/13/2013  23:39:00     -218.146      259.506      -47.073       96.158      104.586       56.381     9246.272    10938.313     3178.841        7.025        1.168      339.015       52.652        0.024      337.881       10.149      856.110
04/13/2013  23:40:00     -123.469      239.502      -27.528       97.036       83.207       51.920     9415.943     6923.443     2695.715        4.620        0.952      269.455       50.925        0.036      337.833       10.069      856.073
04/13/2013  23:41:00     -129.882      208.318      -33.396      103.871      141.858       40.395    10789.118    20123.806     1631.746        4.696        1.627      245.491       35.447        0.021      337.859       10.115      856.060
04/13/2013  23:42:00     -179.388       95.883      -18.453       98.850       94.685       54.427     9771.390     8965.164     2962.306        3.170        1.085      203.405       54.445        0.072      337.835       10.073      856.156
04/13/2013  23:43:00     -197.006       27.372      -24.716      112.244      116.185       60.998    12598.634    13499.043     3720.782        3.499        1.491      198.898       45.642        0.053      337.741        9.918      856.173
04/13/2013  23:44:00     -157.123      316.422      -47.589      117.375      142.314       61.255    13776.827    20253.200     3752.198        8.242        1.889      353.285       79.664        0.051      337.716        9.875      856.126
04/13/2013  23:45:00     -204.352      141.944      -40.707       60.760       94.165       45.559     3691.814     8867.122     2075.585        3.910        0.732      248.813       26.960        0.012      337.744        9.921      856.087
04/13/2013  23:46:00     -211.772      -22.166      -22.573       97.762       98.284       50.813     9557.458     9659.704     2581.954        3.382        1.090      212.929       46.956        0.049      337.733        9.905      856.085
04/13/2013  23:47:00     -223.400      -32.715      -24.584       83.786      103.013       43.144     7020.154    10611.756     1861.413        3.553        0.975      225.783       32.740        0.021      337.709        9.863      856.110
04/13/2013  23:48:00     -259.889      -45.632      -33.249       96.025       67.898       45.318     9220.852     4610.157     2053.737        4.330        0.794      263.865       14.409        0.003      337.614        9.703      856.139
04/13/2013  23:49:00     -225.980      -50.945      -21.283      113.018       78.212       40.031    12773.170     6117.192     1602.472        3.730        1.025      231.652       41.048        0.031      337.563        9.618      856.124
04/13/2013  23:50:00     -203.087       61.570      -30.647      107.123       71.717       41.193    11475.430     5143.275     1696.895        3.214        0.916      212.215       43.620        0.042      337.491        9.498      856.128
04/13/2013  23:51:00     -127.220      114.568       13.284      128.503      127.891       65.810    16512.905    16356.172     4330.912        3.334        1.860      171.204       64.122        0.140      337.487        9.490      856.112
04/13/2013  23:52:00     -163.368      159.904      -28.883       77.891      112.019       55.342     6067.069    12548.272     3062.727        3.738        1.084      228.601       52.825        0.053      337.506        9.523      856.079
04/13/2013  23:53:00     -138.011      124.358      -11.819       72.519       95.085       41.907     5258.998     9041.189     1756.217        2.535        0.803      185.774       43.365        0.054      337.534        9.570      856.067
04/13/2013  23:54:00     -204.273      270.377      -52.741       80.400       84.457       47.444     6464.201     7132.955     2250.967        6.673        0.792      338.868       36.656        0.012      337.512        9.532      856.038
04/13/2013  23:55:00     -142.495      124.225      -22.519       71.874       59.764       38.298     5165.941     3571.722     1466.762        2.322        0.510      189.042       40.533        0.046      337.505        9.522      856.038
04/13/2013  23:56:00     -114.072      141.510      -19.732       50.406      109.636       44.079     2540.796    12020.004     1942.986        2.496        0.825      181.762       37.996        0.044      337.480        9.480      856.026
04/13/2013  23:57:00     -214.863      162.834      -51.522       84.847       65.141       44.763     7198.989     4243.413     2003.684        4.439        0.672      269.594       37.849        0.020      337.527        9.556      856.063
04/13/2013  23:58:00     -145.517      158.734      -17.493       83.281       77.426       60.513     6935.773     5994.826     3661.785        3.163        0.830      215.341       50.682        0.055      337.464        9.453      856.097
04/13/2013  23:59:00     -175.181       74.902      -21.172       78.369       56.689       43.821     6141.771     3213.606     1920.319        2.401        0.564      190.522       32.767        0.030      337.513        9.535      856.090
